[[[{"header":{"parameterUnit":"kt","parameterCategory":2,"dx":1,"dy":1,"la1":29.285339999999998,"la2":30.599998999999997,"lo1":-89.70041500000002,"lo2":-87.6738589999976,"nx":112,"ny":82,"refTime":"2022-09-28T12:00:00:Z","depth":0,"parameterNumber":1,"parameterNumberName":"U-component_of_WINDS"},"data":[9.4164,9.4812,9.4693,8.9868,9.0621,9.1218,8.661,8.3655,8.1323,7.9999,7.6128,7.3434,7.4897,7.2854,7.1579,7.377,7.1882,7.0552,0.0,7.1431,7.1853,7.3159,7.7867,0.0,0.0,8.8919,9.1827,9.4815,9.4519,9.4841,9.6131,9.1571,8.8977,8.876,8.5382,8.3534,8.3534,8.3534,8.3534,8.3534,8.3534,8.3534,8.3534,8.3534,8.3534,8.3534,8.3534,8.3534,8.3534,8.3534,8.3534,8.3534,8.3534,8.3534,8.3825,8.5041,8.5066,8.4578,8.3849,8.3534,8.3534,8.3534,8.3534,8.3534,8.3534,8.3534,8.3122,8.0926,7.7347,7.363,7.0867,6.766,6.4504,6.3377,6.2734,6.2392,6.1487,6.063,6.0043,6.0043,6.0043,6.0043,6.0043,6.0043,6.0043,6.0043,6.0043,6.0043,6.0043,6.0043,6.0043,6.0043,6.0043,6.0043,6.0043,6.0043,6.0043,6.0043,6.0043,6.0043,6.0043,6.0043,6.0043,6.0043,6.0043,6.0043,6.0043,6.0043,6.0043,6.0043,6.0043,6.0043,9.1604,9.1536,9.0727,8.5978,8.6814,8.7364,8.2114,7.9336,7.7235,7.5054,7.2401,7.0006,6.9102,7.0338,7.1139,6.982,7.1051,7.2213,0.0,7.2807,7.4295,7.6966,8.14,8.5853,8.9645,9.1949,9.3685,9.5007,9.4241,9.3807,9.4048,8.9954,8.7363,8.7363,8.4967,8.3534,8.3534,8.3534,8.3534,8.3534,8.3534,8.3534,8.3534,8.3534,8.3534,8.3534,8.3534,8.3534,8.3559,8.3923,8.4189,8.4213,8.4578,8.4627,8.4799,8.625,8.6174,8.5535,8.4802,8.4627,8.4627,8.4627,8.4311,8.4189,8.4189,8.3874,8.3461,8.2372,7.8187,7.3779,7.2272,6.8284,6.4298,6.2999,6.2434,6.1884,6.0972,6.0365,6.0043,6.0043,6.0043,6.0043,6.0043,6.0043,6.0043,6.0043,6.0043,6.0043,6.0043,6.0043,6.0043,6.0043,6.0043,6.0043,6.0043,6.0043,6.0043,6.0043,6.0043,6.0043,6.0043,6.0043,6.0043,6.0043,6.0043,6.0043,6.0043,6.0043,6.0043,6.0043,6.0043,6.0043,8.7007,8.5096,8.3136,7.9432,7.8593,7.7858,7.5177,7.3596,7.2406,7.1246,6.9977,6.9073,6.9073,7.1187,7.1673,6.7888,7.1606,0.0,0.0,7.3388,7.6822,8.2124,8.6036,8.9789,9.3488,9.7697,9.822,9.3935,9.6268,9.4961,8.7913,8.7338,8.6163,8.3583,8.3534,8.3534,8.3534,8.3534,8.3534,8.3534,8.3534,8.3534,8.3534,8.3559,8.3559,8.3559,8.3583,8.3583,8.3825,8.4676,8.514,8.5263,8.6337,8.6729,8.6834,8.6864,8.6849,8.6724,8.6718,8.6729,8.6729,8.6729,8.5995,8.5214,8.5214,8.4409,8.3098,7.9893,7.6718,7.3487,7.0556,6.6647,6.3638,6.2869,6.1792,6.0972,6.0327,6.0043,6.0043,6.0043,6.0043,6.0043,6.0043,6.0043,6.0043,6.0043,6.0043,6.0043,6.0043,6.0043,6.0043,6.0043,6.0043,6.0043,6.0043,6.0043,6.0043,6.0043,6.0043,6.0043,6.0043,6.0043,6.0043,6.0043,6.0043,6.0043,6.0043,6.0043,6.0043,6.0043,6.0043,6.0043,8.3056,8.2401,8.1967,7.8053,7.8494,7.8996,7.5487,7.3692,7.2342,7.1208,7.1275,0.0,0.0,0.0,7.5206,7.4213,0.0,7.8601,7.804,8.0007,8.3453,8.8774,9.1052,9.2986,9.4687,9.4894,9.4681,9.3296,9.0544,8.8387,8.753,8.5722,8.4287,8.3559,8.3534,8.3534,8.3534,8.3534,8.3534,8.3534,8.3534,8.3534,8.3559,8.4311,8.4651,8.4676,8.5431,8.5797,8.5797,8.6138,8.62,8.6297,8.6647,8.7796,8.9144,8.9159,8.8531,8.7911,8.7906,8.7445,8.6695,8.6695,8.6623,8.6297,8.6297,8.6048,8.5066,8.201,7.8387,7.4731,7.1304,6.7254,6.3452,6.2872,6.1931,6.0972,6.0327,6.0043,6.0043,6.0043,6.0043,6.0043,6.0043,6.0043,6.0043,6.0043,6.0043,6.0043,6.0043,6.0043,6.0043,6.0043,6.0043,6.0043,6.0043,6.0043,6.0043,6.0043,6.0043,6.0043,6.0043,6.0043,6.0043,6.0043,6.0043,6.0043,6.0043,6.0043,6.0043,6.0043,6.0043,6.0043,7.9905,7.8552,7.7743,7.4849,7.5421,7.5939,7.4195,7.3219,7.2825,7.3189,0.0,0.0,0.0,0.0,0.0,0.0,8.0481,8.2723,8.2078,8.4629,8.7557,8.988,9.2149,9.3397,9.2835,9.2833,9.2191,9.0868,8.8049,8.643,8.5797,8.4311,8.3534,8.3534,8.3534,8.3534,8.3534,8.3534,8.3534,8.3534,8.3947,8.4262,8.4262,8.5357,8.5709,8.5848,8.6316,8.6663,8.6687,8.7332,8.7382,8.7581,8.8007,8.8862,9.0026,9.0026,8.9621,8.9193,8.9193,8.8765,8.8055,8.8055,8.7725,8.7347,8.7347,8.7094,8.6268,8.437,8.1365,7.778,7.4454,6.9955,6.5902,6.4036,6.2546,6.1663,6.0761,6.0572,6.0536,6.0138,6.0043,6.027,6.0973,6.1087,6.0973,6.0612,6.0555,6.0441,6.01,6.0043,6.0043,6.0043,6.0043,6.0043,6.0043,6.0043,6.0043,6.0043,6.0043,6.0043,6.0043,6.0043,6.0043,6.0043,6.0043,6.0043,6.0043,6.0043,6.0043,6.0043,6.0043,6.0043,7.7025,7.4191,7.2186,7.0972,7.0943,7.152,7.2825,0.0,7.4229,7.6768,0.0,7.8037,7.9172,0.0,0.0,7.995,8.3631,8.6134,8.4841,8.7999,8.9966,8.8324,9.0887,9.2071,9.0032,9.1094,9.0611,8.7346,8.7706,8.6579,8.3825,8.3534,8.3534,8.3534,8.3534,8.3534,8.3534,8.38,8.3825,8.3849,8.4701,8.5288,8.5365,8.6466,8.681,8.6897,8.6945,8.6969,8.7227,8.8103,8.8531,8.8789,8.9645,9.0026,9.0026,9.0026,9.0026,9.0026,9.0026,9.0026,9.0026,9.0026,8.929,8.8531,8.8531,8.8007,8.6921,8.6544,8.4257,8.0938,7.759,7.3048,6.8641,6.5717,6.3617,6.2312,6.1632,6.1472,6.1139,6.0498,6.0327,6.0802,6.2283,6.2529,6.2283,6.1523,6.1409,6.1144,6.0422,6.0327,6.0327,6.0327,6.0232,6.0176,6.0176,6.01,6.0043,6.0043,6.0043,6.0043,6.0043,6.0043,6.0043,6.0043,6.0043,6.0043,6.0043,6.0043,6.0043,6.0043,6.0043,6.0043,7.3311,7.1678,7.0943,6.9675,7.0884,7.2914,0.0,0.0,0.0,8.0889,8.2944,8.4412,8.4629,8.5653,8.6768,8.7647,8.8441,8.8631,8.7369,9.113,9.3538,9.2113,9.253,9.3043,9.2703,9.0943,8.8735,8.5832,8.4925,8.4262,8.3559,8.3534,8.3534,8.3534,8.3534,8.3534,8.3534,8.4336,8.4942,8.4942,8.5822,8.6447,8.6452,8.7602,8.8087,8.8103,8.891,8.929,8.929,8.9621,8.967,8.967,8.9977,9.0026,9.0026,9.0026,9.0026,9.0026,9.0026,9.0026,9.0026,9.0026,8.9953,8.967,8.967,8.9597,8.8813,8.6095,8.2436,7.8515,7.5219,7.0163,6.5728,6.5206,6.3713,6.2527,6.2471,6.2388,6.2283,6.2093,6.2055,6.215,6.2472,6.2529,6.2472,6.2321,6.2283,6.2226,6.2074,6.2055,6.2055,6.2055,6.1428,6.103,6.103,6.0422,6.0043,6.0043,6.0043,6.0043,6.0043,6.0043,6.0043,6.0043,6.0043,6.0043,6.0043,6.0043,6.0043,6.0043,6.0043,6.0043,7.1953,7.0943,7.0914,7.0884,7.2218,0.0,0.0,8.0065,8.2145,8.4757,8.5686,8.6418,8.7802,8.6909,8.6819,8.9309,8.9568,8.9553,8.9358,8.9644,8.999,8.9835,9.0006,8.9839,8.9362,8.8027,8.6411,8.451,8.39,8.3534,8.3534,8.3534,8.3534,8.3534,8.3534,8.3874,8.4311,8.4942,8.5366,8.5988,8.7128,8.7552,8.7653,8.8789,8.9241,8.9241,8.9694,9.0026,9.0026,9.0026,9.0026,9.0026,9.0026,9.0026,9.0026,9.0026,9.0026,9.0026,9.0026,9.0026,9.0026,9.0026,9.0026,9.0026,9.0026,9.0026,8.9645,8.8007,8.6072,8.3161,7.8224,7.4168,7.0293,6.7002,6.5052,6.3692,6.3276,6.3289,6.3023,6.2605,6.3194,6.3744,6.3744,6.3744,6.3611,6.3213,6.3137,6.3004,6.2586,6.2529,6.2529,6.2529,6.215,6.1903,6.1903,6.1523,6.1106,6.0688,6.065,6.0479,6.0062,6.0043,6.0043,6.0043,6.0043,6.0043,6.0043,6.0043,6.0043,6.0062,6.046,6.065,7.1216,7.0758,7.1237,7.208,7.4132,0.0,8.0343,8.2999,8.5461,8.8232,8.8144,8.8305,8.974,8.7732,8.666,8.9953,8.9968,8.9587,8.9919,8.7455,8.5706,8.6365,8.6414,8.5999,8.4925,8.4828,8.4462,8.3608,8.3534,8.3534,8.3534,8.3534,8.3583,8.3874,8.3898,8.4311,8.5406,8.5561,8.6189,8.6945,8.8103,8.8813,8.8813,8.9621,9.0026,9.0026,9.0026,9.0026,9.0026,9.0026,9.0026,9.0026,9.0026,9.0026,9.0026,9.0026,9.0026,9.0026,9.0026,9.0026,9.0026,9.0026,9.0026,9.0026,9.0026,9.0026,9.0026,9.0026,8.9532,8.7783,8.2368,7.9032,7.5431,6.9668,6.6769,6.4978,6.4162,6.3991,6.3801,6.3137,6.4067,6.4959,6.4959,6.4959,6.475,6.4086,6.3991,6.3744,6.3099,6.3004,6.3004,6.3004,6.2852,6.2757,6.2757,6.2624,6.2245,6.1561,6.1504,6.122,6.0555,6.0365,6.0289,6.0289,6.0119,6.0043,6.0043,6.0365,6.0536,6.0536,6.1201,6.1504,6.9636,7.0102,7.1035,7.1138,7.55,0.0,8.3207,8.8319,9.2324,9.1571,9.2931,9.352,9.1635,9.1545,9.2516,9.3996,9.139,8.8849,8.7408,8.6859,8.6268,8.5413,8.5316,8.4901,8.3827,8.373,8.3656,8.3559,8.3534,8.3534,8.3534,8.3534,8.3947,8.4967,8.4992,8.5406,8.6529,8.7439,8.8048,8.8386,8.9265,8.9718,8.9718,9.0001,9.0026,9.0026,9.0026,9.0026,9.0026,9.0026,9.0026,9.0026,9.0026,9.0026,9.0026,9.0026,9.0026,9.0026,9.0026,9.0026,9.0026,9.0026,9.0026,9.0026,9.0026,9.0026,9.0026,9.0026,8.7759,8.5317,8.4669,7.9214,7.3795,7.2249,6.8902,6.587,6.5016,6.4826,6.4807,6.4712,6.4845,6.4959,6.4959,6.4959,6.494,6.4845,6.4826,6.4807,6.4712,6.4693,6.4693,6.4693,6.4048,6.3611,6.3611,6.2947,6.2491,6.2397,6.2397,6.234,6.2264,6.1542,6.1125,6.1125,6.0403,6.0043,6.0043,6.1542,6.2264,6.2264,6.234,6.2397,7.0062,7.1022,7.2534,7.4752,0.0,0.0,8.3897,8.8004,9.1385,9.064,9.0587,9.0762,9.0946,9.014,8.9574,9.0032,8.8351,8.6788,8.681,8.5657,8.495,8.5121,8.4584,8.4291,8.4462,8.4486,8.473,8.5365,8.5413,8.5413,8.5413,8.5435,8.5654,8.6048,8.6085,8.6546,8.7691,8.827,8.8813,8.929,8.9694,9.0026,9.0026,9.0026,9.0026,9.0026,9.0026,9.0026,9.0026,9.0026,9.0026,9.0026,9.0026,9.0026,9.0026,9.0026,9.0026,9.0026,9.0026,9.0026,9.0026,9.0026,9.0026,9.0026,9.0026,9.0026,9.0026,9.0026,8.9014,8.7545,8.5433,8.0896,7.6039,7.3671,6.9604,6.6136,6.5775,6.532,6.4959,6.4959,6.4959,6.4959,6.4959,6.4959,6.4959,6.4959,6.4959,6.4959,6.4959,6.4959,6.4959,6.4959,6.4655,6.4466,6.4466,6.4143,6.3744,6.327,6.3232,6.3023,6.2548,6.2188,6.1998,6.1998,6.1675,6.1485,6.1485,6.2188,6.2529,6.2548,6.3023,6.3232,7.0673,0.0,0.0,0.0,0.0,0.0,8.4154,8.7244,8.9985,8.8973,8.85,8.8578,8.9585,8.7978,8.6634,8.6341,8.5901,8.5755,8.6219,8.5218,8.4706,8.5487,8.4901,8.473,8.5511,8.5584,8.5901,8.6682,8.6731,8.6731,8.6731,8.6595,8.6886,8.7153,8.7275,8.7694,8.8862,8.8862,8.9241,9.0026,9.0026,9.0026,9.0026,9.0026,9.0026,9.0026,9.0026,9.0026,9.0026,9.0026,9.0026,9.0026,9.0026,9.0026,9.0026,9.0026,9.0026,9.0026,9.0026,9.0026,9.0026,9.0026,9.0026,9.0026,9.0026,9.0026,9.0026,9.0026,9.0026,8.9508,8.6997,8.2738,7.8424,7.5709,7.0791,6.6516,6.6269,6.5567,6.4959,6.4959,6.4959,6.4959,6.4959,6.4959,6.4959,6.4959,6.4959,6.4959,6.4959,6.4959,6.4959,6.4959,6.4959,6.4959,6.4959,6.4959,6.4712,6.4124,6.4086,6.382,6.3232,6.2985,6.2871,6.2871,6.2643,6.2529,6.2529,6.2985,6.3213,6.3213,6.382,6.4086,0.0,0.0,0.0,7.65,8.0324,8.4065,8.392,8.7722,9.0487,8.7905,8.9072,8.9788,8.7357,8.6731,8.6414,8.5365,8.6048,8.6341,8.534,8.6024,8.6658,8.6682,8.6658,8.6658,8.6682,8.6707,8.6707,8.6731,8.6731,8.6731,8.6731,8.6756,8.717,8.8302,8.8351,8.8963,8.9977,9.0001,9.0001,9.0026,9.0026,9.0026,9.0026,9.0026,9.0026,9.0026,9.0026,9.0026,9.0026,9.0026,9.0026,9.0026,9.0026,9.0026,9.0026,9.0026,9.0026,9.0026,9.0026,9.0026,9.0026,9.0026,9.0026,9.0026,9.0026,9.0026,9.0026,9.0026,9.0026,9.0026,8.9767,8.5006,7.9766,7.8808,7.2947,6.7199,6.6402,6.5567,6.4959,6.4959,6.4959,6.4959,6.4959,6.4959,6.4959,6.4959,6.4959,6.4959,6.4959,6.4959,6.4959,6.4959,6.4959,6.4959,6.4959,6.4959,6.4959,6.494,6.494,6.4921,6.4902,6.4143,6.3706,6.3706,6.2928,6.2529,6.2529,6.4124,6.4902,6.4902,6.4921,6.494,7.5064,7.6925,7.8496,8.0867,8.4025,8.6336,8.5235,8.7565,8.9348,8.7395,8.7482,8.7779,8.6957,8.5584,8.473,8.5072,8.5438,8.5804,8.6146,8.6512,8.6731,8.6731,8.6731,8.7024,8.7781,8.7854,8.8147,8.8879,8.8928,8.8928,8.8928,8.8928,8.905,8.9391,8.9391,8.9586,9.0026,9.0026,9.0026,9.0026,9.0026,9.0026,9.0026,9.0026,9.0026,9.0026,9.0026,9.0026,9.0026,9.0026,9.0026,9.0026,9.0026,9.0026,9.0026,9.0026,9.0026,9.0026,9.0026,9.0026,9.0026,9.0026,9.0026,9.0026,9.0026,9.0026,9.0026,9.0026,9.0026,9.0026,9.0026,8.8281,8.5946,8.3579,7.6569,7.0762,7.0483,6.8073,6.5643,6.5073,6.4959,6.4959,6.4959,6.4959,6.4959,6.4959,6.4959,6.4959,6.4959,6.4959,6.4959,6.4959,6.4959,6.4959,6.4959,6.4959,6.4959,6.4959,6.4959,6.4959,6.4959,6.4693,6.4561,6.4561,6.4295,6.4143,6.4143,6.4693,6.4959,6.4959,6.4959,6.4959,7.7391,7.9863,8.1749,8.3683,8.6197,8.7844,8.5309,8.664,8.7914,8.6544,8.617,8.617,8.617,8.5047,8.434,8.5023,8.5804,8.656,8.7244,8.7659,8.7927,8.7927,8.7927,8.8195,8.8928,8.9001,8.9294,8.9977,9.0026,9.0026,9.0026,9.0026,9.0026,9.0026,9.0026,9.0026,9.0026,9.0026,9.0026,9.0026,9.0026,9.0026,9.0026,9.0026,9.0026,9.0026,9.0026,9.0026,9.0026,9.0026,9.0026,9.0026,9.0026,9.0026,9.0026,9.0026,9.0026,9.0026,9.0026,9.0026,9.0026,9.0026,9.0026,9.0026,9.0026,9.0026,9.0026,9.0026,9.0026,9.0026,9.0026,9.0026,8.8778,8.4256,7.9069,7.4812,7.2911,6.8954,6.5624,6.5073,6.4959,6.4959,6.4959,6.4959,6.4959,6.4959,6.4959,6.4959,6.4959,6.4959,6.4959,6.4959,6.4959,6.4959,6.4959,6.4959,6.4959,6.4959,6.4959,6.4959,6.4959,6.4959,6.4959,6.4959,6.4959,6.4959,6.4959,6.4959,6.4959,6.4959,6.4959,6.4959,7.806,8.2509,8.6036,8.4568,8.6729,8.8361,8.4582,8.5194,8.6365,8.534,8.5145,8.5121,8.5072,8.5096,8.5169,8.5218,8.7024,8.8439,8.8513,8.9391,9.0026,9.0026,9.0026,9.0026,9.0026,9.0026,9.0026,9.0026,9.0026,9.0026,9.0026,9.0026,9.0026,9.0026,9.0026,9.0026,9.0026,9.0026,9.0026,9.0026,9.0026,9.0026,9.0026,9.0026,9.0026,9.0026,9.0026,9.0026,9.0026,9.0026,9.0026,9.0026,9.0026,9.0026,9.0026,9.0026,9.0026,9.0026,9.0026,9.0026,9.0026,9.0026,9.0026,9.0026,9.0026,9.0026,9.0026,9.0026,9.0026,9.0001,8.9694,8.9743,8.8044,8.1719,8.0255,7.876,7.3901,6.8846,6.5073,6.4978,6.4959,6.4959,6.4959,6.4959,6.4959,6.4959,6.4959,6.4959,6.4959,6.4959,6.4959,6.4959,6.4959,6.4959,6.4959,6.4959,6.4959,6.4959,6.4959,6.4959,6.4959,6.4959,6.4959,6.4959,6.4959,6.4959,6.4959,6.4959,6.4959,6.4959,6.4959,6.4959,8.1113,8.5883,8.8706,8.7032,8.8097,8.8772,8.5549,8.5169,8.5462,8.5194,8.5145,8.4901,8.4096,8.4608,8.5389,8.6194,8.7512,8.8708,8.9513,8.9855,9.0026,9.0026,9.0026,9.0026,9.0026,9.0026,9.0026,9.0026,9.0026,9.0026,9.0026,9.0026,9.0026,9.0026,9.0026,9.0026,9.0026,9.0026,9.0026,9.0026,9.0026,9.0026,9.0026,9.0026,9.0026,9.0026,9.0026,9.0026,9.0026,9.0026,9.0026,9.0026,9.0026,9.0026,9.0026,9.0026,9.0026,9.0026,9.0026,9.0026,9.0026,9.0026,9.0026,9.0026,9.0026,9.0026,9.0026,9.0026,9.0026,8.9314,8.6897,8.6287,8.5892,8.4228,8.1918,7.9505,7.6819,7.1206,6.6459,6.5206,6.4959,6.4959,6.4959,6.4959,6.4959,6.4959,6.4959,6.4959,6.4959,6.4959,6.4959,6.4959,6.4959,6.4959,6.4959,6.4959,6.4959,6.4959,6.4959,6.4959,6.4959,6.4959,6.4959,6.4959,6.4959,6.4959,6.4959,6.4959,6.4959,6.4959,6.4959,6.4959,8.0968,8.6216,8.984,8.9331,8.9331,8.8707,8.5901,8.5145,8.4999,8.4535,8.4437,8.4266,8.3656,8.4803,8.6048,8.6634,8.8073,8.9342,8.9953,9.0026,9.0026,9.0026,9.0026,9.0026,9.0026,9.0026,9.0026,9.0026,9.0026,9.0026,9.0026,9.0026,9.0026,9.0026,9.0026,9.0026,9.0026,9.0026,9.0026,9.0026,9.0026,9.0026,9.0026,9.0026,9.0026,9.0026,9.0026,9.0026,9.0026,9.0026,9.0026,9.0026,9.0026,9.0026,9.0026,9.0026,9.0026,9.0026,9.0026,9.0026,9.0026,9.0026,9.0026,9.0026,9.0026,9.0026,9.0026,9.0026,9.0026,8.9621,8.7677,8.6045,8.4554,8.3041,8.0334,7.7532,7.56,7.1072,6.6952,6.5301,6.4959,6.4959,6.4959,6.4959,6.4959,6.4959,6.4959,6.4959,6.4959,6.4959,6.4959,6.4959,6.4959,6.4959,6.4959,6.4959,6.4959,6.4959,6.4959,6.4959,6.4959,6.4959,6.4959,6.4959,6.4959,6.4959,6.4959,6.4959,6.4959,6.4959,6.4959,6.4959,8.0096,8.5404,8.9951,9.0864,9.0287,8.8655,8.5561,8.4925,8.4657,8.373,8.3534,8.3534,8.3534,8.5169,8.6585,8.6731,8.8464,8.9855,9.0001,9.0026,9.0026,9.0026,9.0026,9.0026,9.0026,9.0026,9.0026,9.0026,9.0026,9.0026,9.0026,9.0026,9.0026,9.0026,9.0026,9.0026,9.0026,9.0026,9.0026,9.0026,9.0026,9.0026,9.0026,9.0026,9.0026,9.0026,9.0026,9.0026,9.0026,9.0026,9.0026,9.0026,9.0026,9.0026,9.0026,9.0026,9.0026,9.0026,9.0026,9.0026,9.0026,9.0026,9.0026,9.0026,9.0026,9.0026,9.0026,9.0026,9.0026,8.9977,8.9314,8.6806,8.3531,8.073,7.722,7.3851,7.2527,6.9805,6.7028,6.5567,6.5111,6.4959,6.4959,6.4959,6.4959,6.4959,6.4959,6.4959,6.4959,6.4959,6.4959,6.4959,6.4959,6.4959,6.4959,6.4959,6.4959,6.4959,6.4959,6.4959,6.4959,6.4959,6.4959,6.4959,6.4959,6.4959,6.4959,6.4959,6.4959,6.4959,6.4959,6.4959,8.3818,8.7509,9.0028,8.9959,9.0609,8.9867,8.5029,8.3827,8.3754,8.3583,8.3534,8.3534,8.3534,8.4559,8.5706,8.6609,8.7829,8.9001,8.9904,9.0026,9.0026,9.0026,9.0026,9.0026,9.0026,9.0026,9.0026,9.0026,9.0026,9.0026,9.0026,9.0026,9.0026,9.0026,9.0026,9.0026,9.0026,9.0026,9.0026,9.0026,9.0026,9.0026,9.0026,9.0026,9.0026,9.0026,9.0026,9.0026,9.0026,9.0026,9.0026,9.0026,9.0026,9.0026,9.0026,9.0026,9.0026,9.0026,9.0026,9.0026,9.0026,9.0026,9.0026,9.0026,9.0026,9.0026,9.0026,9.0026,9.0026,8.929,8.652,8.3373,8.0696,8.014,7.5384,7.0686,7.0378,6.895,6.737,6.7066,6.5908,6.4959,6.4959,6.4959,6.4959,6.4959,6.4959,6.4959,6.4959,6.4959,6.4959,6.4959,6.4959,6.4959,6.4959,6.4959,6.4959,6.4959,6.4959,6.4959,6.4959,6.4959,6.4959,6.4959,6.4959,6.4959,6.4959,6.4959,6.4959,6.4959,6.4959,6.4959,8.312,8.7541,9.0855,8.9928,8.9603,8.8501,8.5258,8.3949,8.3943,8.5348,8.4541,8.3534,8.3534,8.4413,8.5316,8.5828,8.6829,8.7927,8.9025,8.9196,8.9391,8.9953,9.0026,9.0026,9.0026,9.0026,9.0026,9.0026,9.0026,9.0026,9.0026,9.0026,9.0026,9.0026,9.0026,9.0026,9.0026,9.0026,9.0026,9.0026,9.0026,9.0026,9.0026,9.0026,9.0026,9.0026,9.0026,9.0026,9.0026,9.0026,9.0026,9.0026,9.0026,9.0026,9.0026,9.0026,9.0026,9.0026,9.0026,9.0026,9.0026,9.0026,9.0026,9.0026,9.0026,9.0026,9.0026,9.0026,9.0026,8.9645,8.8031,8.3832,8.0021,8.0021,7.6292,7.1762,6.9111,6.8034,6.7199,6.6326,6.551,6.4959,6.4959,6.4959,6.4959,6.4959,6.4959,6.4959,6.4959,6.4959,6.4959,6.4959,6.4959,6.4959,6.4959,6.4959,6.4959,6.4959,6.4959,6.4959,6.4959,6.4959,6.4959,6.4959,6.4959,6.4959,6.4959,6.4959,6.4959,6.4959,6.4959,6.4959,8.2539,8.7657,9.212,9.129,8.9358,8.713,8.5616,8.4385,8.4135,8.6147,8.4945,8.3534,8.3534,8.4218,8.4877,8.5096,8.5853,8.678,8.7903,8.8269,8.8732,8.9586,8.9879,9.0026,9.0026,9.0026,9.0026,9.0026,9.0026,9.0026,9.0026,9.0026,9.0026,9.0026,9.0026,9.0026,9.0026,9.0026,9.0026,9.0026,9.0026,9.0026,9.0026,9.0026,9.0026,9.0026,9.0026,9.0026,9.0026,9.0026,9.0026,9.0026,9.0026,9.0026,9.0026,9.0026,9.0026,9.0026,9.0026,9.0026,9.0026,9.0026,9.0026,9.0026,9.0026,9.0026,9.0026,9.0026,9.0026,9.0026,9.0026,8.5582,8.1132,8.1066,7.8546,7.515,7.1001,6.9417,6.8271,6.669,6.5679,6.4959,6.4959,6.4959,6.4959,6.4959,6.4959,6.4959,6.4959,6.4959,6.4959,6.4959,6.4959,6.4959,6.4959,6.4959,6.4959,6.4959,6.4959,6.4959,6.4959,6.4959,6.4959,6.4959,6.4959,6.4959,6.4959,6.4959,6.4959,6.4959,6.4959,6.4959,8.5418,8.9664,9.3997,9.5073,9.161,8.7726,8.6129,8.4724,8.3534,8.3943,8.3751,8.3534,8.3534,8.3632,8.3998,8.4974,8.5218,8.5657,8.6756,8.7781,8.8464,8.8562,8.9416,9.0026,9.0026,9.0026,9.0026,9.0026,9.0026,9.0026,9.0026,9.0026,9.0026,9.0026,9.0026,9.0026,9.0026,9.0026,9.0026,9.0026,9.0026,9.0026,9.0026,9.0026,9.0026,9.0026,9.0026,9.0026,9.0026,9.0026,9.0026,9.0026,9.0026,9.0026,9.0026,9.0026,9.0026,9.0026,9.0026,9.0026,9.0026,9.0026,9.0026,9.0026,9.0026,9.0026,9.0026,9.0026,9.0026,9.0026,9.0026,8.7281,8.4447,8.4568,8.2032,7.9506,7.9084,7.5188,7.2005,7.1843,6.8137,6.4959,6.4959,6.4959,6.4959,6.4959,6.4959,6.4959,6.4959,6.4959,6.4959,6.4959,6.4959,6.4959,6.4959,6.4959,6.4959,6.4959,6.4959,6.4959,6.4959,6.4959,6.4959,6.4959,6.4959,6.4959,6.4959,6.4959,6.4959,6.4959,6.4959,6.4959,8.2568,8.7046,9.17,9.2194,9.1941,9.0779,8.8735,8.7287,8.6103,8.587,8.5961,8.5348,8.3943,8.3534,8.3681,8.4096,8.4193,8.4559,8.5633,8.617,8.6926,8.8269,8.8806,8.9318,8.9953,9.0026,9.0026,9.0026,9.0026,9.0026,9.0026,9.0026,9.0026,9.0026,9.0026,9.0026,9.0026,9.0026,9.0026,9.0026,9.0026,9.0026,9.0026,9.0026,9.0026,9.0026,9.0026,9.0026,9.0026,9.0026,9.0026,9.0026,9.0026,9.0026,9.0026,9.0026,9.0026,9.0026,9.0026,9.0026,9.0026,9.0026,9.0026,9.0026,9.0026,9.0026,9.0026,9.0026,9.0026,9.0026,9.0026,8.7544,8.5027,8.4889,8.3929,8.2345,7.9802,7.7135,7.5048,7.4716,7.094,6.7743,6.7743,6.6125,6.4959,6.4959,6.4959,6.4959,6.4959,6.4959,6.4959,6.4959,6.4959,6.4959,6.4959,6.4959,6.4959,6.4959,6.4959,6.4959,6.4959,6.4959,6.4959,6.4959,6.4959,6.4959,6.4959,6.4959,6.4959,6.4959,6.4959,6.4959,8.0881,8.4865,8.917,9.0333,9.0967,9.1286,9.0424,8.9606,8.8811,8.726,8.7336,8.6755,8.4159,8.4135,8.4566,8.3751,8.3534,8.3803,8.4559,8.4925,8.5706,8.7268,8.7732,8.8342,8.944,8.9538,8.9684,9.0001,9.0026,9.0026,9.0026,9.0026,9.0026,9.0026,9.0026,9.0026,9.0026,9.0026,9.0026,9.0026,9.0026,9.0026,9.0026,9.0026,9.0026,9.0026,9.0026,9.0026,9.0026,9.0026,9.0026,9.0026,9.0026,9.0026,9.0026,9.0026,9.0026,9.0026,9.0026,9.0026,9.0026,9.0026,9.0026,9.0026,9.0026,9.0026,9.0026,9.0026,9.0026,9.0026,9.0026,8.8211,8.6414,8.6414,8.6444,8.5303,8.1383,7.9498,7.8173,7.6519,7.3481,7.0768,6.9839,6.7743,6.6368,6.6368,6.6368,6.6368,6.6368,6.6368,6.59,6.4959,6.4959,6.4959,6.4959,6.4959,6.4959,6.4959,6.4959,6.4959,6.4959,6.4959,6.4959,6.4959,6.4959,6.4959,6.4959,6.4959,6.4959,6.4959,6.4959,6.4959,8.1986,8.4196,8.7105,9.0973,8.9172,8.7269,9.0901,9.1711,9.0526,8.6631,8.6564,8.6755,8.4159,8.5749,8.6544,8.3943,8.3534,8.3534,8.3559,8.4486,8.5145,8.5169,8.6121,8.7195,8.8317,8.8439,8.8879,8.9953,9.0026,9.0026,9.0026,9.0026,9.0026,9.0026,9.0026,9.0026,9.0026,9.0026,9.0026,9.0026,9.0026,9.0026,9.0026,9.0026,9.0026,9.0026,9.0026,9.0026,9.0026,9.0026,9.0026,9.0026,9.0026,9.0026,9.0026,9.0026,9.0026,9.0026,9.0026,9.0026,9.0026,9.0026,9.0026,9.0026,9.0026,9.0026,9.0026,9.0026,9.0026,9.0026,9.0026,9.0026,9.0026,9.0026,9.0026,8.9014,8.5729,8.3411,8.1277,7.7895,7.5607,7.3117,7.0057,6.9601,6.9601,6.9601,6.9601,6.9601,6.9601,6.9601,6.8445,6.5185,6.4959,6.4959,6.4959,6.4959,6.4959,6.4959,6.4959,6.4959,6.4959,6.4959,6.4959,6.4959,6.4959,6.4959,6.4959,6.4959,6.4959,6.4959,6.4959,6.4959,7.9398,8.2248,8.5331,8.7454,8.9141,9.0371,9.1576,9.1177,9.0566,9.1139,8.9308,8.7078,8.5277,8.4849,8.4541,8.3751,8.3534,8.3534,8.3534,8.3827,8.4315,8.5072,8.5438,8.6072,8.717,8.7976,8.8562,8.8903,8.9611,9.0026,9.0026,9.0026,9.0026,9.0026,9.0026,9.0026,9.0026,9.0026,9.0026,9.0026,9.0026,9.0026,9.0026,9.0026,9.0026,9.0026,9.0026,9.0026,9.0026,9.0026,9.0026,9.0026,9.0026,9.0026,9.0026,9.0026,9.0026,9.0026,9.0026,9.0026,9.0026,9.0026,9.0026,9.0026,9.0026,9.0026,9.0026,9.0026,9.0026,9.0026,9.0026,8.8257,8.6496,8.6496,8.6496,8.6256,8.5247,8.3943,8.2575,8.0922,7.5936,7.2034,7.2778,6.9164,6.7763,7.2182,7.1004,7.0294,7.2416,7.2884,7.1476,6.8445,6.6125,6.4959,6.4959,6.4959,6.4959,6.4959,6.4959,6.4959,6.4959,6.4959,6.4959,6.4959,6.4959,6.4959,6.4959,6.4959,6.4959,6.4959,6.4959,6.4959,7.7914,8.0968,8.3935,8.5709,8.7599,8.917,8.9635,8.9452,8.9538,9.1201,8.9575,8.7575,8.6702,8.6361,8.5878,8.5085,8.5159,8.4756,8.3751,8.3534,8.3778,8.4462,8.4535,8.4974,8.6048,8.7146,8.7951,8.8391,8.9416,9.0026,9.0026,9.0026,9.0026,9.0026,9.0026,9.0026,9.0026,9.0026,9.0026,9.0026,9.0026,9.0026,9.0026,9.0026,9.0026,9.0026,9.0026,9.0026,9.0026,9.0026,9.0026,9.0026,9.0026,9.0026,9.0026,9.0026,9.0026,9.0026,9.0026,9.0026,9.0026,9.0026,9.0026,9.0026,9.0026,9.0026,9.0026,9.0026,9.0026,9.0026,9.0026,8.8518,8.6759,8.6759,8.5846,8.4683,8.3282,8.2224,8.0968,7.8811,7.5218,7.2629,7.2586,6.9144,6.7984,7.1947,7.1947,7.1947,7.4069,7.5224,7.4741,7.1712,6.9622,6.8004,6.6815,6.6592,6.6125,6.4959,6.6125,6.6592,6.6592,6.5656,6.4959,6.4959,6.4959,6.4959,6.4959,6.4959,6.4959,6.4959,6.4959,6.4959,7.7187,8.0066,8.2539,8.5098,8.504,8.4691,8.5883,8.7134,8.7994,8.7967,8.7892,8.7908,8.7926,8.8892,8.9092,8.744,8.7307,8.6544,8.3943,8.3534,8.3534,8.3534,8.3534,8.3925,8.4925,8.5999,8.7097,8.822,8.9294,8.9953,9.0026,9.0026,9.0026,9.0026,9.0026,9.0026,9.0026,9.0026,9.0026,9.0026,9.0026,9.0026,9.0026,9.0026,9.0026,9.0026,9.0026,9.0026,9.0026,9.0026,9.0026,9.0026,9.0026,9.0026,9.0026,9.0026,9.0026,9.0026,9.0026,9.0026,9.0026,9.0026,9.0026,9.0026,9.0026,9.0026,9.0026,9.0026,9.0026,9.0026,9.0026,8.984,8.963,8.9532,8.7234,8.4111,8.1022,7.9403,7.7444,7.3364,7.4213,7.449,7.0697,6.9839,6.9581,6.9839,7.2416,7.43,7.4532,7.7302,7.7981,7.4993,7.4532,7.335,7.0294,6.9819,6.8685,6.5656,6.8205,6.9819,6.9819,6.7058,6.5675,6.5675,6.5675,6.543,6.5185,6.5185,6.5204,6.4959,6.4959,6.4959,7.4754,7.6722,7.8583,8.1143,8.376,8.5767,8.6058,8.7134,8.8048,8.808,8.8031,8.7916,8.7825,8.6643,8.4993,8.3441,8.5592,8.6544,8.3943,8.3534,8.3534,8.3534,8.3534,8.3632,8.39,8.4877,8.5975,8.7048,8.8171,8.9147,8.9977,9.0026,9.0026,9.0026,9.0026,9.0026,9.0026,9.0026,9.0026,9.0026,9.0026,9.0026,9.0026,9.0026,9.0026,9.0026,9.0026,9.0026,9.0026,9.0026,9.0026,9.0026,9.0026,9.0026,9.0026,9.0026,9.0026,9.0026,9.0026,9.0026,9.0026,9.0026,9.0026,9.0026,9.0026,9.0026,9.0026,9.0026,9.0026,9.0026,9.0026,8.8187,8.6115,8.6203,8.483,8.3626,8.2676,8.181,8.0573,7.8852,7.6833,7.5198,7.3522,7.124,7.0294,7.2884,7.3815,7.5224,7.7529,8.0513,8.1224,7.823,7.7755,7.6597,7.335,7.3117,7.2884,7.2203,7.265,7.3117,7.3117,7.2437,7.1968,7.1968,7.1968,7.0789,6.8445,6.8445,6.728,6.4959,6.4959,6.4959,7.3779,7.6024,7.7682,7.8496,8.1113,8.3527,8.3527,8.4952,8.6465,8.7046,8.7163,8.6879,8.6301,8.7038,8.7174,8.5167,8.6947,8.775,8.5673,8.4351,8.3534,8.3534,8.3534,8.3534,8.3534,8.451,8.5389,8.595,8.7512,8.8684,8.9245,8.9757,9.0026,9.0026,9.0026,9.0026,9.0026,9.0026,9.0026,9.0026,9.0026,9.0026,9.0026,9.0026,9.0026,9.0026,9.0026,9.0026,9.0026,9.0026,9.0026,9.0026,9.0026,9.0026,9.0026,9.0026,9.0026,9.0026,9.0026,9.0026,9.0026,9.0026,9.0026,9.0026,9.0026,9.0026,9.0026,9.0026,9.0026,9.0026,9.0026,8.8736,8.7248,8.6688,8.4821,8.336,8.2858,8.0926,7.9269,7.8514,7.6913,7.5198,7.4475,7.2884,7.2416,7.4069,7.5453,7.7075,7.868,8.1665,8.2857,8.1224,8.1003,8.0291,7.868,7.7302,7.6369,7.6369,7.7755,7.7981,7.6369,7.4993,7.43,7.43,7.2884,7.124,6.9601,6.8225,6.6592,6.4959,6.4959,6.4959,7.3502,7.5966,7.742,7.6518,7.8234,8.0154,8.0154,8.2102,8.4254,8.5331,8.5709,8.554,8.4698,8.7773,9.0138,8.9077,8.8753,8.8351,8.7286,8.506,8.3534,8.3534,8.3534,8.3534,8.3534,8.4364,8.4974,8.5121,8.6853,8.8073,8.8415,8.9294,8.9855,9.0026,9.0026,9.0026,9.0026,9.0026,9.0026,9.0026,9.0026,9.0026,9.0026,9.0026,9.0026,9.0026,9.0026,9.0026,9.0026,9.0026,9.0026,9.0026,9.0026,9.0026,9.0026,9.0026,9.0026,9.0026,9.0026,9.0026,9.0026,9.0026,9.0026,9.0026,9.0026,9.0026,9.0026,9.0026,9.0026,9.0001,8.9718,8.9977,8.967,8.8789,8.6162,8.3945,8.3051,8.036,7.8085,7.7435,7.7213,7.6648,7.5532,7.5059,7.4763,7.43,7.6825,7.8904,7.8904,8.1665,8.3534,8.3534,8.3534,8.3534,8.3534,8.1224,7.9599,7.9599,8.2152,8.2371,7.9822,7.7075,7.5683,7.5683,7.3096,7.122,7.0315,6.7763,6.59,6.4959,6.4959,6.4959,7.2619,7.329,7.3814,7.4715,7.6896,7.8816,7.8816,8.0794,8.2684,8.2888,8.3789,8.4768,8.567,8.4841,8.5458,9.0509,8.7729,8.5278,8.5898,8.4562,8.3534,8.3534,8.3534,8.3534,8.3534,8.3681,8.4169,8.5072,8.5462,8.6463,8.8317,8.8586,8.9074,9.0001,9.0026,9.0026,9.0026,9.0026,9.0026,9.0026,9.0026,9.0026,9.0026,9.0026,9.0026,9.0026,9.0026,9.0026,9.0026,9.0026,9.0026,9.0026,9.0026,9.0026,9.0026,9.0026,9.0026,9.0026,9.0026,9.0026,9.0026,9.0026,9.0026,9.0026,9.0026,9.0026,9.0026,9.0026,9.0026,8.9718,8.8862,8.929,8.967,8.8789,8.8058,8.7556,8.7372,8.6177,8.5131,8.5053,8.4298,8.2898,7.9921,7.8869,7.7302,7.4763,7.6825,7.8904,7.8904,8.1665,8.3534,8.3534,8.3534,8.3534,8.3534,8.3075,8.2833,8.2833,8.3317,8.3317,8.2833,8.2395,8.2152,8.2152,8.1689,7.8881,7.3583,7.3138,7.0118,6.4959,6.4959,6.4959,7.1667,7.4045,7.6361,7.6088,7.7398,7.8399,7.6833,7.8438,8.027,8.027,8.1288,8.2568,8.3847,8.3766,8.4756,8.9151,8.8972,8.8519,8.8842,8.7053,8.5159,8.3751,8.3534,8.3534,8.3534,8.3534,8.3754,8.4242,8.4803,8.5584,8.6585,8.7781,8.8586,8.9208,8.966,9.0026,9.0026,9.0026,9.0026,9.0026,9.0026,9.0026,9.0026,9.0026,9.0026,9.0026,9.0026,9.0026,9.0026,9.0026,9.0026,9.0026,9.0026,9.0026,9.0026,9.0026,9.0026,9.0026,9.0026,9.0026,9.0026,9.0026,9.0026,9.0026,9.0026,9.0026,8.9977,8.9265,8.9621,8.9694,8.8789,8.9119,8.979,8.8683,8.8546,8.8376,8.7581,8.7037,8.6764,8.6791,8.6247,8.5503,8.416,8.3375,8.2662,8.1254,8.221,8.3136,8.3136,8.3822,8.4413,8.4413,8.39,8.3534,8.3534,8.4071,8.4413,8.4413,8.3852,8.3534,8.3534,8.3534,8.3534,8.3534,8.1908,7.8904,7.43,7.265,6.9383,6.4959,6.4959,6.4959,7.3084,0.0,8.036,7.9053,7.898,7.8562,0.0,7.6979,7.812,7.8118,7.9339,8.0823,8.2102,8.3149,8.4603,8.7192,8.9548,9.0999,9.0873,8.943,8.775,8.5698,8.4945,8.4516,8.4418,8.387,8.3534,8.3534,8.4315,8.4901,8.5194,8.6676,8.782,8.8415,8.9134,8.9694,9.0026,9.0026,9.0026,9.0026,9.0026,9.0026,9.0026,9.0026,9.0026,9.0026,9.0026,9.0026,9.0026,9.0026,9.0026,9.0026,9.0026,9.0026,9.0026,9.0026,9.0026,9.0026,9.0026,9.0026,9.0026,9.0026,9.0026,9.0026,9.0026,8.9645,8.9168,8.8128,8.8867,8.9463,8.8241,8.9085,8.9741,8.8794,8.8636,8.8519,8.7703,8.7457,8.7451,8.7451,8.7275,8.7073,8.7073,8.6878,8.6731,8.6731,8.6731,8.6731,8.6731,8.6024,8.5535,8.5535,8.4779,8.4291,8.4291,8.5047,8.5535,8.5535,8.473,8.4291,8.4291,8.4047,8.3925,8.3925,8.1343,7.8904,7.6369,7.2629,6.9144,6.5881,6.5204,6.5073,0.0,8.1384,8.3634,8.3571,8.1388,7.928,7.9056,7.7814,0.0,7.6755,7.8729,8.0823,8.2102,8.2422,8.3324,8.5854,8.7425,8.8319,8.806,9.0007,9.1241,9.1103,8.8758,8.7204,8.7183,8.491,8.3534,8.3534,8.3608,8.4169,8.5118,8.5278,8.6285,8.8289,8.8458,8.891,9.0026,9.0026,9.0026,9.0026,9.0026,9.0026,9.0026,9.0026,9.0026,9.0026,9.0026,9.0026,9.0026,9.0026,9.0026,9.0026,9.0026,9.0026,9.0026,9.0026,9.0026,9.0026,9.0026,9.0026,9.0026,9.0026,9.0026,9.0026,9.0026,8.8506,8.6897,8.6873,8.7568,8.8319,8.7068,8.8289,8.9684,8.8741,8.9071,8.9942,8.9893,8.9684,8.9733,8.9733,8.9061,8.8278,8.8278,8.7317,8.6731,8.6731,8.6731,8.6731,8.6731,8.6682,8.6634,8.6634,8.656,8.6512,8.6512,8.6585,8.6634,8.6634,8.656,8.6512,8.6512,8.556,8.5023,8.5023,8.3828,8.3075,8.2857,7.6825,7.2416,6.9124,6.6368,6.5396,8.5085,8.6915,8.7927,8.6083,8.4038,8.1486,7.787,7.642,7.5188,7.347,7.4442,7.6563,7.9391,7.995,8.1375,8.5424,8.7264,8.8649,9.0251,9.1164,9.2011,9.28,9.1236,9.0117,9.0103,8.9234,8.8493,8.8493,8.6921,8.6069,8.6565,8.5556,8.6213,8.8772,8.9463,8.9621,8.891,8.9645,9.0026,9.0026,9.0026,9.0026,9.0026,9.0026,9.0026,9.0026,9.0026,9.0026,0.0,9.0026,9.0026,9.0026,9.0026,9.0026,9.0026,9.0026,9.0026,9.0026,9.0026,9.0026,9.0026,9.0026,9.0026,8.9977,8.9241,8.8049,8.6666,8.595,8.6618,8.7157,8.6101,8.7323,8.8886,8.8482,8.9241,9.0026,9.0026,9.0026,9.0026,9.0026,8.9635,8.9318,8.9318,8.9025,8.8781,8.8781,8.8781,8.8781,8.8781,8.8195,8.7781,8.7781,8.7146,8.7293,8.8659,8.8171,8.7781,8.7781,8.7122,8.6731,8.6731,8.6365,8.6146,8.6146,8.5731,8.5535,8.5535,8.1282,7.6537,7.1274,7.0089,6.8595,8.996,9.1195,9.178,8.9776,8.7438,8.4605,8.0016,7.7689,7.5864,7.337,7.3457,7.4887,7.8005,7.8846,8.0229,8.3825,8.603,8.8273,9.0343,9.1768,9.2989,9.474,9.4324,9.3789,9.3021,9.1992,9.1536,9.1503,8.9847,8.873,8.871,8.7654,8.825,9.029,9.0353,9.0573,9.1144,9.0026,9.0504,9.2797,9.1698,9.1292,9.1292,9.1292,9.0836,9.0026,9.0026,9.0026,9.0026,9.0026,9.0026,9.0026,9.0026,9.0026,9.0026,9.0026,9.0026,9.0026,9.0026,9.0026,9.0026,9.0026,8.9694,8.929,8.8765,8.7372,8.6063,8.4967,8.5382,8.6049,8.531,8.6454,8.7917,8.7814,8.8789,8.9597,8.9597,8.9694,9.0026,9.0026,9.0026,9.0026,9.0026,9.0026,9.0026,9.0026,9.0026,9.0026,9.0026,8.9391,8.8928,8.8928,8.8244,8.8391,8.9879,8.9342,8.8928,8.8928,8.822,8.7781,8.7781,8.7463,8.7268,8.7268,8.6926,8.6731,8.6731,8.4614,8.0762,7.544,7.4487,7.1731,9.3077,9.419,9.5251,9.5251,9.1956,8.8323,8.6841,8.2737,7.8917,7.74,7.6806,7.6953,7.8264,7.9506,8.0523,8.0426,8.3682,8.6543,8.7912,9.1519,9.4893,9.7223,9.8723,9.8538,9.5892,9.3152,9.1655,9.1539,9.156,9.1654,9.1651,9.1528,9.2086,9.3162,9.0644,9.1708,9.651,9.1144,9.1932,9.8416,9.5662,9.4331,9.4331,9.4122,9.2797,9.0026,9.0026,9.0026,9.0026,9.0026,9.0026,9.0026,9.0026,9.0026,9.0026,9.0001,9.0026,9.0026,9.0001,9.0001,9.0001,9.0001,8.9241,8.8434,8.841,8.6902,8.4967,8.3874,8.4287,8.5041,8.5041,8.5822,8.6568,8.6644,8.7581,8.841,8.8434,8.9241,9.0001,9.0001,9.0026,9.0026,9.0026,9.0026,9.0026,9.0026,9.0026,9.0026,9.0026,9.0026,9.0026,9.0026,9.0026,9.0026,9.0026,9.0026,9.0026,9.0026,9.0026,9.0026,9.0026,8.9001,8.8439,8.8439,8.7341,8.678,8.678,8.678,8.5119,8.2281,7.8893,7.4335,9.4005,9.4223,9.3939,9.4934,9.3459,9.088,8.7382,8.3637,8.0141,7.6595,7.4789,7.4483,7.6804,7.751,7.8669,8.1452,8.4202,8.6851,8.9105,9.2725,9.5796,9.7367,9.8723,9.9148,9.8379,9.7605,9.7097,9.7123,9.5539,9.4404,9.4461,9.6262,9.6464,9.4955,9.4911,9.5073,9.5599,9.4762,9.5735,9.8599,9.5629,9.4271,9.417,9.2099,9.0812,9.0026,9.0026,9.0026,9.0026,9.0026,9.0026,9.0026,9.0026,9.0026,8.9977,8.9217,8.929,8.9694,8.8128,8.8128,8.8813,8.8007,8.7581,8.71,8.6365,8.5219,8.3923,8.3583,8.3849,8.3947,8.3947,8.4701,8.5678,8.5537,8.6521,8.7132,8.7333,8.8079,8.8862,8.8862,8.9572,9.0026,9.0026,9.0026,9.0026,9.0026,9.0026,9.0026,9.0026,9.0026,9.0026,9.0026,9.0026,9.0026,9.0026,9.0026,9.0026,9.0026,9.0026,9.0026,9.0026,8.9708,8.9538,8.9538,8.922,8.905,8.905,8.905,8.8561,8.7581,8.1914,7.836,9.3033,9.2931,9.2467,9.3328,9.3328,9.2087,8.8339,8.5395,8.2579,7.9189,7.6291,7.492,7.7008,7.7352,7.8345,8.1145,8.3705,8.6672,9.0237,9.3219,9.5805,9.8165,9.9109,9.9552,9.9552,9.9109,9.9051,9.9552,9.7982,9.6984,9.6485,9.7867,9.828,9.7127,9.6686,9.6983,9.7644,9.6476,9.7715,10.1218,9.7606,9.606,9.5877,9.2957,9.1169,9.0026,9.0026,9.0026,9.0026,9.0026,9.0026,9.0026,9.0026,8.9694,8.9265,8.8789,8.8526,8.8482,8.7124,8.7251,8.7512,8.6992,8.6222,8.5391,8.4706,8.4189,8.3534,8.3534,8.3534,8.3534,8.3534,8.3947,8.4578,8.4578,8.5357,8.6098,8.6085,8.6899,8.7983,8.841,8.8886,8.9597,8.9977,9.0026,9.0026,9.0026,9.0026,9.0026,9.0026,9.0026,9.0026,9.0026,9.0026,9.0026,9.0026,9.0026,9.0026,9.0026,9.0026,9.0026,9.0026,9.0026,9.0026,9.0026,9.0026,9.0026,9.0026,9.0026,9.0026,8.9767,8.4522,8.2032,9.1105,9.1025,9.1076,9.1272,9.2293,9.2608,8.9797,8.7622,8.5636,8.3944,7.9929,7.7216,7.8476,7.8734,7.9169,8.0787,8.2935,8.6277,9.138,9.3094,9.528,9.8839,9.9225,9.9196,9.9196,9.8194,9.7991,9.9029,9.9261,9.8607,9.7557,9.7492,9.7925,9.9167,9.7012,9.7483,10.1033,9.7444,9.8669,10.4946,10.0384,9.8236,9.8313,9.5302,9.2463,9.0026,9.0026,9.0026,9.0026,9.0026,9.0026,9.0026,8.9977,8.9265,8.841,8.8329,8.7623,8.6709,8.6502,8.6457,8.6529,8.648,8.5041,8.3534,8.3534,8.3534,8.3534,8.3534,8.3534,8.3534,8.3534,8.3534,8.3534,8.3534,8.4287,8.4992,8.4992,8.5842,8.6844,8.7959,8.8128,8.8531,8.9645,8.9928,8.9904,9.0001,9.0026,9.0026,9.0026,9.0026,9.0026,9.0026,9.0026,9.0026,9.0026,9.0026,9.0026,9.0026,9.0026,9.0026,9.0026,9.0026,9.0026,9.0026,9.0026,9.0026,9.0026,9.0026,9.0026,9.0026,8.6496,8.4983,9.2011,9.1868,9.1536,9.3822,9.4568,9.4331,9.2543,8.9927,8.7133,8.4293,8.0972,7.8916,7.9876,8.0092,8.1166,8.4327,8.6224,8.8694,9.2933,9.3762,9.4898,9.7751,9.7099,9.66,9.66,9.6457,9.6279,9.6551,9.6579,9.6516,9.6286,9.6169,9.6245,9.66,9.6984,9.7511,9.8367,9.852,9.977,10.222,9.7773,9.6108,9.6972,9.2821,9.0504,9.0026,9.0026,9.0026,9.0026,9.0026,9.0026,8.9977,8.9193,8.8531,8.8353,8.6516,8.6197,8.6579,8.4901,8.473,8.5357,8.4578,8.3923,8.3534,8.3534,8.3534,8.3534,8.3534,8.3534,8.3534,8.3534,8.3534,8.3534,8.3534,8.3825,8.3898,8.3898,8.4657,8.5556,8.5829,8.6496,8.7347,8.8506,8.8867,8.905,8.9904,9.0026,9.0026,9.0026,9.0026,9.0026,9.0026,9.0026,9.0026,9.0026,9.0026,9.0026,9.0026,9.0026,9.0026,9.0026,9.0026,9.0026,9.0026,9.0026,9.0026,9.0026,9.0026,9.0026,9.0026,8.6496,8.4983,9.0661,9.0982,9.1289,9.2753,9.3677,9.386,9.2359,9.0692,8.894,8.7307,8.3822,8.1353,8.252,8.1439,8.15,8.4708,8.5777,8.7719,9.2334,9.2979,9.3958,9.6353,9.6267,9.5888,9.5888,9.5188,9.5189,9.5853,9.4752,9.3942,9.3891,9.455,9.5159,9.5859,9.6413,9.6728,9.6657,9.7989,9.8989,9.9544,9.7132,9.6228,9.6687,9.3713,9.1982,9.1193,9.1193,9.0431,8.9241,8.9241,8.8886,8.841,8.7725,8.7227,8.6658,8.5512,8.5066,8.5016,8.3923,8.3898,8.4287,8.3825,8.3534,8.3534,8.3534,8.3534,8.3534,8.3534,8.3534,8.3534,8.3534,8.3534,8.3534,8.3534,8.3534,8.3534,8.3534,8.3947,8.4461,8.4961,8.5672,8.6305,8.7516,8.799,8.872,8.922,8.9684,9.0026,9.0026,9.0026,9.0026,9.0026,9.0026,9.0026,9.0026,9.0026,9.0026,9.0026,9.0026,9.0026,9.0026,9.0026,8.9782,8.9269,8.9245,8.8976,8.8439,8.8439,8.8439,8.8439,8.67,8.5743,8.914,9.0107,9.1098,9.1576,9.2565,9.323,9.1989,9.1413,9.0967,9.0493,8.7091,8.4369,8.5292,8.3403,8.2355,8.4893,8.5678,8.7535,9.1851,9.2612,9.3438,9.5338,9.5301,9.5212,9.5212,9.4118,9.4001,9.4985,9.3196,9.1962,9.1962,9.291,9.403,9.5183,9.5212,9.5184,9.5193,9.629,9.6981,9.6981,9.6353,9.6321,9.6727,9.5302,9.3786,9.2677,9.2258,9.0836,8.8789,8.8391,8.7675,8.662,8.6548,8.5915,8.5041,8.4967,8.4287,8.3534,8.3534,8.3534,8.3534,8.3534,8.3534,8.3534,8.3534,8.3534,8.3534,8.3534,8.3534,8.3534,8.3534,8.3534,8.3534,8.3534,8.3534,8.3534,8.3534,8.3534,8.3827,8.4733,8.4979,8.5186,8.6285,8.7312,8.7845,8.8171,8.905,8.9757,8.9757,8.9586,8.9538,8.9708,8.9757,8.9806,9.0001,9.0026,8.9953,8.9757,8.9757,8.966,8.9464,8.9464,8.9025,8.8147,8.8122,8.7659,8.6731,8.6731,8.6731,8.6731,8.6731,8.6731,9.0366,9.086,9.1576,9.4005,9.4802,9.4901,9.4737,9.3743,9.2337,9.0913,8.9048,8.7563,8.6941,8.64,8.6977,8.9545,9.2062,9.386,9.4228,9.5498,9.5751,9.4404,9.3166,9.2421,9.2421,9.2334,9.2305,9.2421,9.2078,9.1962,9.1962,9.2049,9.2305,9.2421,9.2421,9.2398,9.2519,9.3664,9.4404,9.4404,9.2776,9.3294,9.5465,9.3869,9.3757,9.4319,9.2024,9.0812,9.0211,8.7878,8.6714,8.6615,8.5805,8.5192,8.5016,8.4213,8.38,8.3534,8.3534,8.3534,8.3534,8.3534,8.3534,8.3534,8.3534,8.3534,8.3534,8.3534,8.3534,8.3534,8.3534,8.3534,8.3534,8.3534,8.3534,8.3534,8.3534,8.3534,8.3656,8.3828,8.3706,8.4143,8.5126,8.5503,8.5775,8.6829,8.7927,8.8635,8.8635,8.7781,8.7561,8.8537,8.8635,8.9001,8.9953,9.0026,8.9611,8.8708,8.8635,8.8195,8.7219,8.7195,8.7097,8.6951,8.6951,8.6902,8.6731,8.6731,8.6731,8.6731,8.6731,8.6731,9.0744,9.0973,9.1228,9.25,9.2881,9.3012,9.3874,9.3524,9.3077,9.323,9.1924,9.066,9.02,8.8506,8.7423,8.8537,8.8902,8.9478,9.0818,9.1503,9.2246,9.2764,9.2334,9.1962,9.1962,9.1962,9.1962,9.1962,9.1962,9.1962,9.1962,9.1962,9.1962,9.1962,9.1962,9.1962,9.1962,9.245,9.2794,9.2794,9.2794,9.347,9.4551,9.5251,9.5337,9.5,9.461,9.3571,9.1794,8.9249,8.7681,8.6921,8.5016,8.4262,8.4238,8.3825,8.3534,8.3534,8.3534,8.3534,8.3534,8.3534,8.3534,8.3534,8.3534,8.3534,8.3534,8.3534,8.3534,8.3534,8.3534,8.3534,8.3534,8.3534,8.3534,8.3534,8.3534,8.3534,8.3534,8.3534,8.3534,8.3778,8.4094,8.4799,8.526,8.5828,8.678,8.7268,8.6658,8.6682,8.6926,8.7439,8.7463,8.7659,8.8147,8.8195,8.7976,8.7512,8.7463,8.7268,8.6756,8.6731,8.6463,8.5853,8.5853,8.5535,8.495,8.495,8.495,8.495,8.495,8.495,8.9944,8.9859,9.0001,9.079,9.0921,9.1235,9.2255,9.2629,9.2947,9.4387,9.3557,9.2598,9.2533,9.0286,8.849,8.8424,8.7473,8.7274,8.9198,8.9695,9.039,9.1874,9.1962,9.1962,9.1962,9.1962,9.1962,9.1962,9.1962,9.1962,9.1962,9.1962,9.1962,9.1962,9.1962,9.1962,9.1962,9.1962,9.1962,9.1962,9.2881,9.3569,9.3862,9.5859,9.6215,9.5366,9.6102,9.5207,9.304,9.0684,8.8926,8.7288,8.5357,8.4213,8.3534,8.3534,8.3534,8.3583,8.4287,8.4213,8.3534,8.3534,8.3534,8.3534,8.3534,8.3534,8.3534,8.3534,8.3534,8.3534,8.3534,8.3534,8.3534,8.3534,8.3534,8.3534,8.3534,8.3534,8.3534,8.3534,8.3534,8.3534,8.3534,8.4167,8.4847,8.4803,8.5657,8.595,8.4877,8.5438,8.6024,8.6316,8.6341,8.6438,8.6731,8.6731,8.6634,8.6341,8.6341,8.6219,8.595,8.5926,8.556,8.473,8.473,8.434,8.3534,8.3534,8.3534,8.3534,8.3534,8.3534,8.6864,8.6867,8.7536,9.0243,9.0993,9.0993,9.106,9.1141,9.1511,9.2914,9.3077,9.2947,9.2565,9.2357,9.2281,9.2205,9.2962,9.348,9.3327,9.4216,9.4089,9.2246,9.1962,9.1962,9.1962,9.1962,9.1962,9.1962,9.1962,9.1962,9.1962,9.1962,9.1962,9.1962,9.1962,9.1962,9.1962,9.1962,9.1962,9.1962,9.1991,9.2735,9.3942,9.3979,9.4667,9.572,9.446,9.3713,9.3642,9.2091,8.9924,8.7363,8.7288,8.5747,8.3534,8.3534,8.3534,8.3898,8.648,8.5698,8.3534,8.3534,8.3534,8.3534,8.3534,8.3534,8.3534,8.3534,8.3534,8.3534,8.3534,8.3534,8.3534,8.3534,8.3534,8.3534,8.3534,8.3534,8.3534,8.3534,8.3534,8.3534,8.3534,8.3608,8.3656,8.3632,8.4535,8.4828,8.3754,8.3656,8.4096,8.5121,8.5218,8.5633,8.6658,8.6731,8.6316,8.5291,8.5218,8.4779,8.3754,8.3705,8.3681,8.3632,8.3632,8.3583,8.3534,8.3534,8.3534,8.3534,8.3534,8.3534,8.8631,8.7231,8.5663,8.7754,8.8259,8.8425,8.9338,8.9569,9.0038,9.1465,9.2522,9.3045,9.2947,9.2751,9.2568,9.2497,9.1912,9.1613,9.2265,9.2365,9.2392,9.2421,9.2078,9.1962,9.1962,9.3137,9.3745,9.3745,9.2706,9.1962,9.1962,9.1962,9.1962,9.1962,9.1962,9.1962,9.1962,9.1962,9.1962,9.1962,9.1962,9.2275,9.2706,9.354,9.4161,9.4637,9.5014,9.498,9.4927,9.3584,9.2399,9.1473,9.0365,8.9574,8.876,8.876,8.7631,8.6113,8.6188,8.5747,8.4701,8.3874,8.3534,8.3534,8.3534,8.3534,8.3534,8.3534,8.3534,8.3534,8.3534,8.3534,8.3534,8.3534,8.3534,8.3534,8.3534,8.3534,8.3534,8.3534,8.3534,8.3534,8.3534,8.3534,8.3534,8.3534,8.3852,8.3974,8.3583,8.3534,8.3681,8.4071,8.412,8.4266,8.4657,8.4681,8.451,8.4144,8.412,8.3949,8.3559,8.3534,8.3534,8.3534,8.3534,8.3534,8.3534,8.3534,8.3534,8.3534,8.3534,8.3534,8.6068,8.4733,8.3419,8.5227,8.5794,8.6265,8.7787,8.816,8.8458,8.9987,9.1022,9.196,9.2968,9.2914,9.2881,9.3361,9.1924,9.1156,9.2507,9.177,9.1697,9.3611,9.351,9.351,9.3972,9.516,9.561,9.4917,9.3627,9.2706,9.1991,9.1962,9.1962,9.1962,9.1962,9.1962,9.1962,9.1962,9.1962,9.1962,9.1962,9.1962,9.1991,9.2823,9.3225,9.3254,9.4551,9.5155,9.5211,9.4568,9.3853,9.288,9.1878,9.0987,9.0182,9.0182,8.9676,8.8825,8.8055,8.7233,8.6163,8.5332,8.4311,8.3825,8.3825,8.3147,8.2445,8.2445,8.2445,8.2469,8.3074,8.3098,8.3147,8.351,8.3534,8.3534,8.3534,8.3534,8.3534,8.3534,8.3534,8.3534,8.3534,8.3534,8.3534,8.3534,8.3534,8.3534,8.3534,8.3534,8.3534,8.3534,8.3534,8.3534,8.3534,8.3534,8.3534,8.3534,8.3534,8.3534,8.3534,8.3534,8.3534,8.3534,8.3534,8.3534,8.3534,8.3534,8.3534,8.3534,8.3534,8.3534,7.9041,7.9487,8.0604,8.3126,8.3952,8.4692,8.6133,8.6538,8.6976,8.8392,8.8765,8.9668,9.2498,9.2947,9.3492,9.4934,9.3743,9.2979,9.4321,9.2947,9.2847,9.5393,9.5833,9.6386,9.7782,9.7943,9.7211,9.5228,9.5006,9.4089,9.2305,9.202,9.202,9.202,9.1991,9.1962,9.1962,9.1962,9.1962,9.1962,9.1962,9.1962,9.1962,9.1962,9.1962,9.1991,9.3254,9.3913,9.3972,9.5242,9.4145,9.1812,9.184,9.0244,8.7878,8.7795,8.9319,9.159,9.159,8.9796,8.752,8.7495,8.5907,8.3796,8.3992,8.2227,8.0375,8.0253,8.0446,8.047,8.16,8.1938,8.2227,8.3171,8.351,8.351,8.351,8.3534,8.3534,8.3534,8.3534,8.3534,8.3534,8.3534,8.3534,8.3534,8.3534,8.3534,8.3534,8.3534,8.3534,8.3534,8.3534,8.3534,8.3534,8.3534,8.3534,8.3534,8.3534,8.3534,8.3534,8.3534,8.3534,8.3534,8.351,8.3486,8.3486,8.3461,8.3437,8.3437,8.3437,8.3437,8.3366,8.1591,8.0118,8.1874,8.1781,8.1413,8.1846,8.2713,8.3886,8.5292,8.7349,8.9129,8.9899,9.0893,9.2021,9.3426,9.3328,9.3426,9.4835,9.4289,9.4016,9.4743,9.5484,9.6644,9.887,9.8709,9.872,9.9247,9.7935,9.6921,9.6258,9.4867,9.406,9.406,9.2735,9.1962,9.1962,9.1962,9.1962,9.1962,9.1962,9.1962,9.1962,9.1962,9.1962,9.1962,9.2363,9.245,9.2677,9.3942,9.4015,9.3334,9.4402,9.4172,9.3189,8.9285,8.8403,8.8853,8.7944,8.7081,8.6273,8.5237,8.3356,8.1836,8.4561,8.2457,7.9605,8.227,8.1647,8.0347,8.0777,8.0779,8.079,8.1022,8.1263,8.1359,8.2348,8.2421,8.2735,8.3486,8.3534,8.3534,8.3534,8.3534,8.3534,8.3534,8.3534,8.3534,8.3534,8.3534,8.3534,8.3534,8.3534,8.3534,8.3534,8.3534,8.3534,8.3534,8.3534,8.3534,8.3534,8.3534,8.3534,8.3534,8.2778,8.2387,8.2387,8.1606,8.124,8.124,8.124,8.124,8.0327,7.8845,7.7689,7.9245,7.868,7.8481,8.0527,8.1146,8.1781,8.3158,8.5325,8.7108,8.782,8.9168,9.0583,9.2013,9.2714,9.3394,9.4256,9.4157,9.4157,9.4737,9.4725,9.5266,9.6714,9.7113,9.7858,9.8995,9.8107,9.7611,9.8011,9.6291,9.5474,9.6081,9.3627,9.2479,9.3166,9.2363,9.1962,9.1962,9.1962,9.1962,9.1962,9.1962,9.1962,9.1962,9.1962,9.1962,9.1991,9.2764,9.3137,9.3137,9.3254,9.3313,9.2962,8.946,8.8031,8.7973,8.7156,8.6821,8.6763,8.5978,8.4109,8.2494,8.4649,8.2549,7.9949,8.2021,8.1542,8.0277,7.9806,7.9763,7.97,7.9657,7.9633,7.974,8.0537,8.1046,8.1335,8.1625,8.2372,8.2832,8.2832,8.3195,8.3363,8.3042,8.3019,8.3019,8.3605,8.3534,8.3534,8.3534,8.3534,8.3534,8.3534,8.3534,8.3534,8.3534,8.3534,8.3339,8.2875,8.2875,8.2656,8.2217,8.1582,8.1265,8.1265,8.0655,8.0362,8.0362,8.0362,7.9874,7.3446,7.3635,7.4369,7.5516,7.4978,7.5281,0.0,7.9916,7.9569,8.1032,8.2572,8.4103,8.5631,8.7075,8.8666,9.0219,9.1519,9.2543,9.2816,9.2783,9.3066,9.4199,9.3128,9.2589,9.2846,9.4159,9.5367,9.6336,9.6433,9.6982,9.8052,9.656,9.647,9.7945,9.4708,9.3365,9.4749,9.3196,9.2305,9.202,9.2275,9.2078,9.1962,9.1962,9.1903,9.1648,9.1648,9.1619,9.1532,9.1532,9.1532,9.1474,9.0274,8.9645,8.9401,8.8014,8.7695,8.7695,8.7695,8.7695,8.7695,8.7695,8.5894,8.4112,8.4491,8.2613,8.064,8.0931,8.0923,8.0354,7.9324,7.9029,7.9156,7.8895,7.8875,7.8872,7.8799,7.939,7.9728,7.8752,8.0255,8.1552,8.1625,8.2445,8.2851,8.1872,8.1777,8.2207,8.3022,8.3437,8.3461,8.3461,8.351,8.3534,8.3534,8.3437,8.3363,8.3363,8.3241,8.2753,8.1802,8.1777,8.1338,8.0386,8.024,8.0191,8.0191,8.0045,7.9996,7.9996,7.9996,7.8971,0.0,0.0,0.0,0.0,0.0,0.0,0.0,7.2229,7.3579,7.5039,7.7428,7.9658,8.11,8.2583,8.4387,8.7042,8.7799,8.8699,9.1022,9.0338,8.9375,8.8432,8.8107,8.8821,9.1204,9.2631,9.4085,9.5457,9.5475,9.6593,9.906,9.6431,9.5882,9.8572,9.5132,9.3435,9.3825,9.4581,9.4148,9.2677,9.3686,9.351,9.1962,9.1962,9.1445,9.0361,9.0361,8.9847,8.8796,8.8796,8.8796,8.8796,8.8484,8.782,8.6762,8.5438,8.5,8.5,8.5,8.5,8.5,8.5,8.3327,8.2103,8.4919,8.2835,8.0026,8.2886,8.2115,8.07,8.0341,8.0319,8.0267,8.0242,8.031,7.9993,7.9156,7.9099,7.8876,7.7702,7.8434,7.9434,7.9347,8.0229,8.0581,7.9578,8.0127,8.0741,8.0831,8.1697,8.2372,8.2372,8.3122,8.3534,8.3534,8.2753,8.2241,8.2241,8.146,8.0874,8.0679,8.0655,8.0557,8.0362,7.9508,7.9068,7.9068,7.819,7.7775,7.7775,7.7775,7.7555,0.0,0.0,0.0,0.0,0.0,0.0,0.0,0.0,0.0,0.0,0.0,7.6033,7.671,0.0,8.1886,8.406,8.5096,8.6265,8.8458,8.7585,8.6072,8.4625,8.4426,8.5292,8.7447,8.8326,8.9987,9.2906,9.3051,9.4354,9.7247,9.5074,9.4849,9.6929,9.4342,9.3266,9.3963,9.4418,9.42,9.3172,9.3904,9.3196,9.1445,9.1445,9.0447,8.9021,8.8948,8.8604,8.8093,8.8093,8.8093,8.7845,8.6608,8.5771,8.5058,8.4371,8.4225,8.4225,8.4225,8.4225,8.4225,8.4225,8.3482,8.2855,8.4642,8.354,8.2056,8.3839,8.3437,8.2167,8.102,8.0811,8.0598,7.9959,7.9852,7.9668,7.9183,7.9338,7.952,7.8435,7.9337,8.0095,7.8957,8.0332,8.1025,7.9717,8.0639,8.1078,8.0399,8.0717,8.1549,8.2903,8.3551,8.375,8.3775,8.3201,8.2511,8.1143,8.0655,8.0118,7.9581,7.9556,7.9312,7.8776,7.8239,7.797,7.797,7.7409,7.7165,7.7141,7.6042,7.553,0.0,0.0,0.0,0.0,0.0,0.0,0.0,0.0,0.0,0.0,0.0,0.0,0.0,0.0,0.0,8.0706,8.2431,8.4065,8.5646,8.4303,8.2685,8.1553,8.1602,8.2353,8.386,8.4005,8.5565,8.9338,8.9679,9.1069,9.4305,9.3077,9.3126,9.4765,9.3062,9.2662,9.3808,9.3841,9.3691,9.3307,9.3444,0.0,9.081,9.0476,8.9314,8.7615,8.7681,8.7482,8.7334,8.7334,8.7334,8.7062,8.5029,8.4225,8.4225,8.4225,8.4225,8.4225,8.4225,8.4225,8.4225,8.4225,8.4225,8.4225,8.4225,8.4225,0.0,8.4225,8.4225,8.3684,8.2028,8.1461,8.1317,8.0312,8.0043,7.9958,7.9576,8.0166,8.0257,7.9087,8.0257,8.1097,7.933,8.0654,8.1524,8.0284,8.075,8.093,8.0204,7.9954,8.0741,8.2822,8.3107,8.3208,8.3326,8.325,8.2386,8.0045,8.0045,7.9556,7.8483,7.8458,7.8043,7.7165,7.7165,7.7067,7.6848,7.6848,7.675,7.6482,7.4843,7.3978,0.0,0.0,0.0,0.0,0.0,0.0,0.0,0.0,0.0,0.0,0.0,0.0,0.0,0.0,0.0,0.0,7.8767,8.1097,8.2482,8.0362,7.8581,7.8482,7.957,8.0858,8.2349,8.2515,8.318,8.4921,8.5128,8.6976,9.1202,9.0089,0.0,0.0,0.0,9.1253,9.138,9.3808,9.4168,9.2487,9.3385,9.2817,9.0744,8.9143,8.7583,8.6324,8.64,8.5747,8.4642,8.4642,8.4642,8.4612,8.4313,8.4225,8.4225,8.4225,8.4225,8.4225,8.4225,0.0,0.0,8.4225,8.4225,8.4225,8.4225,8.4225,8.4225,8.4225,8.4225,8.4042,8.3897,8.3868,8.3684,8.3597,8.3597,8.3125,8.1077,8.0811,8.024,7.8173,7.861,7.9309,7.9166,7.9235,7.9474,7.9368,7.7593,7.7092,7.8856,7.893,7.9069,7.937,8.0225,0.0,8.0607,8.0754,8.013,7.8995,7.8946,7.8458,7.7385,7.7336,7.7287,7.7165,7.7165,7.6701,7.5725,7.5725,7.5237,7.4212,7.5118,7.4919,0.0,0.0,0.0,0.0,0.0,0.0,0.0,0.0,0.0,0.0,0.0,0.0,0.0,0.0,0.0,0.0,7.559,7.6599,7.7202,7.6203,7.5736,7.6612,7.7267,7.8153,7.9634,8.0458,8.154,8.3039,8.3057,8.3952,8.5762,8.61,8.6844,8.7952,8.9139,8.968,8.9713,9.1715,9.2375,9.1543,9.1989,9.0619,8.7779,8.709,8.5747,8.3955,8.3955,8.4013,8.4225,8.4225,8.4225,8.3984,0.0,0.0,0.0,0.0,8.2056,8.2056,8.2056,8.2056,8.2056,8.2056,8.2056,8.2056,8.2056,8.2056,8.2056,8.2056,8.2056,8.2171,8.2913,8.3183,8.3269,8.3984,8.4225,8.3926,8.2913,8.2826,8.2499,8.1644,8.1758,0.0,8.2117,8.26,8.275,8.1155,7.9677,7.8765,7.8957,7.7141,7.6628,7.8822,7.9448,7.9626,7.9747,8.0203,0.0,0.0,0.0,7.7629,7.7165,7.7165,0.0,0.0,0.0,7.7066,7.6614,7.8018,0.0,0.0,7.2164,7.1629,0.0,0.0,0.0,0.0,0.0,0.0,0.0,0.0,0.0,0.0,0.0,0.0,0.0,0.0,0.0,0.0,7.2443,7.2802,7.199,7.29,7.3827,7.4349,7.5198,7.6343,7.7628,7.812,7.9272,8.1452,8.1273,8.1366,8.2165,8.3236,8.372,8.3821,8.5936,8.725,8.7546,8.9106,8.9998,9.0431,9.0249,8.8676,8.5676,8.5215,8.3784,8.1923,8.1893,8.2412,8.3183,8.3183,8.3183,8.3009,8.0856,7.972,7.9398,7.9398,7.9398,7.9398,7.9398,7.9398,7.9398,7.9398,7.9398,7.9426,7.9778,7.9986,8.0043,8.0395,8.0453,8.0719,8.1569,8.1844,8.2114,8.2913,8.3183,8.3183,8.3183,8.3482,8.3626,8.3626,8.3327,8.3096,8.3084,8.4048,8.4206,8.3046,8.2082,8.1462,8.1064,7.7841,7.6731,7.94,7.8892,7.8218,7.8232,7.8992,7.8552,7.6925,7.6994,7.7019,7.6726,7.6726,7.6213,7.5115,7.566,7.6034,0.0,0.0,0.0,0.0,0.0,0.0,0.0,0.0,0.0,0.0,0.0,0.0,0.0,0.0,0.0,0.0,0.0,0.0,0.0,0.0,0.0,0.0,0.0,0.0,6.7689,7.0948,7.2991,7.1154,7.3782,7.6205,7.7135,7.5175,7.5566,7.9832,7.8844,7.9273,8.2082,8.2248,8.2279,8.2247,8.2377,8.3115,8.4452,8.6068,8.7513,8.8931,8.8524,8.7437,8.5648,8.3839,8.2192,8.0595,8.0453,8.0608,8.0637,8.0637,8.0637,8.0505,7.9164,7.7873,7.6639,7.6639,7.6639,7.6639,7.6639,7.6639,7.6639,7.6639,7.6639,7.6925,7.8248,7.8623,7.891,8.0099,8.0447,8.0447,8.0477,8.0561,8.0608,8.0608,8.0637,8.0637,8.0637,8.1644,8.247,8.247,8.1432,8.0601,8.0587,8.0877,8.1701,8.3813,8.3497,0.0,8.5818,8.2856,8.063,8.0805,7.7792,7.5677,7.5652,7.5677,7.5799,7.5603,7.6579,7.6701,7.5652,7.5603,7.5091,7.3944,7.287,7.234,7.2241,0.0,0.0,0.0,0.0,0.0,0.0,0.0,0.0,0.0,0.0,0.0,0.0,0.0,0.0,0.0,0.0,0.0,0.0,0.0,0.0,0.0,0.0,0.0,0.0,6.8635,6.9953,6.9282,7.1444,7.2975,7.2918,7.4191,7.5529,7.6648,7.7517,7.7497,7.6612,7.9272,8.0362,7.9429,8.1215,8.2444,8.2909,8.3425,8.3984,8.4452,8.4354,8.3419,8.1692,8.0997,8.021,7.9486,7.925,7.9659,8.0417,8.0417,7.8469,7.5299,7.4879,7.491,7.5249,7.5249,7.5868,7.6577,7.6577,7.6577,7.6577,7.6577,7.6577,7.6637,7.7168,7.7279,7.7095,7.6693,7.6635,7.6635,7.6635,7.7252,7.815,7.8933,7.9892,8.0417,8.0417,8.0767,8.1059,8.1127,8.0112,7.9717,8.1543,8.1813,8.235,8.3969,8.3452,8.3412,8.4854,8.2062,8.0441,8.2132,7.893,7.7069,7.794,7.7272,7.6628,7.6628,7.6286,7.5945,7.5579,7.4163,7.287,7.1772,7.0722,7.0767,7.2104,0.0,0.0,0.0,0.0,0.0,0.0,0.0,0.0,0.0,0.0,0.0,0.0,0.0,0.0,0.0,0.0,0.0,0.0,0.0,0.0,0.0,0.0,0.0,0.0,0.0,0.0,6.8502,7.0067,0.0,7.0775,7.1783,7.2549,7.2911,7.3622,7.39,7.3645,7.6277,7.7877,7.7989,7.9733,8.0691,8.0691,8.1175,8.1447,8.1447,8.2017,8.1316,7.9683,7.9072,7.8383,7.744,7.6722,7.6979,7.7668,7.7764,7.5259,7.1424,7.1902,7.2275,7.2728,7.2665,7.3121,7.3956,7.3956,7.3956,7.3956,7.3956,7.3956,7.3985,7.4411,7.4638,7.4578,7.4068,7.4361,7.4667,7.4638,7.56,7.6724,7.7002,7.7756,7.8329,7.7756,7.8072,7.8604,7.8921,7.8468,7.8388,8.0092,8.1551,8.2702,8.3424,8.4213,8.4912,8.5545,8.3442,8.1891,8.2263,7.9388,7.7336,7.737,7.6256,7.5579,7.5969,7.5335,7.4627,7.3846,7.2455,7.1016,6.9416,6.8697,6.8667,0.0,0.0,0.0,0.0,0.0,0.0,0.0,0.0,0.0,0.0,0.0,0.0,0.0,0.0,0.0,0.0,0.0,0.0,0.0,0.0,0.0,0.0,0.0,0.0,0.0,0.0,0.0,6.8532,6.9577,0.0,0.0,0.0,0.0,6.8969,6.785,6.8918,7.2996,7.3398,7.4754,7.7463,7.7694,7.7759,7.7825,7.9239,7.9963,8.003,8.1352,8.1121,7.9437,7.812,7.656,7.4887,7.3327,7.2676,7.2616,7.2648,7.1225,6.917,7.0149,7.0038,6.9092,6.897,6.8972,6.8973,6.8973,6.8973,6.8973,6.8973,6.8973,6.9224,7.0454,7.0871,0.0,0.0,7.356,7.4501,7.4248,7.5258,7.596,7.4789,7.4492,7.4233,7.3016,7.3724,7.5002,7.5977,7.6291,7.6349,7.6465,0.0,8.2203,8.2233,8.5535,8.7926,8.7822,8.6896,8.5105,8.1763,7.9313,7.6813,7.4436,7.324,7.2937,7.3915,7.3748,7.2797,7.0771,7.0588,6.9141,6.6609,6.6778,0.0,0.0,0.0,0.0,0.0,0.0,0.0,0.0,0.0,0.0,0.0,0.0,0.0,0.0,0.0,0.0,0.0,0.0,0.0,0.0,0.0,0.0,0.0,0.0,0.0,0.0,6.4573,6.5705,6.6095,6.6917,6.7233,0.0,0.0,0.0,0.0,0.0,0.0,6.7226,6.9212,7.0736,7.1443,7.3613,7.524,7.6318,7.7781,7.8441,7.8515,7.8877,7.8252,7.6743,7.622,7.5162,7.3644,7.316,7.2271,7.1223,6.929,6.8633,6.8924,6.709,6.6733,6.7305,6.7314,6.7914,6.8783,6.8811,6.884,6.884,6.884,6.884,6.8869,6.9142,0.0,0.0,0.0,0.0,7.0161,6.909,7.0608,7.2378,7.2056,7.252,7.3308,7.3951,7.4448,7.3971,7.1406,7.1748,7.302,7.4871,7.6775,0.0,8.0622,8.3365,8.5166,8.5249,8.5813,8.6277,8.6348,8.3269,8.0904,8.0353,7.7728,7.5766,7.5001,7.2799,7.1284,7.0771,6.8001,6.5821,6.4116,0.0,0.0,0.0,0.0,0.0,0.0,0.0,0.0,0.0,0.0,0.0,0.0,0.0,0.0,0.0,0.0,0.0,0.0,0.0,0.0,0.0,0.0,0.0,0.0,0.0,0.0,0.0,6.2786,6.3784,6.4147,6.4953,6.5175,0.0,0.0,0.0,0.0,0.0,0.0,0.0,0.0,0.0,6.978,7.1411,7.2375,7.2542,7.4636,7.5092,7.41,7.5436,7.5958,7.5795,7.4936,7.4488,7.4218,7.2808,7.0733,6.8375,6.7332,6.6787,6.6402,0.0,0.0,0.0,0.0,6.6373,6.704,6.7071,6.706,6.706,6.706,0.0,0.0,0.0,0.0,0.0,0.0,0.0,6.8661,6.7199,6.8424,7.0133,7.0133,7.0558,7.1246,7.2068,7.1579,7.0854,6.9952,7.0362,7.172,7.4272,7.5368,0.0,0.0,0.0,8.2107,8.3279,8.4429,8.5145,8.4862,8.357,8.2161,8.11,7.8888,7.6613,7.4896,7.2781,7.0489,6.8448,6.6162,6.4378,0.0,0.0,0.0,0.0,0.0,0.0,0.0,0.0,0.0,0.0,0.0,0.0,0.0,0.0,0.0,0.0,0.0,0.0,0.0,0.0,0.0,0.0,0.0,0.0,0.0,0.0,0.0,0.0,0.0,6.2252,6.2648,0.0,0.0,0.0,0.0,0.0,0.0,0.0,0.0,0.0,0.0,0.0,0.0,0.0,6.9359,6.7673,7.0984,7.1508,6.9419,7.1994,7.3742,7.4619,7.3208,7.3318,7.4382,7.1748,0.0,6.6293,6.6411,0.0,0.0,0.0,0.0,0.0,0.0,0.0,0.0,0.0,0.0,0.0,0.0,0.0,0.0,0.0,0.0,0.0,0.0,0.0,0.0,0.0,0.0,6.8537,6.8383,6.8491,6.8433,6.8392,6.7417,6.7121,6.929,7.0023,7.1013,0.0,0.0,0.0,0.0,0.0,0.0,8.1404,8.2836,8.296,8.103,8.1829,8.1546,7.9159,7.8063,7.6488,7.4278,7.3043,7.0252,6.5736,6.5277,0.0,0.0,0.0,0.0,0.0,0.0,0.0,0.0,0.0,0.0,0.0,0.0,0.0,0.0,0.0,0.0,0.0,0.0,0.0,0.0,0.0,0.0,0.0,0.0,0.0,0.0,0.0,0.0,0.0,0.0,0.0,0.0,0.0,0.0,0.0,0.0,0.0,0.0,0.0,0.0,0.0,0.0,0.0,0.0,0.0,0.0,0.0,0.0,0.0,0.0,7.0855,7.0184,6.856,6.8295,6.8363,6.8555,6.7966,6.94,7.1688,6.5953,0.0,0.0,0.0,0.0,0.0,0.0,0.0,0.0,0.0,0.0,0.0,0.0,0.0,0.0,0.0,0.0,0.0,0.0,0.0,0.0,0.0,0.0,6.5787,6.5554,6.5608,6.556,6.5513,0.0,0.0,0.0,0.0,0.0,0.0,0.0,0.0,0.0,0.0,0.0,7.7463,7.964,8.0984,8.0637,8.0811,8.0343,7.8802,7.7704,7.6433,7.51,7.2184,6.9648,0.0,0.0,0.0,0.0,0.0,0.0,0.0,0.0,0.0,0.0,0.0,0.0,0.0,0.0,0.0,0.0,0.0,0.0,0.0,0.0,0.0,0.0,0.0,0.0,0.0,0.0,0.0,0.0,0.0,0.0,0.0,0.0,0.0,0.0,0.0,0.0,0.0,0.0,0.0,0.0,0.0,0.0,0.0,0.0,0.0,0.0,0.0,0.0,0.0,0.0,0.0,0.0,0.0,0.0,0.0,0.0,0.0,0.0,6.6079,6.4563,0.0,0.0,0.0,0.0,0.0,0.0,0.0,0.0,0.0,0.0,0.0,0.0,0.0,0.0,0.0,0.0,0.0,0.0,0.0,0.0,0.0,0.0,0.0,0.0,0.0,0.0,0.0,0.0,0.0,0.0,0.0,0.0,0.0,0.0,0.0,0.0,0.0,0.0,0.0,0.0,7.54,7.7251,7.902,8.0328,8.0445,8.0183,7.9572,7.9094,7.7533,7.4541,7.2164,0.0,0.0,0.0,0.0,0.0,0.0,0.0,0.0,0.0,0.0,0.0,0.0,0.0,0.0,0.0,0.0,0.0,0.0,0.0,0.0,0.0,0.0,0.0,0.0,0.0,0.0,0.0,0.0,0.0,0.0,0.0,0.0,0.0,0.0,0.0,0.0,0.0,0.0,0.0,0.0,0.0,0.0,0.0,0.0,0.0,0.0,0.0,0.0,0.0,0.0,0.0,0.0,0.0,0.0,0.0,0.0,0.0,0.0,0.0,6.4006,5.9574,0.0,0.0,0.0,0.0,0.0,0.0,0.0,0.0,0.0,0.0,0.0,0.0,0.0,0.0,0.0,0.0,0.0,0.0,0.0,0.0,0.0,0.0,0.0,0.0,0.0,0.0,0.0,0.0,0.0,0.0,0.0,0.0,0.0,0.0,0.0,0.0,0.0,0.0,0.0,0.0,7.3104,7.4955,7.6925,7.899,7.9456,7.963,7.963,7.9368,7.7601,7.3497,7.1917,0.0,0.0,0.0,0.0,0.0,0.0,0.0,0.0,0.0,0.0,0.0,0.0,0.0,0.0,0.0,0.0,0.0,0.0,0.0,0.0,0.0,0.0,0.0,0.0,0.0,0.0,0.0,0.0,0.0,0.0,0.0,0.0,0.0,0.0,0.0,0.0,0.0,0.0,0.0,0.0,0.0,0.0,0.0,0.0,0.0,0.0,0.0,0.0,0.0,0.0,0.0,0.0,0.0,0.0,0.0,0.0,0.0,0.0,0.0,0.0,0.0,0.0,0.0,0.0,0.0,0.0,0.0,0.0,0.0,0.0,0.0,0.0,0.0,0.0,0.0,0.0,0.0,0.0,0.0,0.0,0.0,0.0,0.0,0.0,0.0,0.0,0.0,0.0,0.0,0.0,0.0,0.0,0.0,0.0,0.0,0.0,0.0,0.0,0.0,0.0,0.0,6.9448,7.2606,7.491,7.5122,7.6257,7.6984,7.6984,7.5878,7.4541,7.2876,0.0,0.0,0.0,0.0,0.0,0.0,0.0,0.0,0.0,0.0,0.0,0.0,0.0,0.0,0.0,0.0,0.0,0.0,0.0,0.0,0.0,0.0,0.0,0.0,0.0,0.0,0.0,0.0,0.0,0.0,0.0,0.0,0.0,0.0,0.0,0.0,0.0,0.0,0.0,0.0,0.0,0.0,0.0,0.0,0.0,0.0,0.0,0.0,0.0,0.0,0.0,0.0,0.0,0.0,0.0,0.0,0.0,0.0,0.0,0.0,0.0,0.0,0.0,0.0,0.0,0.0,0.0,0.0,0.0,0.0,0.0,0.0,0.0,0.0,0.0,0.0,0.0,0.0,0.0,0.0,0.0,0.0,0.0,0.0,0.0,0.0,0.0,0.0,0.0,0.0,0.0,0.0,0.0,0.0,0.0,0.0,0.0,0.0,0.0,0.0,0.0,0.0,6.7731,7.0465,7.2754,7.3406,7.3959,7.4279,7.4279,7.3784,7.2272,6.948,0.0,0.0,0.0,0.0,0.0,0.0,0.0,0.0,0.0,0.0,0.0,0.0,0.0,0.0,0.0,0.0,0.0,0.0,0.0,0.0,0.0,0.0,0.0,0.0,0.0,0.0,0.0,0.0,0.0,0.0,0.0,0.0,0.0,0.0,0.0,0.0,0.0,0.0,0.0,0.0,0.0,0.0,0.0,0.0,0.0,0.0,0.0,0.0,0.0,0.0,0.0,0.0,0.0,0.0,0.0,0.0,0.0,0.0,0.0,0.0,0.0,0.0,0.0,0.0,0.0,0.0,0.0,0.0,0.0,0.0,0.0,0.0,0.0,0.0,0.0,0.0,0.0,0.0,0.0,0.0,0.0,0.0,0.0,0.0,0.0,0.0,0.0,0.0,0.0,0.0,0.0,0.0,0.0,0.0,0.0,0.0,0.0,0.0,0.0,0.0,0.0,0.0,6.6275,6.894,7.1254,7.2098,7.2505,7.2708,7.2708,7.2388,7.0556,6.6688,0.0,0.0,0.0,0.0,0.0,0.0,0.0,0.0,0.0,0.0,0.0,0.0,0.0,0.0,0.0,0.0,0.0,0.0,0.0,0.0,0.0,0.0,0.0,0.0,0.0,0.0,0.0,0.0,0.0,0.0,0.0,0.0,0.0,0.0,0.0,0.0,0.0,0.0,0.0,0.0,0.0,0.0,0.0,0.0,0.0,0.0,0.0,0.0,0.0,0.0,0.0,0.0,0.0,0.0,0.0,0.0,0.0,0.0,0.0,0.0,0.0,0.0,0.0,0.0,0.0,0.0,0.0,0.0,0.0,0.0,0.0,0.0,0.0,0.0,0.0,0.0,0.0,0.0,0.0,0.0,0.0,0.0,0.0,0.0,0.0,0.0,0.0,0.0,0.0,0.0,0.0,0.0,0.0,0.0,0.0,0.0,0.0,0.0,0.0,0.0,0.0,0.0,6.4999,6.8418,7.0934,7.0934,7.201,7.2708,7.2708,7.1632,6.9277,0.0,0.0,0.0,0.0,0.0,0.0,0.0,0.0,0.0,0.0,0.0,0.0,0.0,0.0,0.0,0.0,0.0,0.0,0.0,0.0,0.0,0.0,0.0,0.0,0.0,0.0,0.0,0.0,0.0,0.0,0.0,0.0,0.0,0.0,0.0,0.0,0.0,0.0,0.0,0.0,0.0,0.0,0.0,0.0,0.0,0.0,0.0,0.0,0.0,0.0,0.0,0.0,0.0,0.0,0.0,0.0,0.0,0.0,0.0,0.0,0.0,0.0,0.0,0.0,0.0,0.0,0.0,0.0,0.0,0.0,0.0,0.0,0.0,0.0,0.0,0.0,0.0,0.0,0.0,0.0,0.0,0.0,0.0,0.0,0.0,0.0,0.0,0.0,0.0,0.0,0.0,0.0,0.0,0.0,0.0,0.0,0.0,0.0,0.0,0.0,0.0,0.0,0.0,6.4604,6.6708,6.8478,6.9567,6.9975,7.0178,7.0178,6.9015,6.6601,6.2733,0.0,0.0,0.0,0.0,0.0,0.0,0.0,0.0,0.0,0.0,0.0,0.0,0.0,0.0,0.0,0.0,0.0,0.0,0.0,0.0,0.0,0.0,0.0,0.0,0.0,0.0,0.0,0.0,0.0,0.0,0.0,0.0,0.0,0.0,0.0,0.0,0.0,0.0,0.0,0.0,0.0,0.0,0.0,0.0,0.0,0.0,0.0,0.0,0.0,0.0,0.0,0.0,0.0,0.0,0.0,0.0,0.0,0.0,0.0,0.0,0.0,0.0,0.0,0.0,0.0,0.0,0.0,0.0,0.0,0.0,0.0,0.0,0.0,0.0,0.0,0.0,0.0,0.0,0.0,0.0,0.0,0.0,0.0,0.0,0.0,0.0,0.0,0.0,0.0,0.0,0.0,0.0,0.0,0.0,0.0,0.0,0.0,0.0,0.0,0.0,0.0,0.0,0.0,6.5771,6.7304,0.0,6.8724,6.8811,6.8317,6.7502,6.5176,6.0813,0.0,0.0,0.0,0.0,0.0,0.0,0.0,0.0,0.0,0.0,0.0,0.0,0.0,0.0,0.0,0.0,0.0,0.0,0.0,0.0,0.0,0.0,0.0,0.0,0.0,0.0,0.0,0.0,0.0,0.0,0.0,0.0,0.0,0.0,0.0,0.0,0.0,0.0,0.0,0.0,0.0,0.0,0.0,0.0,0.0,0.0,0.0,0.0,0.0,0.0,0.0,0.0,0.0,0.0,0.0,0.0,0.0,0.0,0.0,0.0,0.0,0.0,0.0,0.0,0.0,0.0,0.0,0.0,0.0,0.0,0.0,0.0,0.0,0.0,0.0,0.0,0.0,0.0,0.0,0.0,0.0,0.0,0.0,0.0,0.0,0.0,0.0,0.0,0.0,0.0,0.0,0.0,0.0,0.0,0.0,0.0,0.0,0.0,0.0,0.0,0.0,0.0,0.0,6.509,6.6804,6.6863,6.7997,6.823,6.6979,6.6804,6.4623,5.9621,5.9214,0.0,0.0,0.0,0.0,0.0,0.0,0.0,0.0,0.0,0.0,0.0,0.0,0.0,0.0,0.0,0.0,0.0,0.0,0.0,0.0,0.0,0.0,0.0,0.0,0.0,0.0,0.0,0.0,0.0,0.0,0.0,0.0,0.0,0.0,0.0,0.0,0.0,0.0,0.0,0.0,0.0,0.0,0.0,0.0,0.0,0.0,0.0,0.0,0.0,0.0,0.0,0.0,0.0,0.0,0.0,0.0,0.0,0.0,0.0,0.0,0.0,0.0,0.0,0.0,0.0,0.0,0.0,0.0,0.0,0.0,0.0,0.0,0.0,0.0,0.0,0.0,0.0,0.0,0.0,0.0,0.0,0.0,0.0,0.0,0.0,0.0,0.0,0.0,0.0,0.0,0.0,0.0,0.0,0.0,0.0,0.0,0.0,0.0,0.0,0.0,0.0,0.0,6.3484,6.4379,6.5496,6.5845,6.5903,6.5583,6.4652,6.2733,5.9505,5.8428,0.0,0.0,0.0,0.0,0.0,0.0,0.0,0.0,0.0,0.0,0.0,0.0,0.0,0.0,0.0,0.0,0.0,0.0,0.0,0.0,0.0,0.0,0.0,0.0,0.0,0.0,0.0,0.0,0.0,0.0,0.0,0.0,0.0,0.0,0.0,0.0,0.0,0.0,0.0,0.0,0.0,0.0,0.0,0.0,0.0,0.0,0.0,0.0,0.0,0.0,0.0,0.0,0.0,0.0,0.0,0.0,0.0,0.0,0.0,0.0,0.0,0.0,0.0,0.0,0.0,0.0,0.0,0.0,0.0,0.0,0.0,0.0,0.0,0.0,0.0,0.0,0.0,0.0,0.0,0.0,0.0,0.0,0.0,0.0,0.0,0.0,0.0,0.0,0.0,0.0,0.0,0.0,0.0,0.0,0.0,0.0,0.0,0.0,0.0,0.0,0.0,0.0,6.204,6.2617,6.4127,6.4827,6.4885,6.4274,6.3605,6.186,5.8661,5.7323,0.0,0.0,0.0,0.0,0.0,0.0,0.0,0.0,0.0,0.0,0.0,0.0,0.0,0.0,0.0,0.0,0.0,0.0,0.0,0.0,0.0,0.0,0.0,0.0,0.0,0.0,0.0,0.0,0.0,0.0,0.0,0.0,0.0,0.0,0.0,0.0,0.0,0.0,0.0,0.0,0.0,0.0,0.0,0.0,0.0,0.0,0.0,0.0,0.0,0.0,0.0,0.0,0.0,0.0,0.0,0.0,0.0,0.0,0.0,0.0,0.0,0.0,0.0,0.0,0.0,0.0,0.0,0.0,0.0,0.0,0.0,0.0,0.0,0.0,0.0,0.0,0.0,0.0,0.0,0.0,0.0,0.0,0.0,0.0,0.0,0.0,0.0,0.0,0.0,0.0,0.0,0.0,0.0,0.0,0.0,0.0,0.0,0.0,0.0,0.0,0.0,0.0,0.0,6.1459,6.2763,6.3866,6.41,6.3024,6.2907,6.1366,5.773,0.0,0.0,0.0,0.0,0.0,0.0,0.0,0.0,0.0,0.0,0.0,0.0,0.0,0.0,0.0,0.0,0.0,0.0,0.0,0.0,0.0,0.0,0.0,0.0,0.0,0.0,0.0,0.0,0.0,0.0,0.0,0.0,0.0,0.0,0.0,0.0,0.0,0.0,0.0,0.0,0.0,0.0,0.0,0.0,0.0,0.0,0.0,0.0,0.0,0.0,0.0,0.0,0.0,0.0,0.0,0.0,0.0,0.0,0.0,0.0,0.0,0.0,0.0,0.0,0.0,0.0,0.0,0.0,0.0,0.0,0.0,0.0,0.0,0.0,0.0,0.0,0.0,0.0,0.0,0.0,0.0,0.0,0.0,0.0,0.0,0.0,0.0,0.0,0.0,0.0,0.0,0.0,0.0,0.0,0.0,0.0,0.0,0.0,0.0,0.0,0.0,0.0,0.0,0.0,6.1166,6.1286,6.1631,6.1802,6.1486,6.1457,6.0435,5.7672,0.0,0.0,0.0,0.0,0.0,0.0,0.0,0.0,0.0,0.0,0.0,0.0,0.0,0.0]}],[{"header":{"parameterUnit":"kt","parameterCategory":2,"dx":1,"dy":1,"la1":29.285339999999998,"la2":30.599998999999997,"lo1":-89.70041500000002,"lo2":-87.6738589999976,"nx":112,"ny":82,"refTime":"2022-09-28T12:00:00:Z","depth":0,"parameterNumber":2,"parameterNumberName":"V-component_of_WINDS"},"data":[-8.3676,-7.9556,-7.5322,-7.5408,-7.3057,-7.1267,-7.2675,-7.082,-6.7336,-6.1385,-5.8945,-5.7891,-5.7992,-5.7951,-5.7963,-5.7895,-5.795,-5.7901,0.0,-5.7844,-5.7926,-5.7933,-6.4188,0.0,0.0,-7.4943,-7.7737,-8.4998,-8.4361,-8.354,-8.3565,-9.1571,-9.7101,-9.9447,-9.9528,-9.9552,-9.9552,-9.9552,-9.9552,-9.9552,-9.9552,-9.9552,-9.9552,-9.9552,-9.9552,-9.9552,-9.9552,-9.9552,-9.9552,-9.9552,-9.9552,-9.9552,-9.9552,-9.9552,-9.9457,-9.957,-9.9599,-9.9466,-9.9486,-9.9552,-9.9552,-9.9552,-9.9552,-9.9552,-9.9552,-9.9552,-9.9501,-9.9491,-10.358,-10.8648,-11.1776,-11.0954,-11.0054,-11.2018,-10.9762,-10.6451,-10.4385,-10.3963,-10.3997,-10.3997,-10.3997,-10.3997,-10.3997,-10.3997,-10.3997,-10.3997,-10.3997,-10.3997,-10.3997,-10.3997,-10.3997,-10.3997,-10.3997,-10.3997,-10.3997,-10.3997,-10.3997,-10.3997,-10.3997,-10.3997,-10.3997,-10.3997,-10.3997,-10.3997,-10.3997,-10.3997,-10.3997,-10.3997,-10.3997,-10.3997,-10.3997,-10.3997,-7.963,-7.5122,-7.1524,-7.4411,-7.2845,-7.0746,-7.0754,-6.746,-6.3103,-5.8903,-5.7849,-5.7966,-5.7984,-5.7982,-5.8382,-5.9896,-6.0149,-5.9528,0.0,-5.9221,-6.0701,-6.2048,-6.8606,-7.3976,-7.6903,-7.8532,-8.3985,-9.5007,-8.8266,-8.5209,-8.8859,-9.5624,-9.9619,-9.9619,-9.9484,-9.9552,-9.9552,-9.9552,-9.9552,-9.9552,-9.9552,-9.9552,-9.9552,-9.9552,-9.9552,-9.9552,-9.9552,-9.9552,-9.9581,-9.9573,-9.9448,-9.9477,-9.9466,-9.9524,-9.9727,-10.1433,-10.2244,-10.1937,-10.0172,-9.9524,-9.9524,-9.9524,-9.9593,-9.9448,-9.9448,-9.9515,-9.9465,-9.9483,-10.3757,-10.8868,-11.1823,-11.2529,-11.2498,-11.2492,-10.814,-10.4018,-10.4028,-10.403,-10.3997,-10.3997,-10.3997,-10.3997,-10.3997,-10.3997,-10.3997,-10.3997,-10.3997,-10.3997,-10.3997,-10.3997,-10.3997,-10.3997,-10.3997,-10.3997,-10.3997,-10.3997,-10.3997,-10.3997,-10.3997,-10.3997,-10.3997,-10.3997,-10.3997,-10.3997,-10.3997,-10.3997,-10.3997,-10.3997,-10.3997,-10.3997,-10.3997,-10.3997,-7.1723,-7.046,-7.2588,-8.0831,-7.6562,-7.0412,-7.0411,-6.7143,-6.2942,-5.8731,-5.7942,-5.7959,-5.7959,-5.7904,-5.9346,-6.3863,-6.4192,0.0,0.0,-6.1853,-6.6194,-7.0451,-7.4461,-7.7026,-7.7409,-8.1254,-9.0397,-10.6175,-9.2965,-8.8552,-9.8931,-9.959,-9.9557,-9.961,-9.9552,-9.9552,-9.9552,-9.9552,-9.9552,-9.9552,-9.9552,-9.9552,-9.9552,-9.9581,-9.9581,-9.9581,-9.961,-9.961,-9.9457,-9.9582,-9.9686,-9.983,-9.9758,-9.977,-10.0332,-10.5375,-10.725,-10.6619,-10.1533,-9.977,-9.977,-9.977,-9.9802,-9.9772,-9.9772,-9.9708,-9.9472,-9.9545,-9.9531,-10.1612,-11.0219,-11.2581,-11.248,-11.226,-10.8114,-10.4028,-10.3964,-10.3997,-10.3997,-10.3997,-10.3997,-10.3997,-10.3997,-10.3997,-10.3997,-10.3997,-10.3997,-10.3997,-10.3997,-10.3997,-10.3997,-10.3997,-10.3997,-10.3997,-10.3997,-10.3997,-10.3997,-10.3997,-10.3997,-10.3997,-10.3997,-10.3997,-10.3997,-10.3997,-10.3997,-10.3997,-10.3997,-10.3997,-10.3997,-10.3997,-10.3997,-10.3997,-6.7258,-6.6134,-6.6672,-6.9055,-6.5573,-6.1442,-6.1401,-6.0478,-5.937,-5.8179,-5.7976,0.0,0.0,0.0,-6.0359,-6.7706,0.0,-5.6845,-6.1799,-6.6247,-7.0648,-7.4821,-7.3732,-7.4963,-8.1229,-8.5819,-9.345,-10.6384,-9.9681,-9.6458,-9.9371,-9.9486,-9.9564,-9.9581,-9.9552,-9.9552,-9.9552,-9.9552,-9.9552,-9.9552,-9.9552,-9.9552,-9.9581,-9.9593,-9.9553,-9.9582,-9.9586,-9.9572,-9.9572,-9.9528,-10.1824,-10.5153,-10.5111,-10.5095,-10.5301,-10.6727,-10.7396,-10.712,-10.5695,-10.5141,-10.517,-10.517,-10.5082,-10.5153,-10.5153,-10.2548,-9.9599,-9.9487,-9.9433,-10.1456,-11.0324,-11.2485,-11.1582,-10.727,-10.5137,-10.4028,-10.3964,-10.3997,-10.3997,-10.3997,-10.3997,-10.3997,-10.3997,-10.3997,-10.3997,-10.3997,-10.3997,-10.3997,-10.3997,-10.3997,-10.3997,-10.3997,-10.3997,-10.3997,-10.3997,-10.3997,-10.3997,-10.3997,-10.3997,-10.3997,-10.3997,-10.3997,-10.3997,-10.3997,-10.3997,-10.3997,-10.3997,-10.3997,-10.3997,-10.3997,-10.3997,-10.3997,-6.4995,-6.3045,-6.1563,-6.1701,-5.9725,-5.8007,-5.7967,-5.798,-5.7927,-5.7957,0.0,0.0,0.0,0.0,0.0,0.0,-6.1755,-5.9826,-6.8567,-7.1961,-7.5778,-8.236,-8.1885,-8.2995,-8.8097,-9.2833,-9.8002,-10.3615,-10.1288,-9.9426,-9.9572,-9.9593,-9.9552,-9.9552,-9.9552,-9.9552,-9.9552,-9.9552,-9.9552,-9.9552,-9.9602,-9.9535,-9.9535,-9.95,-10.0797,-10.2765,-10.2868,-10.2824,-10.2853,-10.2706,-10.46,-10.7193,-10.7237,-10.732,-10.7288,-10.7288,-10.7281,-10.7242,-10.7242,-10.7203,-10.7296,-10.7296,-10.737,-10.7384,-10.7384,-10.5185,-10.281,-10.2805,-10.4142,-10.6565,-11.0383,-11.1409,-11.0772,-10.8171,-10.6713,-10.5734,-10.5774,-10.5444,-10.4852,-10.4161,-10.3997,-10.4391,-10.5608,-10.5805,-10.5608,-10.4983,-10.4885,-10.4687,-10.4096,-10.3997,-10.3997,-10.3997,-10.3997,-10.3997,-10.3997,-10.3997,-10.3997,-10.3997,-10.3997,-10.3997,-10.3997,-10.3997,-10.3997,-10.3997,-10.3997,-10.3997,-10.3997,-10.3997,-10.3997,-10.3997,-10.3997,-10.3997,-6.3777,-6.0887,-5.7936,-5.7987,-5.7963,-5.7916,-5.7927,0.0,-5.9575,-5.9978,0.0,-6.2352,-6.9738,0.0,0.0,-6.6494,-6.593,-6.8822,-7.6727,-7.9235,-8.3163,-9.1462,-9.4528,-9.5759,-9.529,-9.9848,-10.1968,-10.0038,-9.957,-9.9598,-9.9457,-9.9552,-9.9552,-9.9552,-9.9552,-9.9552,-9.9552,-9.9428,-9.9457,-9.9486,-9.9611,-9.9859,-10.0392,-10.0349,-10.2999,-10.7309,-10.7368,-10.7398,-10.7237,-10.7354,-10.7396,-10.7232,-10.731,-10.7288,-10.7288,-10.7288,-10.7288,-10.7288,-10.7288,-10.7288,-10.7288,-10.7288,-10.7359,-10.7396,-10.7396,-10.7237,-10.7339,-10.7351,-11.0303,-11.2948,-11.0297,-11.0363,-11.1466,-11.2687,-11.0745,-10.8473,-10.8381,-10.7554,-10.6432,-10.4786,-10.449,-10.5312,-10.7877,-10.8304,-10.7877,-10.6561,-10.6364,-10.5904,-10.4654,-10.449,-10.449,-10.449,-10.4326,-10.4227,-10.4227,-10.4096,-10.3997,-10.3997,-10.3997,-10.3997,-10.3997,-10.3997,-10.3997,-10.3997,-10.3997,-10.3997,-10.3997,-10.3997,-10.3997,-10.3997,-10.3997,-10.3997,-6.0165,-5.8563,-5.7963,-5.7948,-5.7915,-5.7998,0.0,0.0,0.0,-7.2833,-7.3382,-7.3378,-7.3243,-7.4786,-7.5759,-7.4858,-7.6206,-7.8414,-8.183,-9.1528,-9.8139,-9.7919,-9.8362,-9.7194,-9.3925,-9.6675,-9.9419,-10.1389,-10.0317,-9.9535,-9.9581,-9.9552,-9.9552,-9.9552,-9.9552,-9.9552,-9.9552,-9.9622,-9.9455,-9.9455,-9.9601,-10.1664,-10.5812,-10.5799,-10.6384,-10.7354,-10.7378,-10.7359,-10.7359,-10.7281,-10.7339,-10.7339,-10.723,-10.7288,-10.7288,-10.7288,-10.7288,-10.7288,-10.7288,-10.7288,-10.7288,-10.7288,-10.7201,-10.7339,-10.7339,-10.7252,-10.7261,-10.7273,-10.792,-10.8564,-10.7925,-11.3382,-11.8577,-11.6434,-11.2613,-10.94,-10.9301,-10.8605,-10.7877,-10.7548,-10.7482,-10.7646,-10.8205,-10.8304,-10.8205,-10.7942,-10.7877,-10.7778,-10.7515,-10.7482,-10.7482,-10.7482,-10.6397,-10.5707,-10.5707,-10.4654,-10.3997,-10.3997,-10.3997,-10.3997,-10.3997,-10.3997,-10.3997,-10.3997,-10.3997,-10.3997,-10.3997,-10.3997,-10.3997,-10.3997,-10.3997,-10.3997,-5.8527,-5.7963,-5.7939,-5.7915,-5.8742,0.0,0.0,-6.9293,-7.4615,-7.6651,-7.7152,-7.7131,-7.7,-8.1044,-8.384,-8.2196,-8.4257,-8.7238,-9.0931,-9.7829,-10.2163,-10.154,-10.1287,-10.0215,-9.7521,-9.8626,-9.9844,-10.0716,-9.9989,-9.9552,-9.9552,-9.9552,-9.9552,-9.9552,-9.9552,-9.9515,-9.9593,-9.9455,-10.0839,-10.3389,-10.3376,-10.4804,-10.7282,-10.7232,-10.7301,-10.7301,-10.7368,-10.7288,-10.7288,-10.7288,-10.7288,-10.7288,-10.7288,-10.7288,-10.7288,-10.7288,-10.7288,-10.7288,-10.7288,-10.7288,-10.7288,-10.7288,-10.7288,-10.7288,-10.7288,-10.7288,-10.731,-10.7237,-10.7243,-10.789,-11.0174,-11.3126,-11.584,-11.6637,-11.3817,-11.0876,-11.0152,-10.9619,-10.9159,-10.8436,-10.9455,-11.0408,-11.0408,-11.0408,-11.0178,-10.9488,-10.9356,-10.9126,-10.8403,-10.8304,-10.8304,-10.8304,-10.7646,-10.7219,-10.7219,-10.6561,-10.5838,-10.5115,-10.5049,-10.4753,-10.403,-10.3997,-10.3997,-10.3997,-10.3997,-10.3997,-10.3997,-10.3997,-10.3997,-10.403,-10.472,-10.5049,-5.7928,-5.8069,-5.8203,-5.8369,-6.0299,0.0,-6.9841,-7.4405,-7.7627,-7.8405,-7.9017,-7.986,-8.2231,-8.7732,-9.132,-8.8783,-9.0756,-9.4405,-9.9428,-10.105,-10.2141,-10.2926,-10.2984,-10.249,-10.121,-10.1094,-10.0658,-9.964,-9.9552,-9.9552,-9.9552,-9.9552,-9.961,-9.9515,-9.9544,-9.9593,-9.9557,-10.0623,-10.3172,-10.7368,-10.7354,-10.7261,-10.7261,-10.7281,-10.7288,-10.7288,-10.7288,-10.7288,-10.7288,-10.7288,-10.7288,-10.7288,-10.7288,-10.7288,-10.7288,-10.7288,-10.7288,-10.7288,-10.7288,-10.7288,-10.7288,-10.7288,-10.7288,-10.7288,-10.7288,-10.7288,-10.7288,-10.7288,-10.7651,-10.8888,-11.2851,-11.2346,-11.183,-11.5376,-11.4491,-11.2545,-11.1132,-11.0836,-11.0507,-10.9356,-11.0967,-11.2513,-11.2513,-11.2513,-11.2151,-11.1,-11.0836,-11.0408,-10.929,-10.9126,-10.9126,-10.9126,-10.8863,-10.8699,-10.8699,-10.8468,-10.7811,-10.6627,-10.6529,-10.6035,-10.4885,-10.4556,-10.4424,-10.4424,-10.4128,-10.3997,-10.3997,-10.4556,-10.4852,-10.4852,-10.6003,-10.6529,-5.8173,-5.8563,-5.9342,-5.9692,-6.3352,0.0,-7.1696,-7.5766,-7.9552,-8.2814,-8.5155,-8.7591,-9.005,-9.2347,-9.3735,-9.4407,-9.5885,-9.8245,-10.2342,-10.3057,-10.281,-10.1792,-10.1675,-10.1181,-9.9901,-9.9785,-9.9698,-9.9581,-9.9552,-9.9552,-9.9552,-9.9552,-9.9602,-9.9484,-9.9512,-9.9557,-9.9541,-10.4206,-10.681,-10.722,-10.733,-10.7397,-10.7397,-10.7259,-10.7288,-10.7288,-10.7288,-10.7288,-10.7288,-10.7288,-10.7288,-10.7288,-10.7288,-10.7288,-10.7288,-10.7288,-10.7288,-10.7288,-10.7288,-10.7288,-10.7288,-10.7288,-10.7288,-10.7288,-10.7288,-10.7288,-10.7288,-10.7288,-10.8858,-11.0686,-11.1851,-11.3656,-11.4727,-11.3957,-11.4108,-11.4091,-11.2611,-11.2282,-11.225,-11.2085,-11.2315,-11.2513,-11.2513,-11.2513,-11.248,-11.2315,-11.2282,-11.225,-11.2085,-11.2052,-11.2052,-11.2052,-11.0934,-11.0178,-11.0178,-10.9027,-10.8238,-10.8074,-10.8074,-10.7975,-10.7844,-10.6594,-10.5871,-10.5871,-10.4622,-10.3997,-10.3997,-10.6594,-10.7844,-10.7844,-10.7975,-10.8074,-5.8789,-5.9594,-6.0863,-6.3003,0.0,0.0,-7.4881,-7.8547,-8.2283,-8.6769,-9.0192,-9.317,-9.5837,-9.7941,-9.9482,-9.999,-9.9862,-10.0723,-10.2999,-10.2083,-10.1239,-10.1443,-10.0803,-10.0454,-10.0658,-10.0687,-10.0977,-10.1734,-10.1792,-10.1792,-10.1792,-10.2269,-10.2531,-10.2548,-10.3506,-10.4061,-10.4044,-10.6133,-10.7261,-10.7359,-10.7368,-10.7288,-10.7288,-10.7288,-10.7288,-10.7288,-10.7288,-10.7288,-10.7288,-10.7288,-10.7288,-10.7288,-10.7288,-10.7288,-10.7288,-10.7288,-10.7288,-10.7288,-10.7288,-10.7288,-10.7288,-10.7288,-10.7288,-10.7288,-10.7288,-10.7288,-10.7288,-10.7288,-10.7982,-10.9079,-11.0837,-11.2371,-11.38,-11.4535,-11.4704,-11.4551,-11.3926,-11.3137,-11.2513,-11.2513,-11.2513,-11.2513,-11.2513,-11.2513,-11.2513,-11.2513,-11.2513,-11.2513,-11.2513,-11.2513,-11.2513,-11.2513,-11.1987,-11.1658,-11.1658,-11.1099,-11.0408,-10.9586,-10.9521,-10.9159,-10.8337,-10.7712,-10.7383,-10.7383,-10.6825,-10.6496,-10.6496,-10.7712,-10.8304,-10.8337,-10.9159,-10.9521,-5.9301,0.0,0.0,0.0,0.0,0.0,-7.8819,-8.2792,-8.6519,-9.0936,-9.449,-9.7517,-9.9932,-10.2103,-10.3246,-10.2897,-10.2373,-10.2199,-10.2752,-10.1559,-10.0948,-10.1879,-10.1181,-10.0977,-10.1908,-10.1995,-10.2373,-10.3304,-10.3362,-10.3362,-10.3362,-10.4119,-10.4469,-10.4791,-10.5873,-10.6855,-10.732,-10.732,-10.7301,-10.7288,-10.7288,-10.7288,-10.7288,-10.7288,-10.7288,-10.7288,-10.7288,-10.7288,-10.7288,-10.7288,-10.7288,-10.7288,-10.7288,-10.7288,-10.7288,-10.7288,-10.7288,-10.7288,-10.7288,-10.7288,-10.7288,-10.7288,-10.7288,-10.7288,-10.7288,-10.7288,-10.7288,-10.7288,-10.7288,-10.7622,-10.9371,-11.1305,-11.3048,-11.4384,-11.4957,-11.5209,-11.4781,-11.3565,-11.2513,-11.2513,-11.2513,-11.2513,-11.2513,-11.2513,-11.2513,-11.2513,-11.2513,-11.2513,-11.2513,-11.2513,-11.2513,-11.2513,-11.2513,-11.2513,-11.2513,-11.2513,-11.2085,-11.1066,-11.1,-11.054,-10.9521,-10.9093,-10.8896,-10.8896,-10.8501,-10.8304,-10.8304,-10.9093,-10.9488,-10.9488,-11.054,-11.1,0.0,0.0,0.0,-7.0099,-7.4577,-7.9081,-8.392,-8.8491,-9.2483,-9.5095,-9.7632,-10.0158,-10.2735,-10.3362,-10.2984,-10.1734,-10.2548,-10.2897,-10.1704,-10.2519,-10.3275,-10.3304,-10.3275,-10.3275,-10.3304,-10.3333,-10.3333,-10.3362,-10.3362,-10.3362,-10.3362,-10.3391,-10.3886,-10.4769,-10.4827,-10.5553,-10.723,-10.7259,-10.7259,-10.7288,-10.7288,-10.7288,-10.7288,-10.7288,-10.7288,-10.7288,-10.7288,-10.7288,-10.7288,-10.7288,-10.7288,-10.7288,-10.7288,-10.7288,-10.7288,-10.7288,-10.7288,-10.7288,-10.7288,-10.7288,-10.7288,-10.7288,-10.7288,-10.7288,-10.7288,-10.7288,-10.7288,-10.7288,-10.7288,-10.7288,-10.7456,-11.0782,-11.3918,-11.255,-11.4503,-11.6392,-11.5011,-11.3565,-11.2513,-11.2513,-11.2513,-11.2513,-11.2513,-11.2513,-11.2513,-11.2513,-11.2513,-11.2513,-11.2513,-11.2513,-11.2513,-11.2513,-11.2513,-11.2513,-11.2513,-11.2513,-11.2513,-11.248,-11.248,-11.2447,-11.2414,-11.1099,-11.0343,-11.0343,-10.8995,-10.8304,-10.8304,-11.1066,-11.2414,-11.2414,-11.2447,-11.248,-6.2986,-6.4548,-6.7042,-7.4101,-7.8012,-8.193,-8.9427,-9.3493,-9.6657,-10.0095,-10.1528,-10.2324,-10.3173,-10.1995,-10.0977,-10.1385,-10.1821,-10.2257,-10.2664,-10.31,-10.3362,-10.3362,-10.3362,-10.3711,-10.4613,-10.47,-10.5049,-10.5922,-10.598,-10.598,-10.598,-10.598,-10.6125,-10.6532,-10.6532,-10.6765,-10.7288,-10.7288,-10.7288,-10.7288,-10.7288,-10.7288,-10.7288,-10.7288,-10.7288,-10.7288,-10.7288,-10.7288,-10.7288,-10.7288,-10.7288,-10.7288,-10.7288,-10.7288,-10.7288,-10.7288,-10.7288,-10.7288,-10.7288,-10.7288,-10.7288,-10.7288,-10.7288,-10.7288,-10.7288,-10.7288,-10.7288,-10.7288,-10.7288,-10.7288,-10.7288,-10.8533,-11.0006,-11.0913,-11.2986,-11.435,-11.3898,-11.3854,-11.3696,-11.271,-11.2513,-11.2513,-11.2513,-11.2513,-11.2513,-11.2513,-11.2513,-11.2513,-11.2513,-11.2513,-11.2513,-11.2513,-11.2513,-11.2513,-11.2513,-11.2513,-11.2513,-11.2513,-11.2513,-11.2513,-11.2513,-11.2052,-11.1822,-11.1822,-11.1362,-11.1099,-11.1099,-11.2052,-11.2513,-11.2513,-11.2513,-11.2513,-6.4939,-6.7013,-7.013,-7.8378,-8.2515,-8.6324,-9.4331,-9.7929,-10.0247,-10.2229,-10.2693,-10.2693,-10.2693,-10.1355,-10.0512,-10.1326,-10.2257,-10.3159,-10.3973,-10.4467,-10.4787,-10.4787,-10.4787,-10.5107,-10.598,-10.6067,-10.6416,-10.723,-10.7288,-10.7288,-10.7288,-10.7288,-10.7288,-10.7288,-10.7288,-10.7288,-10.7288,-10.7288,-10.7288,-10.7288,-10.7288,-10.7288,-10.7288,-10.7288,-10.7288,-10.7288,-10.7288,-10.7288,-10.7288,-10.7288,-10.7288,-10.7288,-10.7288,-10.7288,-10.7288,-10.7288,-10.7288,-10.7288,-10.7288,-10.7288,-10.7288,-10.7288,-10.7288,-10.7288,-10.7288,-10.7288,-10.7288,-10.7288,-10.7288,-10.7288,-10.7288,-10.7288,-10.8176,-11.1306,-11.2923,-11.3566,-11.3354,-11.3633,-11.3663,-11.271,-11.2513,-11.2513,-11.2513,-11.2513,-11.2513,-11.2513,-11.2513,-11.2513,-11.2513,-11.2513,-11.2513,-11.2513,-11.2513,-11.2513,-11.2513,-11.2513,-11.2513,-11.2513,-11.2513,-11.2513,-11.2513,-11.2513,-11.2513,-11.2513,-11.2513,-11.2513,-11.2513,-11.2513,-11.2513,-11.2513,-11.2513,-11.2513,-6.55,-6.9234,-7.4461,-8.3104,-8.7872,-9.1901,-9.8163,-10.153,-10.2926,-10.1704,-10.1472,-10.1443,-10.1385,-10.1414,-10.1501,-10.1559,-10.3711,-10.5398,-10.5485,-10.6532,-10.7288,-10.7288,-10.7288,-10.7288,-10.7288,-10.7288,-10.7288,-10.7288,-10.7288,-10.7288,-10.7288,-10.7288,-10.7288,-10.7288,-10.7288,-10.7288,-10.7288,-10.7288,-10.7288,-10.7288,-10.7288,-10.7288,-10.7288,-10.7288,-10.7288,-10.7288,-10.7288,-10.7288,-10.7288,-10.7288,-10.7288,-10.7288,-10.7288,-10.7288,-10.7288,-10.7288,-10.7288,-10.7288,-10.7288,-10.7288,-10.7288,-10.7288,-10.7288,-10.7288,-10.7288,-10.7288,-10.7288,-10.7288,-10.7288,-10.7259,-10.7368,-10.7426,-10.8725,-11.2994,-11.4085,-11.4063,-11.3255,-11.2899,-11.271,-11.2545,-11.2513,-11.2513,-11.2513,-11.2513,-11.2513,-11.2513,-11.2513,-11.2513,-11.2513,-11.2513,-11.2513,-11.2513,-11.2513,-11.2513,-11.2513,-11.2513,-11.2513,-11.2513,-11.2513,-11.2513,-11.2513,-11.2513,-11.2513,-11.2513,-11.2513,-11.2513,-11.2513,-11.2513,-11.2513,-11.2513,-11.2513,-11.2513,-6.8062,-7.2065,-7.6771,-8.5526,-8.8869,-9.1926,-9.9284,-10.1501,-10.185,-10.153,-10.1472,-10.1181,-10.0221,-10.0832,-10.1763,-10.2722,-10.4293,-10.5718,-10.6678,-10.7085,-10.7288,-10.7288,-10.7288,-10.7288,-10.7288,-10.7288,-10.7288,-10.7288,-10.7288,-10.7288,-10.7288,-10.7288,-10.7288,-10.7288,-10.7288,-10.7288,-10.7288,-10.7288,-10.7288,-10.7288,-10.7288,-10.7288,-10.7288,-10.7288,-10.7288,-10.7288,-10.7288,-10.7288,-10.7288,-10.7288,-10.7288,-10.7288,-10.7288,-10.7288,-10.7288,-10.7288,-10.7288,-10.7288,-10.7288,-10.7288,-10.7288,-10.7288,-10.7288,-10.7288,-10.7288,-10.7288,-10.7288,-10.7288,-10.7288,-10.7388,-10.7309,-10.8965,-11.0433,-10.9273,-11.1722,-11.3545,-11.1251,-11.3403,-11.511,-11.294,-11.2513,-11.2513,-11.2513,-11.2513,-11.2513,-11.2513,-11.2513,-11.2513,-11.2513,-11.2513,-11.2513,-11.2513,-11.2513,-11.2513,-11.2513,-11.2513,-11.2513,-11.2513,-11.2513,-11.2513,-11.2513,-11.2513,-11.2513,-11.2513,-11.2513,-11.2513,-11.2513,-11.2513,-11.2513,-11.2513,-11.2513,-11.2513,-6.794,-7.3961,-8.0538,-8.8169,-9.1701,-9.4712,-10.0134,-10.1472,-10.1297,-10.0745,-10.0628,-10.0425,-9.9698,-10.1065,-10.2548,-10.3246,-10.4962,-10.6474,-10.7201,-10.7288,-10.7288,-10.7288,-10.7288,-10.7288,-10.7288,-10.7288,-10.7288,-10.7288,-10.7288,-10.7288,-10.7288,-10.7288,-10.7288,-10.7288,-10.7288,-10.7288,-10.7288,-10.7288,-10.7288,-10.7288,-10.7288,-10.7288,-10.7288,-10.7288,-10.7288,-10.7288,-10.7288,-10.7288,-10.7288,-10.7288,-10.7288,-10.7288,-10.7288,-10.7288,-10.7288,-10.7288,-10.7288,-10.7288,-10.7288,-10.7288,-10.7288,-10.7288,-10.7288,-10.7288,-10.7288,-10.7288,-10.7288,-10.7288,-10.7288,-10.7281,-10.7311,-10.9639,-11.1699,-11.07,-11.3146,-11.4946,-11.2082,-11.4293,-11.5965,-11.3104,-11.2513,-11.2513,-11.2513,-11.2513,-11.2513,-11.2513,-11.2513,-11.2513,-11.2513,-11.2513,-11.2513,-11.2513,-11.2513,-11.2513,-11.2513,-11.2513,-11.2513,-11.2513,-11.2513,-11.2513,-11.2513,-11.2513,-11.2513,-11.2513,-11.2513,-11.2513,-11.2513,-11.2513,-11.2513,-11.2513,-11.2513,-11.2513,-6.7208,-7.4897,-8.3514,-9.0075,-9.4315,-9.7601,-10.0623,-10.121,-10.089,-9.9785,-9.9552,-9.9552,-9.9552,-10.1501,-10.3188,-10.3362,-10.5427,-10.7085,-10.7259,-10.7288,-10.7288,-10.7288,-10.7288,-10.7288,-10.7288,-10.7288,-10.7288,-10.7288,-10.7288,-10.7288,-10.7288,-10.7288,-10.7288,-10.7288,-10.7288,-10.7288,-10.7288,-10.7288,-10.7288,-10.7288,-10.7288,-10.7288,-10.7288,-10.7288,-10.7288,-10.7288,-10.7288,-10.7288,-10.7288,-10.7288,-10.7288,-10.7288,-10.7288,-10.7288,-10.7288,-10.7288,-10.7288,-10.7288,-10.7288,-10.7288,-10.7288,-10.7288,-10.7288,-10.7288,-10.7288,-10.7288,-10.7288,-10.7288,-10.7288,-10.723,-10.7388,-10.962,-11.2372,-11.3703,-11.6115,-11.7615,-11.4949,-11.5603,-11.6096,-11.3565,-11.2776,-11.2513,-11.2513,-11.2513,-11.2513,-11.2513,-11.2513,-11.2513,-11.2513,-11.2513,-11.2513,-11.2513,-11.2513,-11.2513,-11.2513,-11.2513,-11.2513,-11.2513,-11.2513,-11.2513,-11.2513,-11.2513,-11.2513,-11.2513,-11.2513,-11.2513,-11.2513,-11.2513,-11.2513,-11.2513,-11.2513,-11.2513,-7.0332,-7.4082,-7.8952,-8.8018,-9.1403,-9.3876,-9.868,-9.9901,-9.9814,-9.961,-9.9552,-9.9552,-9.9552,-10.0774,-10.2141,-10.3217,-10.4671,-10.6067,-10.7143,-10.7288,-10.7288,-10.7288,-10.7288,-10.7288,-10.7288,-10.7288,-10.7288,-10.7288,-10.7288,-10.7288,-10.7288,-10.7288,-10.7288,-10.7288,-10.7288,-10.7288,-10.7288,-10.7288,-10.7288,-10.7288,-10.7288,-10.7288,-10.7288,-10.7288,-10.7288,-10.7288,-10.7288,-10.7288,-10.7288,-10.7288,-10.7288,-10.7288,-10.7288,-10.7288,-10.7288,-10.7288,-10.7288,-10.7288,-10.7288,-10.7288,-10.7288,-10.7288,-10.7288,-10.7288,-10.7288,-10.7288,-10.7288,-10.7288,-10.7288,-10.7359,-10.7321,-10.9641,-11.2094,-11.2352,-11.6638,-12.0601,-12.0077,-11.823,-11.6688,-11.6162,-11.4157,-11.2513,-11.2513,-11.2513,-11.2513,-11.2513,-11.2513,-11.2513,-11.2513,-11.2513,-11.2513,-11.2513,-11.2513,-11.2513,-11.2513,-11.2513,-11.2513,-11.2513,-11.2513,-11.2513,-11.2513,-11.2513,-11.2513,-11.2513,-11.2513,-11.2513,-11.2513,-11.2513,-11.2513,-11.2513,-11.2513,-11.2513,-6.9746,-7.3456,-7.7941,-8.4596,-8.9995,-9.4905,-9.9384,-10.0047,-9.9158,-9.775,-9.8549,-9.9552,-9.9552,-10.0599,-10.1675,-10.2286,-10.3479,-10.4787,-10.6096,-10.63,-10.6532,-10.7201,-10.7288,-10.7288,-10.7288,-10.7288,-10.7288,-10.7288,-10.7288,-10.7288,-10.7288,-10.7288,-10.7288,-10.7288,-10.7288,-10.7288,-10.7288,-10.7288,-10.7288,-10.7288,-10.7288,-10.7288,-10.7288,-10.7288,-10.7288,-10.7288,-10.7288,-10.7288,-10.7288,-10.7288,-10.7288,-10.7288,-10.7288,-10.7288,-10.7288,-10.7288,-10.7288,-10.7288,-10.7288,-10.7288,-10.7288,-10.7288,-10.7288,-10.7288,-10.7288,-10.7288,-10.7288,-10.7288,-10.7288,-10.731,-10.7266,-11.0245,-11.3228,-11.3228,-11.6364,-11.9432,-11.9102,-11.7839,-11.6392,-11.488,-11.3466,-11.2513,-11.2513,-11.2513,-11.2513,-11.2513,-11.2513,-11.2513,-11.2513,-11.2513,-11.2513,-11.2513,-11.2513,-11.2513,-11.2513,-11.2513,-11.2513,-11.2513,-11.2513,-11.2513,-11.2513,-11.2513,-11.2513,-11.2513,-11.2513,-11.2513,-11.2513,-11.2513,-11.2513,-11.2513,-11.2513,-11.2513,-6.9258,-7.3553,-7.8331,-8.1479,-8.8196,-9.5086,-9.8925,-9.9679,-9.8946,-9.6945,-9.815,-9.9552,-9.9552,-10.0367,-10.1152,-10.1414,-10.2315,-10.342,-10.4758,-10.5194,-10.5747,-10.6765,-10.7114,-10.7288,-10.7288,-10.7288,-10.7288,-10.7288,-10.7288,-10.7288,-10.7288,-10.7288,-10.7288,-10.7288,-10.7288,-10.7288,-10.7288,-10.7288,-10.7288,-10.7288,-10.7288,-10.7288,-10.7288,-10.7288,-10.7288,-10.7288,-10.7288,-10.7288,-10.7288,-10.7288,-10.7288,-10.7288,-10.7288,-10.7288,-10.7288,-10.7288,-10.7288,-10.7288,-10.7288,-10.7288,-10.7288,-10.7288,-10.7288,-10.7288,-10.7288,-10.7288,-10.7288,-10.7288,-10.7288,-10.7288,-10.7288,-11.053,-11.3743,-11.365,-11.536,-11.6834,-11.6432,-11.6102,-11.5326,-11.3217,-11.2622,-11.2513,-11.2513,-11.2513,-11.2513,-11.2513,-11.2513,-11.2513,-11.2513,-11.2513,-11.2513,-11.2513,-11.2513,-11.2513,-11.2513,-11.2513,-11.2513,-11.2513,-11.2513,-11.2513,-11.2513,-11.2513,-11.2513,-11.2513,-11.2513,-11.2513,-11.2513,-11.2513,-11.2513,-11.2513,-11.2513,-11.2513,-7.1674,-7.5237,-7.8873,-8.013,-8.4684,-8.9661,-9.3583,-9.7035,-9.9552,-9.9158,-9.937,-9.9552,-9.9552,-9.9669,-10.0105,-10.1268,-10.1559,-10.2083,-10.3391,-10.4613,-10.5427,-10.5543,-10.6561,-10.7288,-10.7288,-10.7288,-10.7288,-10.7288,-10.7288,-10.7288,-10.7288,-10.7288,-10.7288,-10.7288,-10.7288,-10.7288,-10.7288,-10.7288,-10.7288,-10.7288,-10.7288,-10.7288,-10.7288,-10.7288,-10.7288,-10.7288,-10.7288,-10.7288,-10.7288,-10.7288,-10.7288,-10.7288,-10.7288,-10.7288,-10.7288,-10.7288,-10.7288,-10.7288,-10.7288,-10.7288,-10.7288,-10.7288,-10.7288,-10.7288,-10.7288,-10.7288,-10.7288,-10.7288,-10.7288,-10.7288,-10.7288,-10.9727,-11.2065,-11.1212,-11.2908,-11.4608,-11.4531,-11.4137,-11.3572,-11.3315,-11.2841,-11.2513,-11.2513,-11.2513,-11.2513,-11.2513,-11.2513,-11.2513,-11.2513,-11.2513,-11.2513,-11.2513,-11.2513,-11.2513,-11.2513,-11.2513,-11.2513,-11.2513,-11.2513,-11.2513,-11.2513,-11.2513,-11.2513,-11.2513,-11.2513,-11.2513,-11.2513,-11.2513,-11.2513,-11.2513,-11.2513,-11.2513,-6.9282,-7.3041,-7.6945,-7.736,-8.2061,-8.7664,-9.0692,-9.1981,-9.3555,-9.6633,-9.7161,-9.775,-9.9158,-9.9552,-9.9727,-10.0221,-10.0338,-10.0774,-10.2053,-10.2693,-10.3595,-10.5194,-10.5834,-10.6445,-10.7201,-10.7288,-10.7288,-10.7288,-10.7288,-10.7288,-10.7288,-10.7288,-10.7288,-10.7288,-10.7288,-10.7288,-10.7288,-10.7288,-10.7288,-10.7288,-10.7288,-10.7288,-10.7288,-10.7288,-10.7288,-10.7288,-10.7288,-10.7288,-10.7288,-10.7288,-10.7288,-10.7288,-10.7288,-10.7288,-10.7288,-10.7288,-10.7288,-10.7288,-10.7288,-10.7288,-10.7288,-10.7288,-10.7288,-10.7288,-10.7288,-10.7288,-10.7288,-10.7288,-10.7288,-10.7288,-10.7288,-10.9566,-11.1817,-11.1635,-11.1885,-11.2304,-11.2918,-11.2232,-11.1264,-11.0251,-11.0288,-11.0547,-11.0547,-11.1699,-11.2513,-11.2513,-11.2513,-11.2513,-11.2513,-11.2513,-11.2513,-11.2513,-11.2513,-11.2513,-11.2513,-11.2513,-11.2513,-11.2513,-11.2513,-11.2513,-11.2513,-11.2513,-11.2513,-11.2513,-11.2513,-11.2513,-11.2513,-11.2513,-11.2513,-11.2513,-11.2513,-11.2513,-6.7867,-7.121,-7.4822,-7.5798,-8.0127,-8.4754,-8.7704,-8.7672,-8.8424,-9.3985,-9.531,-9.6351,-9.8975,-9.8946,-9.8578,-9.937,-9.9552,-9.9872,-10.0774,-10.121,-10.2141,-10.4002,-10.4555,-10.5282,-10.659,-10.6707,-10.6881,-10.7259,-10.7288,-10.7288,-10.7288,-10.7288,-10.7288,-10.7288,-10.7288,-10.7288,-10.7288,-10.7288,-10.7288,-10.7288,-10.7288,-10.7288,-10.7288,-10.7288,-10.7288,-10.7288,-10.7288,-10.7288,-10.7288,-10.7288,-10.7288,-10.7288,-10.7288,-10.7288,-10.7288,-10.7288,-10.7288,-10.7288,-10.7288,-10.7288,-10.7288,-10.7288,-10.7288,-10.7288,-10.7288,-10.7288,-10.7288,-10.7288,-10.7288,-10.7288,-10.7288,-10.8932,-11.0604,-11.0604,-11.0147,-11.017,-11.1502,-11.043,-10.9091,-10.8775,-10.8428,-10.8454,-10.91,-11.0547,-11.1555,-11.1555,-11.1555,-11.1555,-11.1555,-11.1555,-11.1876,-11.2513,-11.2513,-11.2513,-11.2513,-11.2513,-11.2513,-11.2513,-11.2513,-11.2513,-11.2513,-11.2513,-11.2513,-11.2513,-11.2513,-11.2513,-11.2513,-11.2513,-11.2513,-11.2513,-11.2513,-11.2513,-6.8794,-7.0649,-7.3089,-7.6335,-7.8201,-8.0319,-8.3661,-8.4407,-8.6282,-9.2495,-9.4883,-9.6351,-9.8975,-9.7348,-9.654,-9.9158,-9.9552,-9.9552,-9.9581,-10.0687,-10.1472,-10.1501,-10.2635,-10.3915,-10.5253,-10.5398,-10.5922,-10.7201,-10.7288,-10.7288,-10.7288,-10.7288,-10.7288,-10.7288,-10.7288,-10.7288,-10.7288,-10.7288,-10.7288,-10.7288,-10.7288,-10.7288,-10.7288,-10.7288,-10.7288,-10.7288,-10.7288,-10.7288,-10.7288,-10.7288,-10.7288,-10.7288,-10.7288,-10.7288,-10.7288,-10.7288,-10.7288,-10.7288,-10.7288,-10.7288,-10.7288,-10.7288,-10.7288,-10.7288,-10.7288,-10.7288,-10.7288,-10.7288,-10.7288,-10.7288,-10.7288,-10.7288,-10.7288,-10.7288,-10.7288,-10.7982,-11.0223,-10.8704,-10.737,-10.971,-10.7978,-10.6885,-10.8915,-10.9252,-10.9252,-10.9252,-10.9252,-10.9252,-10.9252,-10.9252,-11.0069,-11.2338,-11.2513,-11.2513,-11.2513,-11.2513,-11.2513,-11.2513,-11.2513,-11.2513,-11.2513,-11.2513,-11.2513,-11.2513,-11.2513,-11.2513,-11.2513,-11.2513,-11.2513,-11.2513,-11.2513,-11.2513,-6.6622,-6.9014,-7.1601,-7.3382,-7.5798,-7.8212,-7.9256,-8.1378,-8.3352,-8.3514,-8.738,-9.1761,-9.5126,-9.7178,-9.8549,-9.937,-9.9552,-9.9552,-9.9552,-9.9901,-10.0483,-10.1385,-10.1821,-10.2577,-10.3886,-10.4845,-10.5543,-10.5951,-10.6794,-10.7288,-10.7288,-10.7288,-10.7288,-10.7288,-10.7288,-10.7288,-10.7288,-10.7288,-10.7288,-10.7288,-10.7288,-10.7288,-10.7288,-10.7288,-10.7288,-10.7288,-10.7288,-10.7288,-10.7288,-10.7288,-10.7288,-10.7288,-10.7288,-10.7288,-10.7288,-10.7288,-10.7288,-10.7288,-10.7288,-10.7288,-10.7288,-10.7288,-10.7288,-10.7288,-10.7288,-10.7288,-10.7288,-10.7288,-10.7288,-10.7288,-10.7288,-10.8504,-10.9719,-10.9719,-10.9719,-10.9908,-11.0596,-10.9396,-10.8101,-10.7876,-10.8952,-10.9349,-10.7391,-10.9619,-11.0579,-10.7519,-10.83,-10.8762,-10.7361,-10.7044,-10.7989,-11.0069,-11.1699,-11.2513,-11.2513,-11.2513,-11.2513,-11.2513,-11.2513,-11.2513,-11.2513,-11.2513,-11.2513,-11.2513,-11.2513,-11.2513,-11.2513,-11.2513,-11.2513,-11.2513,-11.2513,-11.2513,-6.5378,-6.794,-7.0429,-7.1918,-7.3504,-7.4822,-7.5213,-7.7417,-7.9565,-7.963,-8.2803,-8.6814,-9.0966,-9.3834,-9.6218,-9.7879,-9.7965,-9.8364,-9.937,-9.9552,-9.9843,-10.0658,-10.0745,-10.1268,-10.2548,-10.3857,-10.4816,-10.534,-10.6561,-10.7288,-10.7288,-10.7288,-10.7288,-10.7288,-10.7288,-10.7288,-10.7288,-10.7288,-10.7288,-10.7288,-10.7288,-10.7288,-10.7288,-10.7288,-10.7288,-10.7288,-10.7288,-10.7288,-10.7288,-10.7288,-10.7288,-10.7288,-10.7288,-10.7288,-10.7288,-10.7288,-10.7288,-10.7288,-10.7288,-10.7288,-10.7288,-10.7288,-10.7288,-10.7288,-10.7288,-10.7288,-10.7288,-10.7288,-10.7288,-10.7288,-10.7288,-10.834,-10.956,-10.956,-11.0373,-11.1363,-11.2037,-11.1119,-10.9923,-10.9475,-10.9956,-10.973,-10.7613,-10.9587,-11.0399,-10.7676,-10.7676,-10.7676,-10.6274,-10.5459,-10.5756,-10.7833,-10.9284,-11.0431,-11.1199,-11.1377,-11.1699,-11.2513,-11.1699,-11.1377,-11.1377,-11.202,-11.2513,-11.2513,-11.2513,-11.2513,-11.2513,-11.2513,-11.2513,-11.2513,-11.2513,-11.2513,-6.4768,-6.7184,-6.9258,-7.1406,-7.1357,-7.1064,-7.2065,-7.3114,-7.5154,-7.9554,-8.0539,-8.1976,-8.6782,-8.8505,-9.066,-9.5008,-9.5697,-9.654,-9.9158,-9.9552,-9.9552,-9.9552,-9.9552,-10.0018,-10.121,-10.249,-10.3798,-10.5136,-10.6416,-10.7201,-10.7288,-10.7288,-10.7288,-10.7288,-10.7288,-10.7288,-10.7288,-10.7288,-10.7288,-10.7288,-10.7288,-10.7288,-10.7288,-10.7288,-10.7288,-10.7288,-10.7288,-10.7288,-10.7288,-10.7288,-10.7288,-10.7288,-10.7288,-10.7288,-10.7288,-10.7288,-10.7288,-10.7288,-10.7288,-10.7288,-10.7288,-10.7288,-10.7288,-10.7288,-10.7288,-10.7288,-10.7288,-10.7288,-10.7288,-10.7288,-10.7288,-10.7543,-10.7768,-10.7651,-10.9668,-11.2128,-11.3588,-11.2874,-11.2157,-11.2971,-11.0545,-10.8383,-10.8863,-10.91,-10.922,-10.91,-10.7361,-10.6112,-10.595,-10.3993,-10.3485,-10.5623,-10.595,-10.6725,-10.8762,-10.9068,-10.9919,-11.202,-11.0218,-10.9068,-10.9068,-11.1053,-11.2052,-11.2052,-11.2052,-11.2195,-11.2338,-11.2338,-11.2371,-11.2513,-11.2513,-11.2513,-6.2173,-6.4377,-6.5939,-6.8087,-7.0283,-7.1967,-7.2211,-7.3114,-7.4209,-7.5228,-7.5518,-7.71,-8.1898,-8.4404,-8.8398,-9.5988,-9.632,-9.654,-9.9158,-9.9552,-9.9552,-9.9552,-9.9552,-9.9669,-9.9989,-10.1152,-10.2461,-10.374,-10.5078,-10.6242,-10.723,-10.7288,-10.7288,-10.7288,-10.7288,-10.7288,-10.7288,-10.7288,-10.7288,-10.7288,-10.7288,-10.7288,-10.7288,-10.7288,-10.7288,-10.7288,-10.7288,-10.7288,-10.7288,-10.7288,-10.7288,-10.7288,-10.7288,-10.7288,-10.7288,-10.7288,-10.7288,-10.7288,-10.7288,-10.7288,-10.7288,-10.7288,-10.7288,-10.7288,-10.7288,-10.7288,-10.7288,-10.7288,-10.7288,-10.7288,-10.7288,-10.9878,-11.2228,-11.0335,-11.0055,-10.9973,-11.0214,-10.906,-10.79,-10.705,-10.7716,-10.7893,-10.6975,-10.8145,-10.8762,-10.7044,-10.6404,-10.5459,-10.3824,-10.1673,-10.1203,-10.3344,-10.3654,-10.4466,-10.6725,-10.6885,-10.7044,-10.755,-10.7203,-10.6885,-10.6885,-10.7392,-10.7708,-10.7708,-10.7708,-10.8486,-11.0069,-11.0069,-11.0874,-11.2513,-11.2513,-11.2513,-6.1089,-6.3792,-6.5183,-6.5866,-6.8062,-7.0088,-7.0088,-7.1284,-7.2553,-7.3041,-7.3138,-7.453,-7.8735,-8.0457,-8.3087,-8.8967,-9.1623,-9.41,-9.7263,-9.8762,-9.9552,-9.9552,-9.9552,-9.9552,-9.9552,-10.0716,-10.1763,-10.2432,-10.4293,-10.5689,-10.6358,-10.6969,-10.7288,-10.7288,-10.7288,-10.7288,-10.7288,-10.7288,-10.7288,-10.7288,-10.7288,-10.7288,-10.7288,-10.7288,-10.7288,-10.7288,-10.7288,-10.7288,-10.7288,-10.7288,-10.7288,-10.7288,-10.7288,-10.7288,-10.7288,-10.7288,-10.7288,-10.7288,-10.7288,-10.7288,-10.7288,-10.7288,-10.7288,-10.7288,-10.7288,-10.7288,-10.7288,-10.7288,-10.7288,-10.7288,-10.7288,-10.9093,-11.0673,-10.9471,-11.0541,-11.1126,-10.9459,-10.8868,-10.8109,-10.6591,-10.7332,-10.7893,-10.6361,-10.7044,-10.7361,-10.6274,-10.5295,-10.4161,-10.3002,-10.0848,-10.0068,-10.1203,-10.138,-10.1848,-10.3002,-10.3993,-10.4633,-10.4633,-10.3654,-10.3485,-10.4633,-10.5623,-10.6112,-10.6112,-10.7044,-10.8145,-10.9252,-11.025,-11.1377,-11.2513,-11.2513,-11.2513,-6.059,-6.3743,-6.4963,-6.4206,-6.5646,-6.7257,-6.7257,-6.8892,-7.0698,-7.1601,-7.1918,-7.3058,-7.6263,-7.6975,-7.7668,-7.9854,-8.5335,-9.0695,-9.484,-9.785,-9.9552,-9.9552,-9.9552,-9.9552,-9.9552,-10.0541,-10.1268,-10.1443,-10.3508,-10.4962,-10.5369,-10.6416,-10.7085,-10.7288,-10.7288,-10.7288,-10.7288,-10.7288,-10.7288,-10.7288,-10.7288,-10.7288,-10.7288,-10.7288,-10.7288,-10.7288,-10.7288,-10.7288,-10.7288,-10.7288,-10.7288,-10.7288,-10.7288,-10.7288,-10.7288,-10.7288,-10.7288,-10.7288,-10.7288,-10.7288,-10.7288,-10.7288,-10.7288,-10.7288,-10.7288,-10.7288,-10.7288,-10.7288,-10.7288,-10.7259,-10.7397,-10.723,-10.7339,-10.7232,-10.9788,-11.1398,-10.9218,-10.9098,-10.8967,-10.7564,-10.7256,-10.6962,-10.5892,-10.5716,-10.5787,-10.6112,-10.4298,-10.283,-10.283,-10.0848,-9.9552,-9.9552,-9.9552,-9.9552,-9.9552,-10.1203,-10.2342,-10.2342,-10.0549,-10.037,-10.2168,-10.4161,-10.513,-10.513,-10.6853,-10.8113,-10.8794,-11.0579,-11.1876,-11.2513,-11.2513,-11.2513,-5.9332,-6.1498,-6.1937,-6.2693,-6.4524,-6.6134,-6.6134,-6.7794,-6.938,-6.9551,-7.0307,-7.1444,-7.2846,-7.4732,-7.661,-7.7644,-8.2167,-8.754,-9.3331,-9.7277,-9.9552,-9.9552,-9.9552,-9.9552,-9.9552,-9.9727,-10.0308,-10.1385,-10.185,-10.3042,-10.5253,-10.5573,-10.6154,-10.7259,-10.7288,-10.7288,-10.7288,-10.7288,-10.7288,-10.7288,-10.7288,-10.7288,-10.7288,-10.7288,-10.7288,-10.7288,-10.7288,-10.7288,-10.7288,-10.7288,-10.7288,-10.7288,-10.7288,-10.7288,-10.7288,-10.7288,-10.7288,-10.7288,-10.7288,-10.7288,-10.7288,-10.7288,-10.7288,-10.7288,-10.7288,-10.7288,-10.7288,-10.7288,-10.7288,-10.7397,-10.732,-10.7359,-10.7339,-10.7232,-10.4479,-10.2515,-10.5053,-10.5007,-10.4195,-10.3178,-10.2717,-10.2828,-10.4155,-10.3717,-10.3993,-10.5787,-10.4298,-10.283,-10.283,-10.0848,-9.9552,-9.9552,-9.9552,-9.9552,-9.9552,-9.9887,-10.0038,-10.0038,-9.9734,-9.9734,-10.0038,-10.0399,-10.0549,-10.0549,-10.0877,-10.28,-10.6565,-10.6916,-10.9011,-11.2513,-11.2513,-11.2513,-5.8816,-6.0767,-6.1286,-6.2166,-6.3802,-6.4915,-6.4185,-6.5817,-6.7355,-6.7355,-6.8209,-6.9282,-7.0356,-7.186,-7.3677,-7.5139,-7.8371,-8.2545,-8.807,-9.3763,-9.7965,-9.937,-9.9552,-9.9552,-9.9552,-9.9552,-9.9814,-10.0396,-10.1065,-10.1995,-10.3188,-10.4613,-10.5573,-10.5844,-10.6852,-10.7288,-10.7288,-10.7288,-10.7288,-10.7288,-10.7288,-10.7288,-10.7288,-10.7288,-10.7288,-10.7288,-10.7288,-10.7288,-10.7288,-10.7288,-10.7288,-10.7288,-10.7288,-10.7288,-10.7288,-10.7288,-10.7288,-10.7288,-10.7288,-10.7288,-10.7288,-10.7288,-10.7288,-10.7288,-10.7288,-10.7288,-10.723,-10.733,-10.7281,-10.7368,-10.7232,-10.5272,-10.3748,-10.6629,-10.3217,-9.9891,-10.1643,-10.2359,-10.249,-10.2069,-10.2331,-10.2806,-10.3467,-10.342,-10.3456,-10.4469,-10.3816,-10.3124,-10.3124,-10.1684,-10.0599,-10.0599,-9.9989,-9.9552,-9.9552,-10.0192,-10.0599,-10.0599,-9.993,-9.9552,-9.9552,-9.9552,-9.9552,-9.9552,-10.0699,-10.283,-10.6112,-10.7203,-10.9435,-11.2513,-11.2513,-11.2513,-5.8394,0.0,-6.0281,-6.0934,-6.2263,-6.3335,0.0,-6.4307,-6.5841,-6.5549,-6.6574,-6.7818,-6.8892,-6.9771,-7.0991,-7.3163,-7.5139,-7.8065,-8.2905,-8.904,-9.41,-9.7291,-9.815,-9.852,-9.8405,-9.9071,-9.9552,-9.9552,-10.0483,-10.1181,-10.153,-10.3755,-10.5125,-10.5369,-10.6698,-10.7368,-10.7288,-10.7288,-10.7288,-10.7288,-10.7288,-10.7288,-10.7288,-10.7288,-10.7288,-10.7288,-10.7288,-10.7288,-10.7288,-10.7288,-10.7288,-10.7288,-10.7288,-10.7288,-10.7288,-10.7288,-10.7288,-10.7288,-10.7288,-10.7288,-10.7288,-10.7288,-10.7288,-10.7288,-10.7288,-10.731,-10.7213,-10.7384,-10.6377,-10.5678,-10.7045,-10.4305,-10.233,-10.629,-10.4239,-10.1382,-10.1337,-10.2399,-10.3302,-10.3302,-10.355,-10.3769,-10.3769,-10.3537,-10.3362,-10.3362,-10.3362,-10.3362,-10.3362,-10.2519,-10.1937,-10.1937,-10.1036,-10.0454,-10.0454,-10.1355,-10.1937,-10.1937,-10.0977,-10.0454,-10.0454,-10.0163,-10.0018,-10.0018,-10.1351,-10.283,-10.4633,-10.7171,-10.9587,-11.1843,-11.2371,-11.271,0.0,-5.7783,-5.748,-5.7437,-5.9403,-6.1385,-6.2044,-6.4431,0.0,-6.4691,-6.6061,-6.7818,-6.8892,-6.916,-6.9917,-7.204,-7.3358,-7.5766,-8.0692,-8.3566,-8.6964,-9.1501,-9.4352,-9.5584,-9.4728,-9.7678,-9.9552,-9.9552,-9.964,-10.0308,-10.189,-10.2992,-10.4672,-10.7103,-10.7308,-10.7378,-10.7288,-10.7288,-10.7288,-10.7288,-10.7288,-10.7288,-10.7288,-10.7288,-10.7288,-10.7288,-10.7288,-10.7288,-10.7288,-10.7288,-10.7288,-10.7288,-10.7288,-10.7288,-10.7288,-10.7288,-10.7288,-10.7288,-10.7288,-10.7288,-10.7288,-10.7288,-10.7288,-10.7288,-10.7288,-10.7367,-10.7309,-10.728,-10.3899,-10.1153,-10.6092,-10.7103,-10.6881,-10.7174,-10.7096,-10.6714,-10.6656,-10.6881,-10.6939,-10.6939,-10.5669,-10.474,-10.474,-10.406,-10.3362,-10.3362,-10.3362,-10.3362,-10.3362,-10.3304,-10.3246,-10.3246,-10.3159,-10.31,-10.31,-10.3188,-10.3246,-10.3246,-10.3159,-10.31,-10.31,-10.1966,-10.1326,-10.1326,-10.0346,-9.9887,-10.0068,-10.4298,-10.7361,-10.9554,-11.1555,-11.3269,-5.5519,-5.5906,-5.6015,-5.7247,-5.8299,-5.9203,-5.9482,-6.1334,-6.337,-6.4148,-6.4997,-6.5971,-6.7806,-6.9194,-7.0738,-7.2959,-7.3548,-7.538,-7.9848,-8.4271,-8.8081,-9.1194,-9.2438,-9.3319,-9.4123,-9.7381,-9.9584,-9.9584,-9.9552,-9.9888,-10.0464,-10.2415,-10.3202,-10.2571,-10.5678,-10.7281,-10.7378,-10.731,-10.7288,-10.7288,-10.7288,-10.7288,-10.7288,-10.7288,-10.7288,-10.7288,-10.7288,-10.7288,0.0,-10.7288,-10.7288,-10.7288,-10.7288,-10.7288,-10.7288,-10.7288,-10.7288,-10.7288,-10.7288,-10.7288,-10.7288,-10.7288,-10.7288,-10.723,-10.7301,-10.4933,-10.2374,-10.2432,-10.0969,-10.0705,-10.5853,-10.7355,-10.7349,-10.7338,-10.7301,-10.7288,-10.7288,-10.7288,-10.7288,-10.7288,-10.6823,-10.6445,-10.6445,-10.6096,-10.5805,-10.5805,-10.5805,-10.5805,-10.5805,-10.5107,-10.4613,-10.4613,-10.3857,-10.4031,-10.566,-10.5078,-10.4613,-10.4613,-10.3828,-10.3362,-10.3362,-10.2926,-10.2664,-10.2664,-10.217,-10.1937,-10.1937,-10.4977,-10.8298,-11.1877,-11.2713,-11.416,-5.4321,-5.5067,-5.542,-5.6644,-5.7054,-5.7067,-5.7869,-6.0153,-6.226,-6.322,-6.3294,-6.3959,-6.6036,-6.8843,-7.1293,-7.2548,-7.3477,-7.506,-7.8881,-8.2992,-8.6714,-8.8733,-8.912,-9.0176,-9.3021,-9.5677,-9.7732,-9.9421,-9.6349,-9.5987,-9.9391,-10.1279,-9.9748,-9.4731,-10.1232,-10.558,-10.7189,-10.7288,-10.7382,-10.7222,-10.7365,-10.7362,-10.7362,-10.7362,-10.73,-10.7288,-10.7288,-10.7288,-10.7288,-10.7288,-10.7288,-10.7288,-10.7288,-10.7288,-10.7288,-10.7288,-10.7288,-10.7288,-10.7288,-10.7288,-10.7288,-10.7288,-10.7368,-10.7359,-10.7203,-10.3666,-9.9442,-9.9484,-9.9528,-10.0307,-10.395,-10.4877,-10.5241,-10.7002,-10.7232,-10.7252,-10.7252,-10.7368,-10.7288,-10.7288,-10.7288,-10.7288,-10.7288,-10.7288,-10.7288,-10.7288,-10.7288,-10.7288,-10.7288,-10.6532,-10.598,-10.598,-10.5165,-10.534,-10.7114,-10.6474,-10.598,-10.598,-10.5136,-10.4613,-10.4613,-10.4235,-10.4002,-10.4002,-10.3595,-10.3362,-10.3362,-10.4957,-10.7663,-11.132,-11.2006,-11.4239,-5.5101,-5.493,-5.4993,-5.4993,-5.498,-5.5459,-5.7479,-6.1222,-6.3621,-6.1567,-6.1094,-6.1762,-6.3944,-6.7905,-7.0617,-7.0842,-7.2424,-7.457,-7.6758,-7.8858,-8.1047,-8.3404,-8.3575,-8.5658,-9.0998,-9.154,-9.3677,-9.9026,-8.9584,-8.8124,-9.8715,-9.9449,-9.4529,-8.3884,-9.3865,-10.1852,-10.7185,-10.7189,-10.7165,-10.7402,-10.718,-10.7092,-10.7092,-10.7326,-10.7222,-10.7288,-10.7288,-10.7288,-10.7288,-10.7288,-10.7288,-10.7288,-10.7288,-10.7288,-10.7288,-10.7259,-10.7288,-10.7288,-10.7259,-10.7259,-10.7259,-10.7259,-10.7301,-10.7279,-10.725,-10.3566,-9.9484,-9.9515,-9.9564,-9.957,-9.957,-9.9601,-10.0912,-10.6047,-10.7193,-10.725,-10.7279,-10.7301,-10.7259,-10.7259,-10.7288,-10.7288,-10.7288,-10.7288,-10.7288,-10.7288,-10.7288,-10.7288,-10.7288,-10.7288,-10.7288,-10.7288,-10.7288,-10.7288,-10.7288,-10.7288,-10.7288,-10.7288,-10.7288,-10.7288,-10.7288,-10.6067,-10.5398,-10.5398,-10.4089,-10.342,-10.342,-10.342,-10.4645,-10.6747,-10.9087,-11.338,-5.5097,-5.4949,-5.5059,-5.5087,-5.5052,-5.5148,-5.5669,-5.5096,-5.5855,-6.2025,-6.3313,-6.3614,-6.4161,-6.5327,-6.719,-7.0184,-6.8796,-6.8468,-7.2155,-7.8498,-8.2908,-8.3528,-8.3575,-8.4307,-8.5897,-8.5974,-8.6662,-8.8221,-8.5272,-8.5002,-8.8086,-8.8208,-8.6856,-8.3641,-8.659,-9.2616,-10.1625,-9.7276,-9.9136,-10.7131,-9.9027,-9.5097,-9.5411,-10.3642,-10.7271,-10.7288,-10.7288,-10.7288,-10.7288,-10.7288,-10.7288,-10.7288,-10.7288,-10.7288,-10.723,-10.7272,-10.7359,-10.7368,-10.7384,-10.7384,-10.7261,-10.7237,-10.7193,-10.6605,-10.2926,-10.0665,-9.9573,-9.961,-9.9486,-9.9602,-9.9602,-9.9611,-9.9874,-10.1489,-10.1751,-10.2925,-10.6415,-10.7325,-10.732,-10.732,-10.7222,-10.7288,-10.7288,-10.7288,-10.7288,-10.7288,-10.7288,-10.7288,-10.7288,-10.7288,-10.7288,-10.7288,-10.7288,-10.7288,-10.7288,-10.7288,-10.7288,-10.7288,-10.7288,-10.7288,-10.7288,-10.691,-10.6707,-10.6707,-10.6329,-10.6125,-10.6125,-10.6125,-10.6484,-10.7193,-11.1207,-11.4015,-5.3443,-5.3924,-5.5012,-5.4974,-5.4974,-5.5058,-5.4933,-5.233,-5.2609,-6.2427,-6.43,-6.4271,-6.4331,-6.4333,-6.5159,-6.7788,-6.7481,-6.8327,-7.2747,-7.9265,-8.365,-8.3471,-8.3531,-8.3534,-8.3534,-8.3531,-8.3482,-8.3534,-8.3685,-8.3566,-8.3504,-8.3586,-8.3569,-8.369,-8.3678,-8.6561,-9.3067,-9.1154,-9.3542,-10.0338,-9.3437,-9.236,-9.714,-10.4149,-10.7218,-10.7288,-10.7288,-10.7288,-10.7288,-10.7288,-10.7288,-10.7288,-10.7288,-10.7368,-10.733,-10.7232,-10.597,-10.4519,-10.6635,-10.5844,-10.4293,-10.4134,-10.4132,-10.3588,-10.0502,-9.9448,-9.9552,-9.9552,-9.9552,-9.9552,-9.9552,-9.9602,-9.9466,-9.9466,-9.95,-10.0364,-10.3506,-10.5887,-10.7208,-10.725,-10.7349,-10.7252,-10.723,-10.7288,-10.7288,-10.7288,-10.7288,-10.7288,-10.7288,-10.7288,-10.7288,-10.7288,-10.7288,-10.7288,-10.7288,-10.7288,-10.7288,-10.7288,-10.7288,-10.7288,-10.7288,-10.7288,-10.7288,-10.7288,-10.7288,-10.7288,-10.7288,-10.7288,-10.7288,-10.7456,-11.1152,-11.2908,-5.076,-5.2289,-5.4454,-5.4571,-5.4636,-5.4551,-5.5028,-5.2389,-5.2735,-6.2399,-6.4725,-6.4792,-6.4404,-6.4328,-6.4396,-6.4261,-6.8366,-7.2717,-7.6677,-8.0925,-8.3558,-8.3674,-8.3629,-8.3605,-8.3605,-8.3495,-8.3323,-8.3095,-8.329,-8.3477,-8.2954,-8.3266,-8.3636,-8.358,-8.3591,-8.3626,-8.3656,-8.7355,-8.9625,-9.0029,-8.9991,-9.6116,-10.729,-10.7247,-10.7309,-10.7288,-10.7288,-10.7288,-10.7288,-10.7288,-10.7288,-10.7288,-10.723,-10.733,-10.725,-10.6676,-10.3504,-10.0188,-10.4935,-10.3493,-9.9541,-9.9483,-9.957,-9.9552,-9.9552,-9.9552,-9.9552,-9.9552,-9.9552,-9.9552,-9.9552,-9.9552,-9.9552,-9.9552,-9.9564,-9.9512,-9.9512,-10.3214,-10.6766,-10.7178,-10.7384,-10.7396,-10.731,-10.7172,-10.7143,-10.7259,-10.7288,-10.7288,-10.7288,-10.7288,-10.7288,-10.7288,-10.7288,-10.7288,-10.7288,-10.7288,-10.7288,-10.7288,-10.7288,-10.7288,-10.7288,-10.7288,-10.7288,-10.7288,-10.7288,-10.7288,-10.7288,-10.7288,-10.7288,-10.7288,-10.9719,-11.0752,-5.0218,-5.04,-5.1001,-5.0941,-5.1079,-5.1752,-5.4512,-5.2444,-5.2614,-6.2374,-6.7046,-6.8299,-6.4971,-6.428,-6.4273,-6.4414,-7.0762,-7.6087,-7.6949,-8.0791,-8.359,-8.3488,-8.3665,-8.3604,-8.3604,-8.348,-8.223,-7.8885,-8.176,-8.2069,-7.8669,-8.1774,-8.3665,-8.3604,-8.3566,-8.3651,-8.3643,-8.4516,-8.6729,-9.004,-8.9986,-9.6108,-10.7227,-10.725,-10.7382,-10.7288,-10.7288,-10.7288,-10.7288,-10.7288,-10.7288,-10.723,-10.7242,-10.7396,-10.6706,-10.265,-10.0479,-9.9598,-10.0734,-10.0531,-9.95,-9.9466,-9.9573,-9.9552,-9.9552,-9.9552,-9.9552,-9.9552,-9.9552,-9.9552,-9.9552,-9.9552,-9.9552,-9.9552,-9.9457,-9.9544,-9.9544,-10.0444,-10.2415,-10.6464,-10.7291,-10.7384,-10.7367,-10.6377,-10.6125,-10.7143,-10.7288,-10.7288,-10.7288,-10.7288,-10.7288,-10.7288,-10.7288,-10.7288,-10.7288,-10.7288,-10.7288,-10.7288,-10.7288,-10.7288,-10.7288,-10.7288,-10.7288,-10.7288,-10.7288,-10.7288,-10.7288,-10.7288,-10.7288,-10.7288,-10.9719,-11.0752,-4.9996,-5.1213,-5.244,-5.2477,-5.2462,-5.2834,-5.4675,-5.3689,-5.344,-5.6698,-6.2879,-6.7062,-6.4762,-6.7732,-7.0535,-7.0451,-7.4237,-7.7267,-7.7134,-8.0825,-8.2762,-8.085,-8.042,-8.0459,-8.0459,-8.0583,-7.952,-7.7275,-7.9155,-7.9528,-7.7398,-7.9337,-8.0558,-8.0435,-8.0542,-8.1525,-8.3654,-8.1497,-8.16,-8.3898,-8.5936,-9.4151,-10.7382,-10.7331,-10.7222,-10.7247,-10.7247,-10.7295,-10.7301,-10.7301,-10.7349,-10.725,-10.737,-10.5814,-10.3275,-10.0565,-9.9599,-9.9541,-9.9573,-9.9544,-9.9564,-9.9457,-9.9552,-9.9552,-9.9552,-9.9552,-9.9552,-9.9552,-9.9552,-9.9552,-9.9552,-9.9552,-9.9552,-9.9552,-9.9552,-9.9552,-9.9552,-9.9602,-10.1104,-10.6333,-10.7223,-10.7055,-10.6166,-10.6267,-10.6203,-10.6329,-10.6881,-10.7288,-10.7288,-10.7288,-10.7288,-10.7288,-10.7288,-10.7288,-10.7288,-10.7288,-10.7288,-10.7288,-10.7288,-10.7288,-10.7288,-10.7288,-10.6998,-10.6387,-10.6358,-10.6038,-10.5398,-10.5398,-10.5398,-10.5398,-10.6589,-10.7312,-5.069,-5.2813,-5.5008,-5.5024,-5.5071,-5.4917,-5.5,-5.4926,-5.4119,-5.146,-5.7099,-6.3289,-6.5152,-7.1233,-7.6128,-7.6103,-7.6135,-7.6093,-7.6053,-7.9799,-8.1224,-7.7548,-7.7173,-7.7101,-7.7101,-7.7241,-7.7145,-7.7261,-7.7167,-7.7165,-7.7165,-7.7273,-7.7169,-7.7077,-7.7101,-7.8813,-8.2386,-7.9023,-7.7142,-7.7142,-8.085,-8.9821,-10.3274,-10.3097,-10.325,-10.3381,-10.6131,-10.73,-10.7232,-10.6279,-10.5887,-10.6017,-10.5929,-10.3302,-9.957,-9.9484,-9.9564,-9.9552,-9.9552,-9.9552,-9.9552,-9.9552,-9.9552,-9.9552,-9.9552,-9.9552,-9.9552,-9.9552,-9.9552,-9.9552,-9.9552,-9.9552,-9.9552,-9.9552,-9.9552,-9.9552,-9.9552,-9.9552,-10.0792,-10.5104,-10.5881,-10.5666,-10.4672,-10.5448,-10.6092,-10.5078,-10.6125,-10.6969,-10.6969,-10.6765,-10.6707,-10.691,-10.6969,-10.7027,-10.7259,-10.7288,-10.7201,-10.6969,-10.6969,-10.6852,-10.662,-10.662,-10.6096,-10.5049,-10.502,-10.4467,-10.3362,-10.3362,-10.3362,-10.3362,-10.3362,-10.3362,-5.3495,-5.4594,-5.5024,-5.5097,-5.501,-5.5068,-5.4972,-5.4944,-5.4935,-5.4357,-5.5374,-5.9062,-6.8231,-7.0907,-7.1699,-7.1547,-7.1604,-7.1697,-7.1653,-7.5284,-7.7884,-7.7132,-7.7142,-7.7208,-7.7208,-7.7134,-7.711,-7.7208,-7.7263,-7.7165,-7.7165,-7.7238,-7.711,-7.7208,-7.7208,-7.7531,-7.7977,-7.7554,-7.7132,-7.7132,-7.7848,-8.1099,-8.6715,-8.6771,-8.6668,-8.757,-10.1311,-10.7271,-10.7034,-10.2439,-10.0636,-10.0521,-10.0465,-10.0189,-9.9541,-9.9477,-9.9428,-9.9552,-9.9552,-9.9552,-9.9552,-9.9552,-9.9552,-9.9552,-9.9552,-9.9552,-9.9552,-9.9552,-9.9552,-9.9552,-9.9552,-9.9552,-9.9552,-9.9552,-9.9552,-9.9552,-9.9552,-9.9552,-9.9698,-10.0346,-10.0646,-10.1171,-10.3266,-10.2806,-10.2677,-10.3479,-10.4787,-10.5631,-10.5631,-10.4613,-10.4351,-10.5514,-10.5631,-10.6067,-10.7201,-10.7288,-10.6794,-10.5718,-10.5631,-10.5107,-10.3944,-10.3915,-10.3798,-10.3624,-10.3624,-10.3566,-10.3362,-10.3362,-10.3362,-10.3362,-10.3362,-10.3362,-5.1864,-5.3587,-5.5087,-5.5032,-5.4985,-5.5062,-5.502,-5.509,-5.5101,-5.4917,-5.4961,-5.6376,-6.1127,-6.6694,-7.0794,-7.0741,-6.5784,-6.3237,-6.6896,-7.3111,-7.7061,-7.7151,-7.7134,-7.7165,-7.7165,-7.7165,-7.7165,-7.7165,-7.7165,-7.7165,-7.7165,-7.7165,-7.7165,-7.7165,-7.7165,-7.7165,-7.7165,-7.7232,-7.7176,-7.7176,-7.7176,-7.8084,-8.0043,-8.2436,-8.3608,-8.4049,-9.0966,-9.7319,-10.2846,-10.0435,-9.9542,-9.9552,-9.9541,-9.9535,-9.9506,-9.9457,-9.9552,-9.9552,-9.9552,-9.9552,-9.9552,-9.9552,-9.9552,-9.9552,-9.9552,-9.9552,-9.9552,-9.9552,-9.9552,-9.9552,-9.9552,-9.9552,-9.9552,-9.9552,-9.9552,-9.9552,-9.9552,-9.9552,-9.9552,-9.9552,-9.9552,-9.9843,-10.1113,-10.1959,-10.2514,-10.2286,-10.342,-10.4002,-10.3275,-10.3304,-10.3595,-10.4206,-10.4235,-10.4467,-10.5049,-10.5107,-10.4845,-10.4293,-10.4235,-10.4002,-10.3391,-10.3362,-10.3042,-10.2315,-10.2315,-10.1937,-10.1239,-10.1239,-10.1239,-10.1239,-10.1239,-10.1239,-5.0114,-5.188,-5.3811,-5.3747,-5.3824,-5.3741,-5.3802,-5.4291,-5.5023,-5.5045,-5.5109,-5.509,-5.5051,-6.1474,-6.7595,-7.0335,-6.4138,-6.0827,-6.5702,-7.2633,-7.72,-7.7092,-7.7165,-7.7165,-7.7165,-7.7165,-7.7165,-7.7165,-7.7165,-7.7165,-7.7165,-7.7165,-7.7165,-7.7165,-7.7165,-7.7165,-7.7165,-7.7165,-7.7165,-7.7165,-7.7248,-7.7132,-7.7374,-8.0435,-8.2539,-8.3633,-8.354,-8.8008,-9.5508,-9.5561,-9.7045,-9.9533,-9.95,-9.9477,-9.9552,-9.9552,-9.9552,-9.961,-9.9564,-9.9477,-9.9552,-9.9552,-9.9552,-9.9552,-9.9552,-9.9552,-9.9552,-9.9552,-9.9552,-9.9552,-9.9552,-9.9552,-9.9552,-9.9552,-9.9552,-9.9552,-9.9552,-9.9552,-9.9552,-9.9552,-9.9552,-9.9552,-9.9552,-10.12,-10.2018,-10.1065,-10.2083,-10.2432,-10.1152,-10.1821,-10.2519,-10.2868,-10.2897,-10.3013,-10.3362,-10.3362,-10.3246,-10.2897,-10.2897,-10.2752,-10.2432,-10.2402,-10.1966,-10.0977,-10.0977,-10.0512,-9.9552,-9.9552,-9.9552,-9.9552,-9.9552,-9.9552,-5.0912,-5.0153,-5.0284,-5.028,-5.0179,-5.0179,-5.0216,-5.262,-5.4985,-5.5004,-5.5101,-5.5023,-5.5071,-5.5494,-5.9073,-6.9166,-7.037,-7.0123,-7.0327,-7.4274,-7.7217,-7.7061,-7.7165,-7.7165,-7.7165,-7.7165,-7.7165,-7.7165,-7.7165,-7.7165,-7.7165,-7.7165,-7.7165,-7.7165,-7.7165,-7.7165,-7.7165,-7.7165,-7.7165,-7.7165,-7.7189,-7.7127,-7.7097,-7.747,-7.9788,-8.3575,-8.3571,-8.401,-8.4316,-8.4386,-9.0318,-9.9619,-9.9533,-9.9515,-9.9552,-9.9552,-9.9552,-9.9544,-9.9483,-9.9457,-9.9552,-9.9552,-9.9552,-9.9552,-9.9552,-9.9552,-9.9552,-9.9552,-9.9552,-9.9552,-9.9552,-9.9552,-9.9552,-9.9552,-9.9552,-9.9552,-9.9552,-9.9552,-9.9552,-9.9552,-9.9552,-9.9552,-9.9552,-9.964,-9.9698,-9.9669,-10.0745,-10.1094,-9.9814,-9.9698,-10.0221,-10.1443,-10.1559,-10.2053,-10.3275,-10.3362,-10.2868,-10.1646,-10.1559,-10.1036,-9.9814,-9.9756,-9.9727,-9.9669,-9.9669,-9.961,-9.9552,-9.9552,-9.9552,-9.9552,-9.9552,-9.9552,-4.7126,-4.8353,-4.9957,-4.9902,-4.9935,-5.0028,-5.0032,-5.0934,-5.1722,-5.1748,-5.3418,-5.5081,-5.5023,-5.4907,-5.6172,-6.0068,-6.0547,-6.2964,-6.9843,-7.4463,-7.7183,-7.7208,-7.7263,-7.7165,-7.7165,-7.7118,-7.7277,-7.7277,-7.7103,-7.7165,-7.7165,-7.7165,-7.7165,-7.7165,-7.7165,-7.7165,-7.7165,-7.7165,-7.7165,-7.7165,-7.7165,-7.7086,-7.7103,-7.7108,-7.7966,-7.941,-7.9374,-8.1121,-8.3616,-8.3527,-8.5788,-8.989,-9.6904,-9.9482,-9.9447,-9.9447,-9.9485,-9.9499,-9.9586,-9.9515,-9.9611,-9.9515,-9.9552,-9.9552,-9.9552,-9.9552,-9.9552,-9.9552,-9.9552,-9.9552,-9.9552,-9.9552,-9.9552,-9.9552,-9.9552,-9.9552,-9.9552,-9.9552,-9.9552,-9.9552,-9.9552,-9.9552,-9.9552,-9.9552,-9.9552,-9.9552,-9.993,-10.0076,-9.961,-9.9552,-9.9727,-10.0192,-10.025,-10.0425,-10.089,-10.0919,-10.0716,-10.0279,-10.025,-10.0047,-9.9581,-9.9552,-9.9552,-9.9552,-9.9552,-9.9552,-9.9552,-9.9552,-9.9552,-9.9552,-9.9552,-9.9552,-4.4328,-4.7453,-4.9876,-4.9952,-5.0034,-5.0056,-4.9921,-4.9879,-5.0047,-4.9881,-5.176,-5.363,-5.4763,-5.5004,-5.4985,-5.4994,-5.4961,-5.7515,-6.4474,-6.7907,-7.1641,-7.6483,-7.7084,-7.7084,-7.7121,-7.3681,-7.3034,-7.6862,-7.7181,-7.7103,-7.7189,-7.7165,-7.7165,-7.7165,-7.7165,-7.7165,-7.7165,-7.7165,-7.7165,-7.7165,-7.7165,-7.7165,-7.7189,-7.72,-7.7191,-7.7215,-7.7252,-7.8789,-8.1318,-8.1485,-8.2307,-8.4366,-9.1478,-9.422,-9.4205,-9.4205,-9.3269,-9.1981,-9.1983,-9.5198,-9.9557,-9.9471,-9.9593,-9.9457,-9.9457,-9.953,-9.9571,-9.9571,-9.9571,-9.96,-9.9443,-9.9472,-9.953,-9.9523,-9.9552,-9.9552,-9.9552,-9.9552,-9.9552,-9.9552,-9.9552,-9.9552,-9.9552,-9.9552,-9.9552,-9.9552,-9.9552,-9.9552,-9.9552,-9.9552,-9.9552,-9.9552,-9.9552,-9.9552,-9.9552,-9.9552,-9.9552,-9.9552,-9.9552,-9.9552,-9.9552,-9.9552,-9.9552,-9.9552,-9.9552,-9.9552,-9.9552,-9.9552,-9.9552,-9.9552,-9.9552,-9.9552,-4.2916,-4.7055,-4.9394,-4.97,-4.9946,-4.9887,-4.998,-4.9963,-4.9963,-5.001,-4.9966,-5.0991,-5.4214,-5.5023,-5.5071,-5.5087,-5.4944,-5.5043,-5.5007,-5.5023,-6.0296,-7.4865,-7.6571,-7.6669,-7.674,-6.6687,-6.4648,-7.5747,-7.6934,-7.7217,-7.711,-7.7214,-7.7214,-7.7214,-7.7189,-7.7165,-7.7165,-7.7165,-7.7165,-7.7165,-7.7165,-7.7165,-7.7165,-7.7165,-7.7165,-7.7189,-7.7215,-7.7072,-7.7121,-7.7125,-7.97,-8.3396,-8.3422,-8.3421,-8.3393,-8.3315,-8.0776,-7.7194,-7.7194,-8.6715,-9.8924,-9.8895,-9.8824,-9.8984,-9.9216,-9.9307,-9.9254,-9.9548,-9.9343,-9.9372,-9.943,-9.9399,-9.9307,-9.956,-9.9523,-9.9523,-9.9523,-9.9552,-9.9552,-9.9552,-9.9552,-9.9552,-9.9552,-9.9552,-9.9552,-9.9552,-9.9552,-9.9552,-9.9552,-9.9552,-9.9552,-9.9552,-9.9552,-9.9552,-9.9552,-9.9552,-9.9552,-9.9552,-9.9552,-9.9552,-9.9552,-9.9552,-9.9552,-9.9552,-9.9523,-9.9494,-9.9494,-9.9465,-9.9436,-9.9436,-9.9436,-9.9436,-4.202,-3.9355,-3.5671,-4.4223,-4.8173,-4.989,-4.991,-4.9945,-4.9907,-4.9991,-4.9924,-5.017,-5.1122,-5.3273,-5.5019,-5.5032,-5.4974,-5.5032,-5.5029,-5.4988,-5.6491,-6.0649,-6.3199,-6.4881,-6.4822,-6.198,-6.1388,-6.4452,-7.2468,-7.7095,-7.7255,-7.7165,-7.7193,-7.7193,-7.7127,-7.7165,-7.7165,-7.7165,-7.7165,-7.7165,-7.7165,-7.7165,-7.7165,-7.7165,-7.7165,-7.7165,-7.7159,-7.7232,-7.7079,-7.7097,-7.7845,-7.9013,-7.8863,-7.902,-7.889,-7.8992,-7.8212,-7.7239,-7.7125,-7.9795,-8.3313,-8.3398,-8.3356,-8.4743,-9.1879,-9.4024,-9.487,-9.8481,-9.6873,-9.4491,-9.6266,-9.542,-9.5012,-9.8726,-9.9461,-9.9579,-9.9454,-9.9541,-9.9478,-9.9494,-9.9552,-9.9552,-9.9552,-9.9552,-9.9552,-9.9552,-9.9552,-9.9552,-9.9552,-9.9552,-9.9552,-9.9552,-9.9552,-9.9552,-9.9552,-9.9552,-9.9552,-9.9552,-9.9552,-9.9552,-9.9552,-9.9552,-9.9552,-9.9552,-9.8651,-9.8185,-9.8185,-9.7255,-9.6818,-9.6818,-9.6818,-9.6818,-3.5764,-3.3265,-3.1388,-4.2135,-4.5426,-4.5769,-4.5792,-4.685,-4.8173,-4.972,-5.001,-5.0039,-4.994,-5.1481,-5.2826,-5.2856,-5.4069,-5.5013,-5.4968,-5.4911,-5.4911,-5.4972,-5.5519,-5.6396,-5.7825,-5.922,-5.9967,-6.0071,-6.6174,-6.9947,-6.991,-6.996,-7.2272,-7.7113,-7.7181,-7.7256,-7.7142,-7.7159,-7.7165,-7.7165,-7.7165,-7.7165,-7.7165,-7.7165,-7.7165,-7.7165,-7.7165,-7.7165,-7.7189,-7.7151,-7.7118,-7.7118,-7.7215,-7.7264,-7.6973,-7.5066,-7.4524,-7.4475,-7.4439,-7.448,-7.4431,-7.4411,-7.4414,-7.6257,-8.5764,-8.737,-8.7249,-9.4354,-9.4217,-9.2349,-9.3855,-9.4638,-9.5829,-9.8809,-9.7901,-9.6733,-9.77,-9.8755,-9.9549,-9.946,-9.9483,-9.9595,-9.9595,-9.9589,-9.9349,-9.8528,-9.7203,-9.7203,-9.9196,-9.9552,-9.9552,-9.9552,-9.9552,-9.9552,-9.9552,-9.9552,-9.9552,-9.9552,-9.9552,-9.932,-9.8767,-9.8767,-9.8505,-9.7982,-9.7226,-9.6848,-9.6848,-9.612,-9.5771,-9.5771,-9.5771,-9.519,-2.7096,-2.8635,-3.2336,-4.0576,-4.1561,-4.045,0.0,-4.2492,-4.5708,-4.8689,-4.9369,-4.9541,-4.9938,-5.002,-4.991,-5.0009,-5.2573,-5.4512,-5.4946,-5.4927,-5.482,-5.4386,-5.1888,-5.1059,-5.4146,-5.7137,-5.9015,-5.9035,-5.9674,-6.0014,-6.0086,-6.0045,-6.4459,-7.4479,-7.4997,-7.5943,-7.7069,-7.7167,-7.711,-7.7214,-7.7086,-7.7263,-7.7165,-7.7165,-7.7116,-7.7243,-7.7243,-7.7219,-7.7145,-7.7145,-7.7145,-7.7096,-7.7102,-7.6903,-7.6019,-7.2231,-7.0698,-7.0698,-7.0698,-7.0698,-7.0698,-7.0698,-7.0805,-7.2157,-8.0179,-7.9779,-7.8214,-8.7169,-9.0667,-9.1626,-9.0055,-9.3767,-9.775,-9.7863,-9.4837,-9.2756,-9.559,-9.7168,-9.8018,-9.8562,-9.8666,-9.893,-9.946,-9.9571,-9.8738,-9.6285,-9.366,-9.3739,-9.8942,-9.9436,-9.9465,-9.9465,-9.9523,-9.9552,-9.9552,-9.9436,-9.9349,-9.9349,-9.9203,-9.8622,-9.7487,-9.7458,-9.6935,-9.5801,-9.5626,-9.5568,-9.5568,-9.5393,-9.5335,-9.5335,-9.5335,-9.4114,0.0,0.0,0.0,0.0,0.0,0.0,0.0,-4.2546,-4.5089,-4.5759,-4.5837,-4.6689,-4.9455,-4.9866,-4.9956,-5.0001,-5.0436,-5.1987,-5.4692,-5.5089,-5.3968,-5.1314,-5.0357,-5.0253,-5.0816,-5.161,-5.1884,-5.1829,-5.7084,-6.0065,-6.0111,-5.9965,-5.9914,-5.9228,-6.2075,-6.7884,-7.7,-7.7276,-7.7265,-7.7079,-7.7229,-7.7084,-7.7165,-7.7165,-7.7072,-7.7175,-7.7175,-7.7076,-7.7189,-7.7189,-7.7189,-7.7189,-7.7258,-7.5006,-7.184,-7.1058,-7.0694,-7.0694,-7.0694,-7.0694,-7.0694,-7.0694,-7.0854,-7.1057,-7.2849,-7.2644,-7.2373,-7.4304,-8.3197,-8.9234,-7.7923,-8.1023,-8.7214,-8.7186,-8.9585,-9.3247,-9.775,-9.2613,-8.8373,-9.2601,-9.3474,-9.4666,-9.8864,-9.9518,-9.7319,-9.0742,-9.0967,-9.3705,-9.8932,-9.9548,-9.9483,-9.9483,-9.9501,-9.9552,-9.9552,-9.8622,-9.8011,-9.8011,-9.708,-9.6382,-9.615,-9.612,-9.6004,-9.5771,-9.4754,-9.423,-9.423,-9.3183,-9.2689,-9.2689,-9.2689,-9.2427,0.0,0.0,0.0,0.0,0.0,0.0,0.0,0.0,0.0,0.0,0.0,-4.3018,-4.4736,0.0,-4.7994,-4.9763,-4.9875,-5.0056,-5.0047,-5.1334,-5.1208,-4.7878,-4.8989,-4.9991,-4.998,-4.9972,-4.9881,-4.992,-5.3183,-5.5026,-5.502,-5.8261,-5.8409,-5.5119,-5.6686,-6.0279,-6.61,-6.6113,-6.6883,-6.8629,-7.4361,-7.7167,-7.7072,-7.7072,-7.7249,-7.7045,-7.4968,-7.4019,-7.3919,-7.3919,-7.3919,-7.4038,-7.397,-7.261,-7.0742,-7.0796,-7.0674,-7.0674,-7.0674,-7.0674,-7.0674,-7.0674,-7.0672,-7.0765,-7.0709,-7.0721,-7.0704,-7.0661,-7.5789,-7.9694,-7.2631,-7.4049,-7.7493,-7.7553,-7.9504,-8.2139,-8.4542,-8.4709,-8.4903,-8.7494,-8.8112,-9.0134,-9.6639,-9.6588,-9.3208,-8.5861,-8.8777,-9.286,-9.5393,-9.577,-9.6757,-9.9239,-9.8694,-9.7627,-9.5948,-9.5291,-9.5337,-9.6702,-9.612,-9.5481,-9.4841,-9.4812,-9.4521,-9.3881,-9.3241,-9.2921,-9.2921,-9.2252,-9.1962,-9.1932,-9.0624,-9.0013,0.0,0.0,0.0,0.0,0.0,0.0,0.0,0.0,0.0,0.0,0.0,0.0,0.0,0.0,0.0,-4.8493,-4.953,-4.878,-4.53,-4.7212,-4.7979,-4.5205,-4.735,-4.8995,-4.8905,-4.9483,-4.99,-5.0032,-4.9966,-4.9962,-4.9879,-5.5101,-5.6789,-5.4163,-5.4,-5.431,-5.4982,-5.5001,-5.6295,-5.9157,-6.8516,0.0,-7.2883,-7.4915,-7.5945,-7.5827,-7.2278,-7.0841,-7.0722,-7.0722,-7.0722,-7.0816,-7.0718,-7.0674,-7.0674,-7.0674,-7.0674,-7.0674,-7.0674,-7.0674,-7.0674,-7.0674,-7.0674,-7.0674,-7.0674,-7.0674,0.0,-7.0674,-7.0674,-7.0844,-7.0679,-7.0813,-7.0688,-7.0742,-7.0816,-7.0741,-7.0713,-7.6407,-8.167,-8.154,-8.167,-8.3979,-9.1662,-9.2374,-8.9358,-8.1697,-8.6974,-9.1878,-9.1859,-9.1976,-9.3705,-9.8267,-9.6877,-9.488,-9.2949,-9.2865,-9.3531,-9.5393,-9.5393,-9.4812,-9.3532,-9.3503,-9.3009,-9.1962,-9.1962,-9.1845,-9.1583,-9.1583,-9.1467,-9.1147,-8.8408,-8.7,0.0,0.0,0.0,0.0,0.0,0.0,0.0,0.0,0.0,0.0,0.0,0.0,0.0,0.0,0.0,0.0,-4.8032,-4.8728,-4.5486,-4.5235,-4.5369,-4.4856,-4.5248,-4.5515,-4.5412,-4.8121,-4.9979,-5.0022,-4.9895,-4.9963,-5.0035,-5.0711,0.0,0.0,0.0,-5.1891,-5.4907,-5.4982,-5.5193,-5.5572,-5.6947,-5.7437,-5.7811,-6.7174,-7.1559,-7.1477,-7.0907,-7.0684,-7.0709,-7.0709,-7.0709,-7.0684,-7.0747,-7.0674,-7.0674,-7.0674,-7.0674,-7.0674,-7.0674,0.0,0.0,-7.0674,-7.0674,-7.0674,-7.0674,-7.0674,-7.0674,-7.0674,-7.0674,-7.0833,-7.071,-7.0686,-7.0844,-7.077,-7.077,-7.0682,-7.079,-7.1496,-7.2249,-7.2262,-7.2349,-7.4606,-8.1621,-8.7999,-8.8653,-7.9022,-8.5799,-9.1874,-9.1921,-9.2008,-9.2987,-9.5857,-9.2696,0.0,-9.5217,-9.5391,-9.5073,-9.4143,-9.4085,-9.3503,-9.2223,-9.2165,-9.2107,-9.1962,-9.1962,-9.1409,-9.0246,-9.0246,-8.9664,-8.8442,-8.4906,-8.2842,0.0,0.0,0.0,0.0,0.0,0.0,0.0,0.0,0.0,0.0,0.0,0.0,0.0,0.0,0.0,0.0,-4.6095,-4.6481,-4.5023,-4.3333,-4.2849,-4.4679,-4.4835,-4.4895,-4.4826,-4.6219,-4.7077,-4.6981,-4.8924,-4.9946,-5.0015,-4.9961,-4.9887,-5.0015,-4.992,-5.0739,-5.2057,-5.2154,-5.3064,-5.5005,-5.5,-5.8288,-6.4363,-6.8656,-7.0684,-7.0759,-7.0759,-7.0808,-7.0674,-7.0674,-7.0674,-7.0784,0.0,0.0,0.0,0.0,-7.0704,-7.0704,-7.0704,-7.0704,-7.0704,-7.0704,-7.0704,-7.0704,-7.0704,-7.0704,-7.0704,-7.0704,-7.0704,-7.0803,-7.0814,-7.0731,-7.0805,-7.0784,-7.0674,-7.0735,-7.0814,-7.074,-7.0772,-7.066,-7.0759,0.0,-7.4589,-7.7702,-7.9911,-8.1155,-8.0376,-8.2639,-9.083,-9.1932,-9.1322,-8.9485,-8.8624,-8.8822,-9.0138,-9.1052,0.0,0.0,0.0,-9.2514,-9.1962,-9.1962,0.0,0.0,0.0,-8.7491,-8.6978,-8.5516,0.0,0.0,-7.9447,-7.7827,0.0,0.0,0.0,0.0,0.0,0.0,0.0,0.0,0.0,0.0,0.0,0.0,0.0,0.0,0.0,0.0,-4.3743,-4.4613,-4.3685,-4.2301,-4.1982,-4.3359,-4.3635,-4.3855,-4.4818,-4.4876,-4.485,-4.4917,-4.716,-4.8648,-4.8641,-4.8542,-4.9069,-4.9868,-4.9866,-4.9867,-5.0037,-4.9902,-5.1178,-5.3534,-5.3692,-5.7587,-6.5149,-6.7783,-6.9066,-6.9047,-7.0253,-7.0698,-7.0731,-7.0731,-7.0731,-7.0584,-6.9363,-6.8995,-6.9019,-6.9019,-6.9019,-6.9019,-6.9019,-6.9019,-6.9019,-6.9019,-6.9019,-6.9044,-6.9045,-6.892,-6.897,-6.8968,-6.9017,-6.894,-6.9053,-6.9902,-7.0754,-7.0814,-7.0731,-7.0731,-7.0731,-7.0672,-7.0795,-7.0795,-7.0854,-7.0658,-7.0025,-6.9284,-7.1286,-7.7781,-7.4232,-7.5303,-8.808,-9.114,-9.0639,-8.703,-8.7235,-8.7636,-8.7267,-8.8115,-8.9571,-9.127,-9.1758,-9.1787,-9.1438,-9.1438,-9.0827,-8.9519,-8.6654,-8.4444,0.0,0.0,0.0,0.0,0.0,0.0,0.0,0.0,0.0,0.0,0.0,0.0,0.0,0.0,0.0,0.0,0.0,0.0,0.0,0.0,0.0,0.0,0.0,0.0,-4.0672,-4.2841,-4.3641,-4.0462,-4.0269,-4.1376,-4.4534,-4.4947,-4.4957,-4.4937,-4.5063,-4.5079,-4.5032,-4.5123,-4.6551,-4.9909,-4.9987,-4.994,-4.9995,-4.9942,-5.0018,-5.0059,-5.0084,-5.0228,-5.0955,-6.0356,-6.4505,-6.4684,-6.9017,-7.0692,-7.0717,-7.0717,-7.0717,-7.0291,-6.6133,-6.4479,-6.4593,-6.4593,-6.4593,-6.4593,-6.4593,-6.4593,-6.4593,-6.4593,-6.4593,-6.4548,-6.4502,-6.4524,-6.4473,-6.4574,-6.4566,-6.4566,-6.4589,-6.7599,-7.0692,-7.0692,-7.0717,-7.0717,-7.0717,-7.066,-7.0748,-7.0748,-7.0788,-7.0065,-6.7921,-6.5786,-6.4698,-6.4895,-6.822,0.0,-8.3236,-8.8852,-9.194,-9.1736,-9.0282,-8.9393,-8.9364,-8.979,-8.9935,-9.01,-9.1264,-9.1409,-9.0158,-9.01,-8.9489,-8.8123,-8.6843,-8.3955,-7.9531,0.0,0.0,0.0,0.0,0.0,0.0,0.0,0.0,0.0,0.0,0.0,0.0,0.0,0.0,0.0,0.0,0.0,0.0,0.0,0.0,0.0,0.0,0.0,0.0,-3.7654,-3.9578,-4.2873,-3.6403,-3.4223,-4.1045,-4.3702,-4.4047,-4.1833,-4.3634,-4.4969,-4.4903,-4.485,-4.5467,-4.6554,-4.6654,-4.6644,-4.6669,-4.8896,-4.9965,-4.9995,-4.9937,-4.9876,-5.0306,-5.9935,-6.4376,-6.4367,-6.5911,-6.6546,-6.6586,-6.6586,-6.6429,-6.6036,-6.1725,-6.0122,-6.0124,-6.0124,-6.0078,-6.0098,-6.0098,-6.0098,-6.0098,-6.0098,-6.0098,-6.0145,-6.002,-6.2023,-6.4405,-6.4353,-6.4304,-6.4304,-6.4304,-6.5398,-6.6452,-6.6526,-6.6445,-6.6586,-6.6586,-6.6579,-6.7416,-7.0212,-6.8422,-6.63,-6.5445,-6.5956,-6.6983,-6.8301,-7.2225,-7.6099,-7.9127,-8.0995,-8.403,-8.885,-8.7661,-8.6728,-8.7325,-8.9678,-9.1322,-9.1322,-9.0915,-9.0507,-9.0071,-8.8384,-8.6843,-8.5534,-8.4284,-8.0694,-7.4666,0.0,0.0,0.0,0.0,0.0,0.0,0.0,0.0,0.0,0.0,0.0,0.0,0.0,0.0,0.0,0.0,0.0,0.0,0.0,0.0,0.0,0.0,0.0,0.0,0.0,0.0,-4.2184,-3.5509,0.0,-3.9433,-3.9178,-3.9596,-4.1672,-4.272,-4.3748,-4.4909,-4.3817,-4.3613,-4.48,-4.4882,-4.4958,-4.4958,-4.7103,-4.8215,-4.8215,-4.8071,-4.8138,-4.8353,-5.4599,-5.9874,-6.4406,-6.4377,-6.4307,-6.431,-6.2692,-6.2039,-6.1815,-5.9009,-5.8007,-5.811,-5.9635,-6.0276,-6.0156,-6.0156,-6.0156,-6.0156,-6.0156,-6.0156,-6.018,-6.0257,-6.2076,-6.4261,-6.4386,-6.323,-6.21,-6.2076,-6.2043,-6.2408,-6.4042,-6.4382,-6.4283,-6.4382,-6.4357,-6.5084,-6.8003,-6.6135,-6.4331,-6.428,-6.6039,-6.7872,-6.9383,-7.2563,-7.5455,-7.7025,-7.7133,-7.8394,-8.1548,-8.2568,-8.4029,-8.6306,-8.8499,-9.0071,-9.0536,-8.978,-8.8937,-8.8006,-8.6348,-8.3887,-8.0561,-7.9727,-7.6262,0.0,0.0,0.0,0.0,0.0,0.0,0.0,0.0,0.0,0.0,0.0,0.0,0.0,0.0,0.0,0.0,0.0,0.0,0.0,0.0,0.0,0.0,0.0,0.0,0.0,0.0,0.0,-3.8774,-3.719,0.0,0.0,0.0,0.0,-4.3516,-4.1578,-4.1206,-4.4295,-4.1738,-4.1651,-4.4724,-4.4856,-4.4894,-4.4932,-4.4831,-4.4782,-4.4819,-4.4862,-4.4966,-4.4943,-4.4876,-5.1884,-6.3959,-6.4023,-6.4017,-6.3683,-5.9356,-5.7677,-5.7784,-5.7314,-5.6969,-5.7463,-6.1558,-6.3479,-6.4037,-6.4037,-6.4037,-6.4037,-6.4037,-6.4037,-6.399,-6.3996,-6.3533,0.0,0.0,-6.0638,-5.7945,-5.827,-5.8271,-5.9347,-6.3313,-6.4186,-6.3963,-6.4033,-6.4087,-6.4058,-6.4319,-6.43,-6.4349,-6.4447,0.0,-6.7163,-6.7487,-6.9264,-7.2159,-7.6342,-7.6879,-7.5294,-7.139,-7.5926,-8.1299,-8.6007,-8.6133,-8.6539,-8.77,-8.789,-8.6756,-8.4342,-8.3752,-8.0597,-7.3977,-7.3517,0.0,0.0,0.0,0.0,0.0,0.0,0.0,0.0,0.0,0.0,0.0,0.0,0.0,0.0,0.0,0.0,0.0,0.0,0.0,0.0,0.0,0.0,0.0,0.0,0.0,0.0,-3.5978,-3.6985,-3.9714,-3.9221,-3.5937,0.0,0.0,0.0,0.0,0.0,0.0,-3.7456,-4.1381,-4.3986,-4.486,-4.4889,-4.4986,-4.4955,-4.2452,-4.259,-4.4875,-4.4854,-4.4952,-4.498,-4.4897,-5.0221,-5.9636,-5.9509,-5.9576,-5.9235,-5.4869,-5.5084,-5.707,-4.8076,-4.459,-4.4759,-4.5833,-5.1877,-5.9529,-5.9554,-5.9579,-5.9579,-5.9579,-5.9579,-5.9603,-5.9577,0.0,0.0,0.0,0.0,-5.8612,-6.1937,-6.2744,-6.2917,-6.403,-6.1938,-5.9629,-5.9618,-5.9484,-6.0437,-6.3732,-6.4319,-6.4603,-6.566,-6.4137,0.0,-6.7052,-6.9334,-7.1147,-7.2169,-7.2325,-7.2717,-7.3748,-7.5636,-7.7448,-7.8618,-8.2627,-8.4889,-8.4401,-8.4861,-8.4952,-8.4342,-7.8572,-7.4071,-7.1521,0.0,0.0,0.0,0.0,0.0,0.0,0.0,0.0,0.0,0.0,0.0,0.0,0.0,0.0,0.0,0.0,0.0,0.0,0.0,0.0,0.0,0.0,0.0,0.0,0.0,0.0,0.0,-3.6432,-3.8325,-3.3571,-3.2917,-3.1788,0.0,0.0,0.0,0.0,0.0,0.0,0.0,0.0,0.0,-4.0491,-4.2064,-4.3488,-4.4891,-4.3091,-4.3136,-4.4965,-4.488,-4.4966,-4.487,-4.3482,-4.5423,-5.0061,-5.004,-5.3059,-5.7373,-5.12,-4.8302,-4.7146,0.0,0.0,0.0,0.0,-4.2081,-4.7819,-4.7841,-5.0993,-5.5035,-5.5035,0.0,0.0,0.0,0.0,0.0,0.0,0.0,-4.875,-5.2738,-5.7669,-6.1505,-6.1505,-5.9732,-5.7952,-5.7841,-5.7963,-5.8668,-6.1077,-6.3077,-6.4577,-6.5422,-6.3804,0.0,0.0,0.0,-6.8591,-7.0501,-7.0844,-7.1762,-7.4422,-7.5247,-7.6281,-7.7298,-7.9928,-8.1799,-8.2094,-8.1904,-8.1088,-7.9089,-7.4783,-6.995,0.0,0.0,0.0,0.0,0.0,0.0,0.0,0.0,0.0,0.0,0.0,0.0,0.0,0.0,0.0,0.0,0.0,0.0,0.0,0.0,0.0,0.0,0.0,0.0,0.0,0.0,0.0,0.0,0.0,-3.3976,-2.452,0.0,0.0,0.0,0.0,0.0,0.0,0.0,0.0,0.0,0.0,0.0,0.0,0.0,-3.9241,-4.2082,-4.3074,-4.382,-4.4225,-4.4334,-4.4309,-4.4173,-4.1842,-4.0641,-4.0596,-4.0181,0.0,-5.4891,-4.6935,0.0,0.0,0.0,0.0,0.0,0.0,0.0,0.0,0.0,0.0,0.0,0.0,0.0,0.0,0.0,0.0,0.0,0.0,0.0,0.0,0.0,0.0,-5.7002,-5.7127,-5.7471,-5.7422,-5.5383,-5.4837,-5.484,-5.4869,-5.9541,-6.366,0.0,0.0,0.0,0.0,0.0,0.0,-6.9833,-7.0436,-7.1168,-7.296,-7.4003,-7.538,-7.745,-7.7048,-7.7496,-7.9305,-7.8329,-7.5998,-7.2053,-7.1238,0.0,0.0,0.0,0.0,0.0,0.0,0.0,0.0,0.0,0.0,0.0,0.0,0.0,0.0,0.0,0.0,0.0,0.0,0.0,0.0,0.0,0.0,0.0,0.0,0.0,0.0,0.0,0.0,0.0,0.0,0.0,0.0,0.0,0.0,0.0,0.0,0.0,0.0,0.0,0.0,0.0,0.0,0.0,0.0,0.0,0.0,0.0,0.0,0.0,0.0,-4.0908,-4.093,-4.0992,-4.3091,-4.3973,-4.3885,-4.1242,-4.1288,-4.2862,-3.8463,0.0,0.0,0.0,0.0,0.0,0.0,0.0,0.0,0.0,0.0,0.0,0.0,0.0,0.0,0.0,0.0,0.0,0.0,0.0,0.0,0.0,0.0,-5.2564,-5.2613,-5.5296,-5.4525,-4.1736,0.0,0.0,0.0,0.0,0.0,0.0,0.0,0.0,0.0,0.0,0.0,-6.8232,-6.8623,-6.8862,-6.8567,-6.8715,-6.862,-6.82,-7.0582,-7.1901,-7.1267,-7.187,-7.1495,0.0,0.0,0.0,0.0,0.0,0.0,0.0,0.0,0.0,0.0,0.0,0.0,0.0,0.0,0.0,0.0,0.0,0.0,0.0,0.0,0.0,0.0,0.0,0.0,0.0,0.0,0.0,0.0,0.0,0.0,0.0,0.0,0.0,0.0,0.0,0.0,0.0,0.0,0.0,0.0,0.0,0.0,0.0,0.0,0.0,0.0,0.0,0.0,0.0,0.0,0.0,0.0,0.0,0.0,0.0,0.0,0.0,0.0,-4.1693,-4.0539,0.0,0.0,0.0,0.0,0.0,0.0,0.0,0.0,0.0,0.0,0.0,0.0,0.0,0.0,0.0,0.0,0.0,0.0,0.0,0.0,0.0,0.0,0.0,0.0,0.0,0.0,0.0,0.0,0.0,0.0,0.0,0.0,0.0,0.0,0.0,0.0,0.0,0.0,0.0,0.0,-6.7297,-6.6858,-6.66,-6.7403,-6.7501,-6.7281,-6.6769,-6.8152,-6.8898,-6.8304,-6.8183,0.0,0.0,0.0,0.0,0.0,0.0,0.0,0.0,0.0,0.0,0.0,0.0,0.0,0.0,0.0,0.0,0.0,0.0,0.0,0.0,0.0,0.0,0.0,0.0,0.0,0.0,0.0,0.0,0.0,0.0,0.0,0.0,0.0,0.0,0.0,0.0,0.0,0.0,0.0,0.0,0.0,0.0,0.0,0.0,0.0,0.0,0.0,0.0,0.0,0.0,0.0,0.0,0.0,0.0,0.0,0.0,0.0,0.0,0.0,-3.884,-3.8688,0.0,0.0,0.0,0.0,0.0,0.0,0.0,0.0,0.0,0.0,0.0,0.0,0.0,0.0,0.0,0.0,0.0,0.0,0.0,0.0,0.0,0.0,0.0,0.0,0.0,0.0,0.0,0.0,0.0,0.0,0.0,0.0,0.0,0.0,0.0,0.0,0.0,0.0,0.0,0.0,-6.5535,-6.4871,-6.4548,-6.6281,-6.6671,-6.6818,-6.6818,-6.6598,-6.6277,-6.6177,-6.4755,0.0,0.0,0.0,0.0,0.0,0.0,0.0,0.0,0.0,0.0,0.0,0.0,0.0,0.0,0.0,0.0,0.0,0.0,0.0,0.0,0.0,0.0,0.0,0.0,0.0,0.0,0.0,0.0,0.0,0.0,0.0,0.0,0.0,0.0,0.0,0.0,0.0,0.0,0.0,0.0,0.0,0.0,0.0,0.0,0.0,0.0,0.0,0.0,0.0,0.0,0.0,0.0,0.0,0.0,0.0,0.0,0.0,0.0,0.0,0.0,0.0,0.0,0.0,0.0,0.0,0.0,0.0,0.0,0.0,0.0,0.0,0.0,0.0,0.0,0.0,0.0,0.0,0.0,0.0,0.0,0.0,0.0,0.0,0.0,0.0,0.0,0.0,0.0,0.0,0.0,0.0,0.0,0.0,0.0,0.0,0.0,0.0,0.0,0.0,0.0,0.0,-6.0904,-6.2012,-6.2579,-6.3035,-6.3987,-6.4597,-6.4597,-6.367,-6.2547,-6.1694,0.0,0.0,0.0,0.0,0.0,0.0,0.0,0.0,0.0,0.0,0.0,0.0,0.0,0.0,0.0,0.0,0.0,0.0,0.0,0.0,0.0,0.0,0.0,0.0,0.0,0.0,0.0,0.0,0.0,0.0,0.0,0.0,0.0,0.0,0.0,0.0,0.0,0.0,0.0,0.0,0.0,0.0,0.0,0.0,0.0,0.0,0.0,0.0,0.0,0.0,0.0,0.0,0.0,0.0,0.0,0.0,0.0,0.0,0.0,0.0,0.0,0.0,0.0,0.0,0.0,0.0,0.0,0.0,0.0,0.0,0.0,0.0,0.0,0.0,0.0,0.0,0.0,0.0,0.0,0.0,0.0,0.0,0.0,0.0,0.0,0.0,0.0,0.0,0.0,0.0,0.0,0.0,0.0,0.0,0.0,0.0,0.0,0.0,0.0,0.0,0.0,0.0,-5.9923,-6.0717,-6.0778,-6.1595,-6.2059,-6.2327,-6.2327,-6.1913,-6.0644,-5.8301,0.0,0.0,0.0,0.0,0.0,0.0,0.0,0.0,0.0,0.0,0.0,0.0,0.0,0.0,0.0,0.0,0.0,0.0,0.0,0.0,0.0,0.0,0.0,0.0,0.0,0.0,0.0,0.0,0.0,0.0,0.0,0.0,0.0,0.0,0.0,0.0,0.0,0.0,0.0,0.0,0.0,0.0,0.0,0.0,0.0,0.0,0.0,0.0,0.0,0.0,0.0,0.0,0.0,0.0,0.0,0.0,0.0,0.0,0.0,0.0,0.0,0.0,0.0,0.0,0.0,0.0,0.0,0.0,0.0,0.0,0.0,0.0,0.0,0.0,0.0,0.0,0.0,0.0,0.0,0.0,0.0,0.0,0.0,0.0,0.0,0.0,0.0,0.0,0.0,0.0,0.0,0.0,0.0,0.0,0.0,0.0,0.0,0.0,0.0,0.0,0.0,0.0,-5.6855,-5.888,-5.9789,-6.0497,-6.0839,-6.101,-6.101,-6.0741,-5.9204,-5.5958,0.0,0.0,0.0,0.0,0.0,0.0,0.0,0.0,0.0,0.0,0.0,0.0,0.0,0.0,0.0,0.0,0.0,0.0,0.0,0.0,0.0,0.0,0.0,0.0,0.0,0.0,0.0,0.0,0.0,0.0,0.0,0.0,0.0,0.0,0.0,0.0,0.0,0.0,0.0,0.0,0.0,0.0,0.0,0.0,0.0,0.0,0.0,0.0,0.0,0.0,0.0,0.0,0.0,0.0,0.0,0.0,0.0,0.0,0.0,0.0,0.0,0.0,0.0,0.0,0.0,0.0,0.0,0.0,0.0,0.0,0.0,0.0,0.0,0.0,0.0,0.0,0.0,0.0,0.0,0.0,0.0,0.0,0.0,0.0,0.0,0.0,0.0,0.0,0.0,0.0,0.0,0.0,0.0,0.0,0.0,0.0,0.0,0.0,0.0,0.0,0.0,0.0,-4.9876,-5.5652,-5.9521,-5.9521,-6.0424,-6.101,-6.101,-6.0107,-5.813,0.0,0.0,0.0,0.0,0.0,0.0,0.0,0.0,0.0,0.0,0.0,0.0,0.0,0.0,0.0,0.0,0.0,0.0,0.0,0.0,0.0,0.0,0.0,0.0,0.0,0.0,0.0,0.0,0.0,0.0,0.0,0.0,0.0,0.0,0.0,0.0,0.0,0.0,0.0,0.0,0.0,0.0,0.0,0.0,0.0,0.0,0.0,0.0,0.0,0.0,0.0,0.0,0.0,0.0,0.0,0.0,0.0,0.0,0.0,0.0,0.0,0.0,0.0,0.0,0.0,0.0,0.0,0.0,0.0,0.0,0.0,0.0,0.0,0.0,0.0,0.0,0.0,0.0,0.0,0.0,0.0,0.0,0.0,0.0,0.0,0.0,0.0,0.0,0.0,0.0,0.0,0.0,0.0,0.0,0.0,0.0,0.0,0.0,0.0,0.0,0.0,0.0,0.0,-5.5421,-5.7226,-5.8486,-5.8374,-5.8716,-5.8886,-5.8886,-5.791,-5.5885,-5.2639,0.0,0.0,0.0,0.0,0.0,0.0,0.0,0.0,0.0,0.0,0.0,0.0,0.0,0.0,0.0,0.0,0.0,0.0,0.0,0.0,0.0,0.0,0.0,0.0,0.0,0.0,0.0,0.0,0.0,0.0,0.0,0.0,0.0,0.0,0.0,0.0,0.0,0.0,0.0,0.0,0.0,0.0,0.0,0.0,0.0,0.0,0.0,0.0,0.0,0.0,0.0,0.0,0.0,0.0,0.0,0.0,0.0,0.0,0.0,0.0,0.0,0.0,0.0,0.0,0.0,0.0,0.0,0.0,0.0,0.0,0.0,0.0,0.0,0.0,0.0,0.0,0.0,0.0,0.0,0.0,0.0,0.0,0.0,0.0,0.0,0.0,0.0,0.0,0.0,0.0,0.0,0.0,0.0,0.0,0.0,0.0,0.0,0.0,0.0,0.0,0.0,0.0,0.0,-5.5926,-5.7229,0.0,-5.7666,-5.7739,-5.7325,-5.6641,-5.4689,-5.1028,0.0,0.0,0.0,0.0,0.0,0.0,0.0,0.0,0.0,0.0,0.0,0.0,0.0,0.0,0.0,0.0,0.0,0.0,0.0,0.0,0.0,0.0,0.0,0.0,0.0,0.0,0.0,0.0,0.0,0.0,0.0,0.0,0.0,0.0,0.0,0.0,0.0,0.0,0.0,0.0,0.0,0.0,0.0,0.0,0.0,0.0,0.0,0.0,0.0,0.0,0.0,0.0,0.0,0.0,0.0,0.0,0.0,0.0,0.0,0.0,0.0,0.0,0.0,0.0,0.0,0.0,0.0,0.0,0.0,0.0,0.0,0.0,0.0,0.0,0.0,0.0,0.0,0.0,0.0,0.0,0.0,0.0,0.0,0.0,0.0,0.0,0.0,0.0,0.0,0.0,0.0,0.0,0.0,0.0,0.0,0.0,0.0,0.0,0.0,0.0,0.0,0.0,0.0,-5.2945,-5.6056,-5.6104,-5.7056,-5.7251,-5.6202,-5.6056,-5.4225,-5.0028,-4.9686,0.0,0.0,0.0,0.0,0.0,0.0,0.0,0.0,0.0,0.0,0.0,0.0,0.0,0.0,0.0,0.0,0.0,0.0,0.0,0.0,0.0,0.0,0.0,0.0,0.0,0.0,0.0,0.0,0.0,0.0,0.0,0.0,0.0,0.0,0.0,0.0,0.0,0.0,0.0,0.0,0.0,0.0,0.0,0.0,0.0,0.0,0.0,0.0,0.0,0.0,0.0,0.0,0.0,0.0,0.0,0.0,0.0,0.0,0.0,0.0,0.0,0.0,0.0,0.0,0.0,0.0,0.0,0.0,0.0,0.0,0.0,0.0,0.0,0.0,0.0,0.0,0.0,0.0,0.0,0.0,0.0,0.0,0.0,0.0,0.0,0.0,0.0,0.0,0.0,0.0,0.0,0.0,0.0,0.0,0.0,0.0,0.0,0.0,0.0,0.0,0.0,0.0,-5.422,-5.4984,-5.4957,-5.525,-5.5299,-5.5031,-5.425,-5.2639,-4.993,-4.9027,0.0,0.0,0.0,0.0,0.0,0.0,0.0,0.0,0.0,0.0,0.0,0.0,0.0,0.0,0.0,0.0,0.0,0.0,0.0,0.0,0.0,0.0,0.0,0.0,0.0,0.0,0.0,0.0,0.0,0.0,0.0,0.0,0.0,0.0,0.0,0.0,0.0,0.0,0.0,0.0,0.0,0.0,0.0,0.0,0.0,0.0,0.0,0.0,0.0,0.0,0.0,0.0,0.0,0.0,0.0,0.0,0.0,0.0,0.0,0.0,0.0,0.0,0.0,0.0,0.0,0.0,0.0,0.0,0.0,0.0,0.0,0.0,0.0,0.0,0.0,0.0,0.0,0.0,0.0,0.0,0.0,0.0,0.0,0.0,0.0,0.0,0.0,0.0,0.0,0.0,0.0,0.0,0.0,0.0,0.0,0.0,0.0,0.0,0.0,0.0,0.0,0.0,-5.3221,-5.348,-5.4048,-5.4396,-5.4445,-5.3932,-5.3371,-5.1907,-4.9223,-4.81,0.0,0.0,0.0,0.0,0.0,0.0,0.0,0.0,0.0,0.0,0.0,0.0,0.0,0.0,0.0,0.0,0.0,0.0,0.0,0.0,0.0,0.0,0.0,0.0,0.0,0.0,0.0,0.0,0.0,0.0,0.0,0.0,0.0,0.0,0.0,0.0,0.0,0.0,0.0,0.0,0.0,0.0,0.0,0.0,0.0,0.0,0.0,0.0,0.0,0.0,0.0,0.0,0.0,0.0,0.0,0.0,0.0,0.0,0.0,0.0,0.0,0.0,0.0,0.0,0.0,0.0,0.0,0.0,0.0,0.0,0.0,0.0,0.0,0.0,0.0,0.0,0.0,0.0,0.0,0.0,0.0,0.0,0.0,0.0,0.0,0.0,0.0,0.0,0.0,0.0,0.0,0.0,0.0,0.0,0.0,0.0,0.0,0.0,0.0,0.0,0.0,0.0,0.0,-5.2029,-5.3133,-5.3828,-5.3786,-5.2883,-5.2785,-5.1492,-4.8442,0.0,0.0,0.0,0.0,0.0,0.0,0.0,0.0,0.0,0.0,0.0,0.0,0.0,0.0,0.0,0.0,0.0,0.0,0.0,0.0,0.0,0.0,0.0,0.0,0.0,0.0,0.0,0.0,0.0,0.0,0.0,0.0,0.0,0.0,0.0,0.0,0.0,0.0,0.0,0.0,0.0,0.0,0.0,0.0,0.0,0.0,0.0,0.0,0.0,0.0,0.0,0.0,0.0,0.0,0.0,0.0,0.0,0.0,0.0,0.0,0.0,0.0,0.0,0.0,0.0,0.0,0.0,0.0,0.0,0.0,0.0,0.0,0.0,0.0,0.0,0.0,0.0,0.0,0.0,0.0,0.0,0.0,0.0,0.0,0.0,0.0,0.0,0.0,0.0,0.0,0.0,0.0,0.0,0.0,0.0,0.0,0.0,0.0,0.0,0.0,0.0,0.0,0.0,0.0,-5.1552,-5.1882,-5.1944,-5.1858,-5.1822,-5.1797,-5.0711,-4.8393,0.0,0.0,0.0,0.0,0.0,0.0,0.0,0.0,0.0,0.0,0.0,0.0,0.0,0.0]}]]]